GFSGL_2pvu_pres_000.txt.gz
Presure
116 163 161 173 80 84 182 174 169 186 197 168 187 183 188 197 183 164 181 73 70 154 192 189 186 190 197 183 184 190 191 199 198 180 154 189 187 202 219 215 269 259 239
175 179 114 174 180 159 189 188 181 182 174 204 204 187 100 205 173 162 240 214 171 197 205 194 170 180 180 185 191 195 196 188 192 177 203 205 202 198 238 203 263 252 242
181 183 175 171 187 181 181 191 203 211 204 201 177 190 204 144 183 210 253 148 186 190 171 195 201 189 191 192 181 189 175 180 185 205 206 213 197 199 264 242 258 237 244
170 163 189 193 181 170 171 187 198 188 201 203 176 218 109 211 229 242 175 197 187 164 193 185 197 180 192 200 182 174 191 203 209 216 201 206 205 183 220 261 257 245 243
193 193 174 168 201 206 206 197 205 203 202 214 278 219 209 221 184 207 211 191 198 173 205 201 180 179 197 170 196 204 199 213 222 220 219 227 213 203 273 260 250 246 239
189 174 177 196 154 152 153 181 219 190 238 216 207 208 212 204 202 204 201 178 194 200 212 200 205 205 205 202 187 144 215 215 217 244 213 286 201 288 275 225 248 238 231
200 170 157 202 175 219 202 205 201 183 185 169 214 206 181 187 168 182 212 200 201 214 220 215 214 196 212 209 221 231 225 213 197 201 216 213 305 285 261 255 245 236 232
191 186 194 221 160 209 219 173 228 226 190 184 185 194 211 154 212 199 220 207 197 202 188 200 185 213 217 259 225 218 216 208 218 271 297 341 305 283 224 246 239 237 223
158 198 169 213 228 217 193 170 198 199 198 199 185 200 200 208 213 233 233 267 174 189 250 240 252 255 241 242 247 221 225 333 319 307 344 328 298 229 259 242 236 235 224
203 140 209 197 167 173 181 187 204 162 277 210 248 232 352 189 360 374 228 257 332 286 295 271 284 361 368 343 353 346 340 324 394 350 333 316 224 260 258 244 237 224 223
205 171 193 187 228 175 206 241 259 236 275 299 311 237 235 320 294 237 288 333 270 314 295 348 308 235 362 352 346 337 327 382 348 332 294 291 270 254 248 227 231 226 222
216 177 174 212 265 257 302 350 229 201 305 248 384 344 375 369 355 352 358 342 334 354 352 362 392 378 367 361 366 294 386 369 327 278 297 268 262 258 242 230 242 215 236
263 275 311 253 221 332 284 296 341 366 380 376 380 392 393 388 386 382 383 374 367 368 311 279 323 278 354 334 258 246 365 345 244 288 282 262 251 244 244 229 227 225 228
335 360 308 342 335 332 321 303 305 318 385 387 396 322 308 304 335 337 378 316 367 329 321 330 349 352 437 401 403 353 253 280 305 288 270 270 254 238 236 232 225 229 229
359 355 371 374 344 314 315 319 290 338 385 415 370 412 379 370 372 370 364 441 395 362 315 293 319 308 337 348 294 259 335 309 300 290 265 255 257 238 229 219 217 224 190
376 379 320 314 319 319 384 395 423 410 353 313 370 366 362 357 340 330 338 337 389 409 415 308 289 294 281 270 256 316 320 307 298 277 269 265 251 242 238 242 244 243 239
377 315 319 316 328 434 417 363 389 314 352 346 344 341 341 344 337 332 329 343 361 369 374 445 287 274 264 273 335 309 291 293 292 283 274 263 263 262 254 246 249 248 244
334 357 371 376 376 370 366 356 348 342 330 317 328 356 358 365 375 372 325 329 342 350 340 427 408 353 367 320 316 291 288 275 276 266 244 258 244 250 246 259 244 237 247
369 356 349 358 353 348 345 338 336 335 345 350 346 427 432 432 343 444 380 315 321 338 325 410 401 362 331 307 297 293 275 283 272 268 251 241 246 245 255 244 245 247 226
350 348 345 345 341 335 337 370 358 349 411 421 416 413 411 413 418 425 437 310 309 324 310 402 380 337 313 308 307 275 263 258 247 259 261 242 237 246 253 235 228 228 233
344 340 336 341 505 485 458 443 431 413 395 387 388 390 395 398 406 415 419 337 300 308 299 403 366 319 292 296 274 264 264 251 260 256 238 243 259 227 227 227 233 237 230
347 515 502 489 465 441 430 415 392 376 368 362 358 361 368 376 385 406 407 342 316 306 295 389 349 316 291 273 263 258 266 262 253 237 240 245 236 245 229 225 235 237 240
512 481 468 439 423 416 401 371 358 352 352 351 348 347 349 353 364 398 395 419 324 306 295 376 338 304 279 273 266 247 259 248 251 243 236 228 233 229 231 232 231 239 233
447 426 401 391 377 363 354 348 348 341 340 339 357 336 348 347 345 364 380 430 325 306 293 359 323 293 271 261 264 252 242 244 248 230 231 238 228 243 228 227 241 230 229
362 355 352 349 348 351 354 338 332 337 391 393 398 410 333 357 336 346 376 512 327 308 293 363 281 301 274 263 256 241 245 252 242 231 232 230 235 229 237 238 231 227 231
354 359 357 354 346 339 332 343 391 375 362 371 387 398 340 359 334 336 405 319 323 302 294 357 308 289 261 254 239 241 242 241 230 229 229 232 230 227 235 228 240 240 241

GFSGL_2pvu_pres_003.txt.gz
Presure
175 164 179 76 163 155 170 176 183 169 167 176 192 174 171 184 202 190 203 199 212 193 200 148 222 261 241 219 254 161 180 189 154 188 187 172 181 166 166 169 193 207 205
136 166 161 176 180 178 186 188 173 191 194 195 183 184 204 204 202 207 205 210 176 201 203 167 226 182 218 166 175 192 189 186 194 177 183 206 168 202 203 203 205 214 208
158 174 180 178 189 182 182 174 196 138 182 181 185 150 158 201 184 193 181 231 177 191 169 178 192 165 208 188 195 195 197 196 189 199 202 191 177 176 200 199 219 227 193
179 179 187 185 176 173 192 193 182 181 192 188 154 209 160 211 235 176 180 163 181 158 203 172 211 164 190 188 190 172 191 173 186 199 196 179 198 206 207 232 218 214 213
129 145 163 188 191 191 189 180 146 162 183 147 159 184 205 178 160 165 220 226 167 201 228 196 205 170 197 167 179 189 192 199 221 177 210 179 173 253 242 240 278 218 215
188 193 136 140 200 166 218 174 142 127 132 153 143 211 150 191 144 208 193 189 233 221 202 205 224 212 168 227 191 231 220 198 183 221 276 234 298 224 193 228 281 215 233
164 180 165 145 137 146 189 162 151 184 241 202 237 180 170 228 241 265 229 302 181 232 363 320 382 275 272 312 266 383 245 316 259 260 251 259 248 256 247 215 213 279 264
125 158 146 157 134 146 204 191 188 210 189 191 263 231 268 354 200 225 298 289 323 212 284 269 283 356 262 231 348 338 293 373 345 271 268 342 358 354 326 294 280 271 285
135 151 163 236 182 238 202 230 220 254 257 254 388 319 396 285 238 274 244 252 298 348 195 376 372 375 392 379 341 386 375 289 364 358 365 322 337 327 317 300 291 313 283
169 164 230 239 222 240 243 331 347 370 256 265 359 404 361 227 402 397 328 318 392 365 378 312 337 369 369 369 370 376 377 371 354 350 345 340 334 313 303 314 328 288 287
193 210 229 345 277 273 238 278 374 302 393 393 392 391 389 369 333 327 325 329 353 391 384 359 376 375 376 375 377 390 342 398 356 344 339 332 318 364 317 309 304 286 275
289 313 262 292 393 387 386 387 386 388 389 392 356 324 321 323 325 333 336 395 398 407 355 320 309 310 308 337 366 360 374 325 322 367 302 323 281 319 307 296 264 260 252
405 397 264 317 388 385 384 384 386 384 378 324 326 331 323 320 399 410 411 335 411 413 398 414 415 428 390 378 356 331 353 360 358 273 256 239 306 290 280 268 257 253 248
272 379 317 319 379 376 374 368 365 367 339 384 384 383 375 365 363 368 370 370 350 317 355 346 355 367 435 374 312 298 338 368 447 336 281 311 302 281 271 260 255 256 242
382 372 330 377 377 372 366 367 371 372 369 362 355 362 362 354 355 356 350 344 343 343 344 345 338 302 376 360 329 291 305 424 422 359 323 244 264 276 261 261 249 254 249
380 374 373 369 365 315 286 289 353 351 356 352 350 353 351 351 351 347 340 338 324 330 331 332 334 337 355 476 315 280 281 274 268 251 247 285 274 257 250 252 246 248 237
372 371 322 306 292 291 360 361 362 349 342 342 343 344 344 347 456 452 367 445 352 351 357 321 330 332 375 441 362 276 271 265 255 304 299 286 281 265 247 247 256 254 247
371 319 304 309 357 350 349 354 359 401 532 507 465 457 446 434 428 394 429 431 429 395 364 355 331 349 347 417 335 272 263 256 260 292 291 282 267 259 250 245 248 248 253
312 335 354 346 348 357 501 521 508 499 479 458 439 422 416 407 407 411 416 421 414 365 397 331 330 336 413 410 376 269 278 314 296 284 283 282 251 270 253 256 280 261 242
358 342 344 350 489 508 492 484 469 450 434 422 406 396 389 389 389 393 401 408 414 424 372 322 329 391 410 377 341 303 290 270 286 279 270 276 263 246 260 260 233 232 235
340 345 349 455 466 472 435 419 408 399 391 380 374 373 371 369 359 363 379 398 414 423 368 310 316 410 388 343 305 302 288 285 277 275 273 262 255 258 250 238 250 229 235
345 372 434 398 378 369 359 355 355 350 343 342 346 350 352 352 347 347 361 384 412 423 328 302 303 391 340 315 292 286 282 266 272 260 256 252 267 242 244 239 237 238 233
420 414 395 374 362 361 370 360 354 346 337 342 345 344 340 336 342 343 349 378 408 374 316 295 288 346 312 294 288 282 272 261 261 244 261 253 241 241 238 237 231 231 237
405 392 381 364 344 362 361 346 342 339 336 333 329 330 325 323 331 345 342 371 405 341 306 290 281 312 273 284 279 261 257 264 248 262 237 237 241 239 229 233 227 236 247
394 379 366 353 341 368 346 324 356 477 464 425 391 378 378 396 322 348 341 367 413 331 299 286 306 279 268 276 261 261 265 254 266 249 240 234 233 228 228 234 236 237 245
351 359 375 370 374 362 316 371 398 392 418 388 376 363 364 376 371 351 344 366 400 319 290 284 286 285 275 265 260 257 254 262 241 248 239 231 228 227 232 239 237 243 239

GFSGL_2pvu_pres_006.txt.gz
Presure
167 167 166 165 146 157 168 165 154 175 177 187 180 178 183 194 203 202 183 205 189 169 217 192 151 163 177 196 155 156 227 199 189 208 193 196 188 192 202 179 188 174 174
161 163 180 177 170 163 175 176 133 181 139 172 192 156 200 189 161 213 205 163 208 158 143 142 151 205 163 161 207 225 162 224 226 178 174 162 169 188 189 176 165 187 200
183 180 163 160 168 159 161 180 194 182 181 193 122 148 188 155 183 152 155 241 227 184 156 160 166 154 236 171 187 217 170 189 207 172 209 176 196 199 169 174 193 195 178
166 162 178 178 181 167 192 185 183 179 147 149 152 136 180 167 196 180 157 161 169 182 228 199 193 251 343 179 218 284 169 212 316 295 231 230 169 204 188 169 189 288 250
171 181 183 134 193 191 139 139 121 161 139 144 148 185 147 214 216 179 370 190 158 258 275 309 313 241 246 241 248 309 243 206 339 257 258 323 332 364 329 264 250 320 316
197 200 105 159 146 121 151 132 133 238 132 159 211 198 235 199 164 260 212 370 365 266 264 237 256 404 394 379 176 368 368 407 349 386 385 389 211 369 275 199 195 247 198
173 150 102 130 131 173 157 137 137 141 147 238 134 245 406 444 292 381 241 377 341 430 420 350 411 395 383 378 369 324 353 337 365 349 328 201 339 366 359 372 356 369 336
132 123 118 180 135 182 152 151 189 229 226 310 274 325 242 240 313 360 398 404 409 410 411 409 414 414 403 348 393 359 332 375 359 375 331 347 385 373 379 291 393 277 364
125 134 158 133 91 132 205 155 211 225 320 416 380 379 319 302 323 398 401 406 408 408 406 388 349 344 324 331 280 334 385 386 379 371 369 368 362 356 357 364 377 369 357
134 138 132 176 155 300 222 141 254 413 404 406 400 396 394 393 393 392 388 389 380 330 326 327 325 326 341 334 341 407 403 391 383 375 374 374 370 372 305 358 354 344 337
126 140 230 244 298 395 411 403 395 388 388 387 388 389 378 380 379 383 391 394 394 398 397 395 393 400 411 420 388 400 380 321 306 303 345 370 363 376 365 349 338 322 312
227 241 270 294 426 414 399 392 387 380 383 381 387 386 377 334 296 292 304 372 370 375 371 375 379 354 372 375 304 400 424 427 406 401 303 333 363 289 313 332 312 299 318
208 279 299 412 415 404 394 382 376 379 384 389 380 380 319 294 314 368 372 371 368 367 365 362 361 363 356 360 359 348 365 376 441 373 323 344 367 362 265 283 355 249 287
286 310 404 415 408 394 378 378 385 384 377 379 367 362 363 364 376 394 368 363 357 355 354 355 351 340 339 343 348 349 315 383 381 308 291 344 349 318 332 305 249 285 281
328 421 412 402 390 382 381 381 370 368 355 354 360 445 536 534 524 515 504 493 478 425 347 348 346 345 326 327 331 336 331 294 329 294 318 343 308 329 303 289 275 275 261
423 408 396 384 380 375 376 378 346 342 350 469 510 507 504 494 484 476 468 454 441 443 440 427 387 352 352 320 324 330 351 418 319 289 415 341 316 298 286 282 241 272 257
403 388 384 379 374 382 193 218 355 347 468 478 457 454 450 446 444 441 431 418 417 424 421 420 343 346 344 347 321 361 432 320 283 278 265 267 254 288 273 259 269 256 250
385 381 375 380 366 264 195 353 449 423 384 361 380 403 415 413 410 405 398 396 400 406 413 417 396 332 361 318 351 360 410 295 274 266 262 293 249 287 259 261 270 246 253
381 374 376 359 183 195 357 429 415 382 366 362 349 358 364 374 380 380 374 378 380 391 407 419 493 368 332 337 401 395 344 279 267 264 285 249 280 270 262 253 250 249 246
373 372 275 183 192 297 425 409 392 371 354 368 358 351 354 352 354 352 358 356 365 390 408 419 362 328 327 339 393 336 313 312 262 310 265 284 271 269 249 252 244 252 257
355 361 343 348 349 428 416 392 384 368 346 367 353 357 360 359 357 340 349 347 358 390 415 370 323 316 407 379 335 314 305 277 288 283 278 285 274 264 259 243 248 250 263
358 348 340 346 418 412 405 356 348 372 362 370 333 329 341 343 330 331 337 346 357 397 420 328 306 360 372 323 309 297 298 282 282 277 273 274 266 263 260 257 244 240 248
355 332 346 341 405 395 391 390 388 384 385 361 319 386 457 362 345 325 328 345 362 411 352 302 302 366 327 301 293 290 292 266 271 276 264 269 263 256 259 240 246 246 242
340 346 342 410 395 379 355 384 379 380 298 325 402 415 452 416 384 400 321 346 378 415 307 290 358 328 299 285 287 293 283 253 269 261 265 258 243 243 245 246 243 241 244
329 346 329 405 384 362 345 347 322 310 352 396 376 378 406 373 370 395 322 350 400 321 290 296 329 303 282 284 274 281 284 253 253 257 246 240 236 240 237 241 237 246 247
349 335 379 398 377 359 361 335 376 375 372 374 360 369 366 348 366 395 338 365 359 295 281 325 302 280 274 277 279 265 248 256 262 250 241 231 239 237 236 241 245 250 255

GFSGL_2pvu_pres_009.txt.gz
Presure
171 145 155 147 150 172 163 180 173 170 167 163 165 184 193 198 207 197 117 144 173 215 154 155 182 161 143 156 157 155 177 210 170 198 169 160 158 235 181 173 257 229 242
175 149 181 179 178 170 176 170 168 168 189 192 195 196 202 120 149 177 206 187 140 180 133 149 157 280 150 275 208 200 166 168 232 274 279 161 277 244 177 264 172 306 263
159 175 181 172 173 175 175 193 193 183 193 148 183 187 140 156 134 152 138 225 146 150 158 146 179 236 218 253 172 216 243 295 361 252 342 334 295 204 368 324 318 221 361
188 176 170 172 180 190 154 194 189 154 170 206 141 218 134 222 153 154 159 186 159 189 151 206 323 392 423 414 341 322 372 325 363 362 356 363 345 335 361 383 373 363 363
175 182 189 153 195 190 167 230 215 217 140 127 142 139 139 140 171 131 212 181 161 358 411 399 402 397 332 318 374 373 406 409 364 341 382 419 389 406 386 368 381 344 370
187 178 167 189 159 198 213 211 137 224 164 145 132 135 141 150 208 286 412 416 405 408 408 405 336 357 397 400 398 398 402 404 403 406 408 407 405 398 354 374 360 364 352
193 182 166 130 199 146 218 132 205 146 134 128 186 149 289 343 204 407 402 402 403 398 399 401 398 394 389 391 392 396 401 402 407 407 409 385 399 393 382 337 314 333 338
209 214 142 188 198 131 124 144 142 190 224 152 210 247 413 413 402 399 398 398 402 402 405 399 392 390 388 354 404 373 369 324 321 322 330 327 317 315 310 353 388 382 381
214 126 216 207 172 203 145 133 206 262 161 221 331 429 417 405 398 395 400 401 397 393 389 388 381 345 293 290 372 389 392 397 400 392 397 398 370 389 378 377 376 369 367
173 192 184 214 188 199 192 158 148 235 314 435 426 413 396 390 390 386 382 384 385 377 370 365 359 362 371 378 376 371 375 381 366 392 393 349 393 388 383 350 377 385 377
187 201 195 200 223 228 208 243 312 362 433 418 404 398 391 385 375 368 364 368 403 520 553 558 550 386 361 364 369 370 369 383 352 371 386 346 384 381 337 306 299 372 372
193 208 201 198 218 277 296 315 353 426 414 408 399 391 369 359 256 263 479 538 531 525 528 520 510 502 496 362 359 359 356 360 357 362 355 364 405 417 416 361 298 379 353
226 196 223 140 235 284 317 337 422 413 407 398 376 367 366 183 283 419 410 477 476 477 475 473 472 471 471 435 353 349 347 339 346 353 339 329 434 372 337 340 367 344 276
243 170 245 280 282 307 347 416 415 401 389 370 366 196 177 247 409 387 422 437 434 439 441 439 438 440 443 451 357 341 337 325 336 344 315 419 355 303 336 355 331 317 305
246 265 279 283 289 360 407 408 400 387 370 365 289 180 274 405 393 370 374 406 410 411 409 410 413 421 425 440 457 342 335 323 330 331 301 354 298 290 338 318 311 320 313
197 275 285 294 403 412 406 406 381 365 351 360 445 431 403 384 386 374 353 366 383 388 392 402 409 416 421 437 538 349 332 322 327 436 333 296 311 330 314 306 296 302 289
285 285 291 407 408 408 402 317 373 347 353 435 424 406 384 360 373 370 352 348 362 370 384 392 404 415 422 538 341 347 314 327 424 321 299 304 351 299 306 298 292 283 272
283 292 362 410 406 396 319 380 354 358 368 421 406 361 378 352 376 358 354 348 346 362 374 390 408 414 554 328 342 312 355 370 317 289 277 277 263 279 289 258 275 269 263
298 298 416 406 398 392 376 363 334 355 424 405 400 393 385 369 377 349 348 347 344 353 366 401 415 452 333 332 316 361 373 325 288 275 274 262 291 289 256 275 275 261 259
350 426 411 394 393 380 357 345 360 378 414 373 367 392 392 387 328 350 341 338 338 353 373 413 403 337 322 313 368 345 338 332 276 266 266 296 254 273 271 262 259 250 253
422 416 397 390 382 360 354 329 351 434 400 363 372 389 383 297 315 466 412 332 336 357 395 410 329 317 311 346 326 328 330 270 289 253 274 273 266 268 259 248 244 250 248
415 405 385 363 370 342 340 360 363 423 390 370 358 338 369 381 416 469 403 330 346 372 425 321 311 324 344 315 314 305 300 303 298 276 267 261 263 267 252 253 247 259 253
401 387 383 371 352 341 352 348 426 400 376 405 391 391 407 385 427 393 396 332 358 414 320 305 345 337 312 303 305 302 285 268 274 275 274 272 270 271 268 263 272 270 264
318 389 376 357 336 347 360 332 414 388 410 386 366 379 378 377 388 378 396 349 384 357 302 295 327 305 301 296 279 288 271 277 279 270 255 254 252 262 259 250 249 252 250
391 378 360 340 335 354 344 427 404 385 389 362 356 366 364 125 366 377 343 359 378 302 293 322 304 302 283 284 289 282 268 267 268 267 262 262 258 249 244 252 257 261 262
379 361 338 332 351 357 413 422 386 399 362 407 377 360 360 358 268 370 347 401 306 290 320 306 294 292 282 284 278 256 264 262 252 242 247 245 239 244 256 258 261 270 279

GFSGL_2pvu_pres_012.txt.gz
Presure
140 171 144 174 170 177 155 148 176 177 176 174 184 170 185 191 156 186 133 129 127 135 217 210 158 137 152 248 265 221 165 161 357 435 159 237 237 362 425 392 331 335 358
182 124 164 159 161 153 174 165 164 189 191 185 178 162 186 136 100 218 146 126 131 135 131 134 144 249 281 151 168 308 409 410 423 430 429 400 421 207 426 388 403 429 326
196 192 186 184 155 176 192 176 191 191 176 127 196 162 150 152 204 135 151 154 188 143 169 147 167 250 418 272 407 408 408 222 406 411 423 417 413 324 352 413 347 320 352
178 185 175 178 163 187 192 184 185 160 180 170 195 197 160 129 165 170 226 215 257 262 206 205 420 410 403 399 395 392 392 393 395 400 403 403 402 403 407 406 406 402 392
202 198 181 189 192 194 185 171 189 151 187 200 187 146 214 237 201 232 164 173 358 453 391 429 419 404 394 392 390 386 392 398 395 397 395 400 403 394 396 400 409 399 398
198 201 200 184 186 124 130 154 218 187 113 122 135 205 196 205 262 220 244 451 436 427 421 410 399 394 390 387 385 387 395 398 394 392 402 400 289 400 390 328 316 404 401
174 180 186 169 203 146 165 183 187 211 214 215 212 226 244 227 248 184 440 433 426 415 404 393 385 377 376 326 325 376 379 379 381 374 315 297 311 395 396 384 328 320 306
192 200 161 188 128 136 146 200 216 190 217 223 221 207 236 282 360 436 428 415 396 378 371 369 328 193 381 477 477 479 475 375 361 361 370 387 386 382 383 399 407 318 319
158 193 194 190 138 173 214 223 226 224 228 132 242 217 312 421 433 425 408 388 380 377 459 190 193 205 507 522 524 526 530 533 529 361 361 378 383 368 376 379 416 416 401
215 134 132 184 212 128 216 200 203 185 232 218 295 315 418 428 420 400 387 383 424 280 181 184 217 462 482 494 501 503 507 509 508 392 363 371 371 371 353 387 422 397 397
135 155 205 204 207 212 225 215 120 211 271 295 329 348 427 418 398 383 379 454 426 308 262 380 400 438 451 459 465 473 480 482 480 366 357 357 356 370 374 389 418 389 387
183 187 190 120 221 180 235 249 245 242 283 298 409 430 419 399 380 375 373 424 398 383 375 372 381 414 424 429 435 441 446 452 427 355 351 346 351 359 356 375 418 430 388
193 199 184 121 197 207 202 253 265 292 317 439 432 422 405 379 373 370 435 407 382 368 374 364 370 394 409 414 419 428 435 448 349 341 340 334 346 351 345 434 376 355 342
206 186 156 199 196 210 212 261 289 316 442 428 419 409 385 372 374 427 424 403 353 373 364 358 365 381 400 412 420 423 442 370 337 337 318 331 337 317 361 331 328 358 350
146 206 212 234 231 245 260 281 285 444 426 414 410 394 375 373 412 413 418 412 386 366 363 363 361 373 394 411 416 436 535 342 332 315 325 331 390 343 315 304 343 333 321
213 200 234 232 195 261 279 311 445 432 403 399 312 369 370 372 425 394 384 415 397 348 358 361 357 376 407 419 436 538 344 335 315 324 326 346 331 305 293 323 337 336 306
216 220 233 246 259 279 308 438 425 349 323 388 365 351 365 438 407 386 414 415 337 344 354 352 361 399 423 462 392 333 340 308 321 418 325 311 296 328 318 320 315 302 298
218 227 247 261 282 328 410 432 392 376 399 378 347 359 355 420 395 380 362 307 337 410 344 355 380 427 436 324 330 327 311 399 326 311 318 310 320 308 299 289 298 292 284
231 251 266 279 372 419 430 354 384 402 383 362 344 357 404 402 386 416 379 386 467 382 342 371 425 420 317 329 316 372 363 317 298 288 283 305 278 293 288 287 289 274 263
260 272 282 363 421 427 356 346 403 387 366 346 359 347 409 407 396 430 395 449 440 346 360 420 413 326 320 313 341 344 317 292 282 274 282 286 288 275 283 270 268 272 262
275 307 360 442 426 384 349 403 394 375 352 336 355 418 401 401 376 395 433 409 411 346 413 372 321 315 347 339 340 333 319 276 298 270 280 276 276 271 268 271 261 262 265
321 297 440 368 409 405 403 391 376 358 340 353 350 408 410 375 381 386 399 397 308 405 362 315 307 345 339 331 327 291 317 286 275 270 273 267 263 265 262 266 259 260 262
329 437 356 349 403 399 389 377 362 343 343 360 424 411 390 361 376 401 384 354 128 361 312 305 345 321 309 305 296 291 283 272 274 281 264 269 267 264 265 274 266 270 271
334 353 411 402 399 387 377 361 344 342 428 440 415 403 371 376 377 375 395 373 356 309 301 326 314 295 289 291 289 293 276 273 274 272 274 278 280 283 269 260 247 250 252
347 410 404 397 385 374 357 343 344 425 449 421 402 422 427 382 369 380 354 399 308 304 322 312 298 292 294 277 269 273 255 276 268 267 267 271 258 249 249 252 259 269 276
407 401 390 379 366 349 343 350 476 450 422 396 422 503 435 374 370 340 410 308 296 323 312 290 288 284 276 278 275 277 275 260 261 251 252 256 261 269 277 267 328 347 431

GFSGL_2pvu_pres_015.txt.gz
Presure
187 165 190 172 160 148 190 153 152 187 202 206 202 186 176 193 150 158 171 194 198 135 157 169 199 148 246 236 254 278 273 219 412 414 436 430 421 414 412 412 412 415 415
187 191 145 137 197 197 161 178 165 190 176 171 203 137 185 139 157 202 127 218 210 205 186 210 250 237 251 312 382 441 437 433 433 442 435 419 411 405 403 396 390 396 400
183 183 186 191 166 209 181 199 163 147 198 209 169 159 140 146 205 216 199 213 191 211 240 232 211 303 381 445 438 435 429 420 416 417 421 417 416 409 405 402 396 394 388
170 161 221 197 202 203 179 104 166 205 182 173 138 213 146 198 152 197 213 197 184 232 264 279 291 452 445 436 422 374 395 391 384 381 371 295 297 388 402 401 398 398 402
196 185 207 178 200 97 195 207 208 135 139 209 206 156 189 210 192 207 225 208 227 268 237 436 451 435 417 398 395 393 475 472 275 192 202 482 388 378 373 378 392 398 394
211 216 217 212 221 214 205 148 136 211 180 144 201 197 208 195 213 212 215 215 232 260 453 444 425 407 393 396 464 446 426 182 187 201 430 441 447 466 538 377 375 392 307
221 190 222 216 208 206 134 135 140 154 155 143 208 196 182 215 214 212 217 238 413 450 440 420 398 387 453 431 426 408 391 409 454 487 518 528 533 531 538 551 372 374 320
214 217 208 216 131 160 186 208 145 132 197 204 141 218 217 221 226 234 247 347 447 435 414 393 386 453 420 405 405 391 380 418 451 464 481 489 499 506 515 528 370 367 378
220 138 203 188 236 136 144 190 129 160 206 191 215 204 208 214 225 265 351 448 433 415 341 382 443 426 402 385 393 383 379 416 424 440 455 470 479 484 496 464 364 377 365
198 140 260 158 148 132 211 215 194 155 213 211 206 186 236 217 271 415 444 428 358 328 383 436 422 412 392 385 386 378 391 416 416 419 431 448 466 480 376 365 367 363 370
239 175 182 216 145 145 205 154 176 204 202 211 213 214 219 287 445 438 424 389 396 381 381 421 388 407 392 374 375 373 400 418 421 427 439 452 394 361 359 354 355 364 363
162 162 142 176 194 203 159 192 203 201 202 217 232 227 293 446 432 432 418 398 381 386 429 400 415 401 387 370 367 374 411 421 423 443 454 359 352 349 343 346 353 347 382
194 194 208 201 131 215 192 203 192 204 235 267 274 299 451 434 435 425 406 380 380 436 405 405 408 403 357 366 365 401 425 426 536 396 344 339 332 330 342 347 340 437 437
136 199 208 192 183 197 204 193 199 245 264 279 301 335 420 424 429 410 388 379 404 424 391 374 407 313 359 365 388 429 435 549 529 333 335 319 326 337 327 396 365 356 343
205 188 183 193 209 206 197 218 230 265 280 313 328 437 436 433 415 393 369 377 431 414 409 372 336 354 349 375 424 436 487 369 334 330 315 326 328 334 343 318 290 344 342
187 181 200 212 214 199 218 251 264 281 328 400 431 417 424 413 397 375 378 436 419 441 416 405 460 393 367 429 509 336 335 338 320 319 337 353 336 309 293 304 329 317 315
203 197 197 193 220 234 258 270 284 370 437 428 422 385 405 393 377 364 366 420 392 413 423 482 432 362 434 391 325 334 328 307 402 338 323 310 292 288 314 323 320 300 305
211 202 214 168 244 263 280 319 411 450 436 358 411 400 394 380 354 366 431 391 393 408 438 425 370 425 368 313 330 319 385 325 394 311 292 311 309 306 306 292 291 283 283
219 219 237 256 271 324 410 407 447 423 354 418 404 392 375 354 363 442 403 379 398 409 420 379 335 346 319 331 348 352 356 300 301 290 301 292 293 288 292 284 287 284 284
240 250 263 283 415 403 431 443 423 356 415 402 390 375 356 361 453 422 378 387 402 413 377 385 306 319 339 340 329 329 294 294 308 289 283 288 288 286 288 267 274 260 261
262 277 330 311 405 450 441 360 420 408 399 389 368 352 367 468 436 392 375 402 403 377 365 319 319 346 334 315 315 318 300 298 296 287 266 286 283 284 263 267 284 268 270
337 354 422 459 448 431 354 366 404 394 384 362 349 451 467 435 420 375 389 396 370 364 311 344 346 322 308 305 314 292 287 288 288 278 278 278 277 280 278 273 275 273 270
337 457 453 443 383 347 398 397 389 377 357 355 497 465 433 397 393 390 388 363 360 309 302 320 316 306 294 298 287 280 288 272 274 284 271 276 274 273 272 267 270 275 269
464 416 434 347 404 403 393 382 368 351 470 489 462 428 384 519 433 384 359 356 311 314 318 307 304 299 302 291 279 278 279 285 276 279 267 268 266 261 258 257 258 260 261
438 352 369 413 401 389 377 360 352 485 482 455 421 392 498 427 380 361 386 313 311 314 304 292 305 288 292 291 286 282 282 266 260 257 263 265 266 270 270 270 276 279 284
398 420 410 400 384 369 352 406 472 476 446 414 399 426 466 379 374 391 315 299 305 301 291 288 280 271 283 275 266 261 258 257 271 287 300 351 403 423 422 424 430 450 444

GFSGL_2pvu_pres_018.txt.gz
Presure
180 177 190 188 188 180 186 184 176 194 193 213 139 134 182 184 208 208 184 144 141 217 151 185 170 214 211 212 219 226 235 233 241 384 462 451 265 418 416 407 402 406 418
173 190 176 180 172 180 174 182 194 207 180 103 220 210 220 206 133 168 212 127 196 140 211 215 194 214 215 226 228 238 239 317 452 441 424 407 403 399 399 401 394 384 375
165 150 174 162 170 191 184 194 182 226 222 235 220 221 209 131 161 204 149 212 197 217 130 211 217 232 229 234 238 238 303 439 415 398 422 455 444 436 435 437 465 183 308
155 159 162 162 195 198 194 225 226 230 224 213 210 154 135 186 138 138 187 163 210 218 233 217 220 237 236 258 242 423 429 407 420 453 433 419 409 400 398 290 213 185 223
156 193 197 200 202 166 229 230 216 178 221 220 146 191 144 114 193 217 194 220 190 199 211 228 229 244 244 411 437 420 404 453 445 424 410 395 398 395 436 480 514 537 558
193 200 200 229 231 229 221 231 147 217 134 250 228 144 128 214 209 145 204 218 213 212 206 237 300 425 452 436 413 397 449 431 418 406 395 392 389 419 439 464 491 505 528
187 181 227 227 225 212 224 140 142 241 176 215 173 142 193 201 185 214 195 198 213 211 240 279 448 439 427 412 395 446 419 419 405 387 386 385 408 427 435 452 468 485 505
208 218 234 222 220 202 172 229 214 219 171 144 166 201 213 211 209 215 220 221 229 258 382 452 417 426 404 392 441 436 429 409 382 372 380 398 426 427 432 449 462 474 477
236 229 209 212 129 186 215 190 193 214 204 209 202 192 215 204 202 218 225 230 261 449 449 434 422 400 384 444 433 415 428 387 364 371 387 417 432 428 446 458 464 477 574
210 137 125 213 236 181 184 206 142 201 208 209 203 207 203 200 216 230 232 294 461 413 441 422 397 375 391 429 411 432 417 364 370 378 409 425 433 449 378 364 361 356 351
126 160 230 209 205 132 136 160 212 210 205 212 206 202 207 219 236 237 362 452 444 380 422 400 377 397 432 420 388 401 363 370 387 422 430 471 392 348 348 347 347 347 348
216 233 203 129 144 173 202 197 202 209 204 199 203 216 227 233 283 462 446 438 371 415 399 372 376 437 471 423 405 365 365 392 432 508 535 342 335 336 334 334 337 341 351
208 203 129 189 190 200 200 194 198 199 201 214 222 231 271 335 374 448 438 364 423 402 375 364 432 410 115 415 472 436 398 471 504 424 336 330 324 318 329 339 346 342 338
225 130 187 146 192 204 204 195 199 205 214 230 237 287 421 468 453 400 380 426 403 376 361 431 402 411 479 454 428 411 522 362 362 333 328 314 318 330 322 341 354 353 355
192 160 135 195 208 208 198 210 214 223 232 283 434 463 467 453 371 420 429 407 375 361 439 402 412 427 419 397 421 391 333 342 335 316 315 326 336 338 323 311 308 346 349
182 148 206 210 198 208 213 214 242 273 303 462 395 457 446 366 429 422 408 373 356 453 407 406 410 433 378 425 365 325 336 322 312 356 340 326 310 300 293 324 322 324 324
202 208 205 204 209 214 227 263 278 448 377 463 453 375 353 424 416 401 371 355 464 419 395 406 397 404 373 339 319 331 384 405 322 311 305 293 288 312 316 322 303 300 309
204 203 204 213 223 257 269 360 417 367 467 436 356 371 421 411 391 362 396 479 425 388 407 403 414 347 322 330 358 368 321 305 317 323 321 313 313 309 297 298 292 289 296
197 211 217 242 262 279 320 482 411 368 382 436 428 418 403 374 360 505 474 441 387 401 395 411 358 313 350 347 349 318 296 314 302 303 300 302 291 293 289 287 285 283 278
217 235 198 271 306 293 476 470 399 353 435 428 413 392 359 491 491 461 433 390 391 389 414 332 312 342 337 329 313 299 305 300 295 289 288 290 277 282 273 284 274 270 267
239 262 306 291 390 478 472 368 371 435 425 406 372 363 502 483 454 424 388 383 401 370 322 343 333 318 329 305 293 289 296 292 285 281 277 284 276 276 273 269 273 271 268
276 290 327 371 376 468 456 444 434 422 397 360 445 488 478 438 405 434 394 398 373 315 346 319 313 321 307 292 290 291 285 285 289 277 275 278 279 279 276 270 263 277 274
289 331 373 361 404 452 438 429 412 380 361 513 484 476 428 406 457 397 381 367 322 342 320 301 308 317 290 288 290 289 287 285 284 285 277 277 282 282 282 279 265 263 267
311 379 357 447 450 436 425 401 365 522 489 472 469 421 415 426 386 380 357 341 307 316 306 305 297 307 284 274 277 278 271 270 266 263 263 268 268 267 267 265 263 262 262
374 355 390 451 435 420 387 362 497 464 457 462 415 405 433 393 387 364 318 326 318 320 311 297 292 285 276 264 266 268 282 293 308 310 312 313 312 315 315 314 293 290 286
353 462 451 430 412 377 408 465 450 440 451 415 403 442 493 387 382 318 301 316 311 294 283 275 271 260 265 268 281 269 284 363 374 386 384 383 386 388 395 393 394 400 424

GFSGL_2pvu_pres_021.txt.gz
Presure
173 166 168 176 178 177 170 174 169 136 163 191 192 168 204 235 232 222 178 222 214 220 222 166 146 145 195 165 211 214 219 223 237 249 252 212 324 458 448 430 418 409 445
177 174 188 171 183 187 128 142 193 194 181 144 208 222 235 237 217 220 216 219 227 242 137 130 145 222 198 214 216 223 230 240 254 249 269 465 443 425 411 408 462 447 438
182 175 189 183 190 192 197 196 196 193 197 210 235 238 221 220 223 213 212 231 210 213 220 201 153 210 227 217 206 234 251 250 288 464 453 426 411 396 445 443 436 424 411
188 175 189 187 174 159 165 185 192 203 214 236 237 212 222 212 222 202 206 219 214 209 161 217 208 214 221 238 246 249 265 477 457 435 416 401 453 433 430 431 419 394 387
171 192 197 177 196 189 192 195 205 213 236 234 217 158 216 231 212 168 158 197 203 189 207 215 218 228 240 247 255 457 468 450 429 405 391 451 429 433 425 401 387 381 398
200 199 180 149 195 198 202 210 215 237 227 222 201 218 240 147 194 210 155 206 204 207 199 218 230 242 253 267 453 459 438 421 397 386 445 419 436 419 341 379 386 423 429
152 185 194 195 198 203 215 219 194 194 176 211 231 169 138 141 175 204 203 201 217 210 224 237 249 301 453 449 407 437 417 389 388 437 419 424 415 346 383 413 426 429 446
193 194 199 196 187 187 239 232 155 229 212 237 208 210 204 194 202 205 205 217 223 229 242 260 466 450 444 424 432 416 389 393 457 445 407 390 368 394 428 443 444 550 548
190 195 223 205 223 234 141 216 237 230 157 187 215 202 195 192 207 218 221 227 238 248 436 461 449 392 437 424 409 390 441 419 421 409 392 373 423 446 510 399 366 366 365
196 216 181 231 150 185 244 215 218 128 229 214 196 193 198 215 215 224 230 244 352 446 460 446 367 425 417 397 379 441 420 433 468 443 420 439 529 538 352 348 350 352 356
240 134 218 206 122 223 226 214 219 212 161 192 193 205 214 219 227 235 249 416 464 433 365 385 421 409 390 370 427 415 482 475 435 431 502 425 400 335 337 336 339 342 342
143 234 217 232 221 214 210 212 186 163 190 202 215 213 195 231 241 446 465 457 439 419 435 421 404 382 363 423 420 437 430 420 429 401 396 340 331 330 319 328 337 342 349
234 232 216 214 216 208 201 207 194 191 212 204 216 225 235 290 475 455 408 448 438 427 416 396 373 354 424 419 428 448 421 397 351 340 331 326 314 323 332 380 377 374 380
215 211 210 208 186 190 205 196 213 202 209 222 229 252 490 473 465 456 448 439 425 411 387 362 372 426 416 441 413 407 358 336 334 327 314 318 397 340 331 318 318 321 322
216 208 203 143 172 202 199 205 208 216 224 237 301 404 478 470 455 444 435 421 401 378 359 475 425 413 435 417 376 324 333 327 314 357 342 327 322 308 332 292 333 335 336
205 201 200 180 205 207 201 171 217 183 278 301 285 403 465 454 442 428 409 384 361 496 467 422 412 442 411 346 321 362 329 390 337 317 313 301 294 288 314 322 317 318 322
199 202 200 210 201 209 216 226 238 291 292 278 470 460 454 441 423 397 371 496 475 457 409 412 394 378 332 342 364 385 371 306 302 298 292 317 316 315 304 304 301 300 297
199 202 202 204 212 212 233 273 297 283 334 476 461 447 434 412 381 382 491 475 442 398 414 400 371 334 346 358 347 305 302 309 308 305 312 312 301 293 292 289 291 298 312
194 201 209 205 225 250 291 280 309 335 478 463 447 425 396 370 504 485 463 439 392 408 412 382 342 344 344 351 303 297 309 297 294 296 303 294 288 284 285 281 278 279 292
204 204 222 238 269 289 300 329 317 478 461 440 418 387 456 492 484 444 421 394 406 386 344 340 341 335 323 311 301 298 293 286 294 285 284 284 286 282 277 282 275 275 267
215 226 253 281 312 314 328 321 479 460 437 408 376 482 474 480 435 440 515 404 417 348 320 330 333 322 307 297 295 290 292 294 287 283 273 276 276 276 274 276 275 274 272
249 268 289 304 315 340 329 481 458 435 403 375 470 457 471 421 445 406 393 411 332 323 328 327 315 301 299 292 291 295 294 290 290 287 286 286 276 279 281 274 267 264 266
288 302 303 316 351 326 478 382 434 401 374 458 454 465 412 437 400 388 412 341 321 316 319 326 304 290 284 279 274 274 275 275 273 268 269 269 266 270 275 281 278 276 273
294 311 314 333 314 478 460 432 397 371 463 462 456 414 426 445 368 403 341 316 313 314 314 303 284 277 268 283 277 265 266 370 386 391 305 297 292 288 282 277 274 272 269
309 339 333 369 477 459 430 395 372 463 472 445 423 414 451 392 341 342 315 316 310 301 284 277 271 269 276 257 264 279 278 255 241 352 354 366 386 387 394 401 412 319 292
344 323 388 477 458 430 394 362 457 478 420 438 406 446 409 377 329 327 322 296 288 279 273 269 284 274 270 267 251 247 247 304 349 328 318 352 349 356 389 384 378 402 433

GFSGL_2pvu_pres_024.txt.gz
Presure
171 176 175 188 183 203 171 179 176 181 191 201 192 188 196 187 191 196 221 226 239 217 223 215 216 226 230 173 206 179 211 209 225 223 200 223 152 67 230 452 471 458 444
177 179 170 182 171 171 174 197 204 187 197 211 163 144 194 202 208 213 239 241 187 225 165 218 146 175 206 225 209 207 218 223 225 235 251 271 475 484 471 458 439 423 414
192 196 178 170 193 187 171 192 186 204 194 189 162 199 201 208 225 241 228 214 188 219 221 135 180 168 200 207 213 219 227 235 254 273 488 476 419 451 441 423 409 397 448
178 178 191 186 178 169 191 201 198 140 169 198 201 207 212 241 172 169 231 229 216 196 221 208 225 217 209 218 227 236 257 276 487 450 407 455 433 416 408 438 496 442 425
172 171 173 186 188 192 174 205 154 204 196 208 211 233 224 149 233 239 236 227 138 206 220 219 204 215 218 235 253 267 465 401 388 388 443 419 401 454 495 449 453 424 377
170 175 191 195 191 176 134 235 196 197 204 247 219 127 147 238 227 188 149 204 176 216 202 214 215 230 251 265 480 458 460 447 436 423 405 387 442 427 436 435 409 374 392
187 189 185 172 161 247 224 199 227 217 239 213 179 237 231 240 222 135 217 214 206 209 213 227 247 260 477 476 468 455 445 421 399 388 404 424 440 464 464 439 458 545 558
190 134 196 233 232 205 220 205 246 187 155 241 190 231 219 215 211 211 212 207 214 226 239 249 326 459 465 454 452 443 421 388 371 424 442 468 466 442 455 553 465 433 355
149 133 244 202 218 199 221 239 128 226 229 235 217 216 119 212 199 211 212 218 234 243 303 463 465 458 452 445 434 415 384 367 420 431 425 431 433 430 362 401 342 342 341
237 217 198 253 207 208 137 197 241 235 217 215 208 150 204 207 205 213 229 242 254 325 472 461 452 442 434 413 392 374 478 425 441 464 421 415 357 400 341 336 330 328 333
207 234 205 186 142 137 218 229 217 205 213 212 166 208 201 209 216 233 243 290 376 473 465 454 436 414 391 385 505 462 424 437 419 404 364 344 337 323 322 324 335 338 343
206 211 180 136 175 165 231 207 211 210 209 209 205 203 212 221 234 251 440 441 466 455 445 418 393 442 509 480 440 420 408 411 372 331 337 322 317 321 335 347 348 347 355
237 149 133 136 269 208 214 208 209 207 206 203 208 213 226 238 290 451 476 463 449 433 401 378 494 479 452 413 422 397 399 341 338 327 315 313 345 328 319 315 336 342 336
136 190 273 124 211 206 207 204 205 207 202 212 215 228 248 349 442 473 460 446 421 395 503 481 462 422 409 425 393 376 323 332 319 323 333 320 322 311 331 326 328 330 337
262 201 208 204 203 202 201 162 196 209 212 218 233 296 354 349 470 455 439 414 519 500 475 451 407 414 419 384 337 346 337 372 329 311 311 301 309 300 324 318 319 319 322
207 203 201 201 199 208 202 197 211 215 223 252 326 360 362 469 450 433 463 496 487 463 434 403 415 393 376 327 366 371 333 303 300 300 294 315 315 311 303 304 303 304 327
198 199 197 202 203 201 201 212 215 227 271 327 362 338 468 445 428 451 492 477 448 424 405 406 393 352 319 368 353 319 307 305 309 312 310 314 297 295 287 290 314 330 320
168 198 200 190 204 206 215 221 261 312 327 372 323 469 446 422 473 475 475 437 409 405 400 382 340 338 360 319 302 296 313 303 295 282 304 291 290 287 287 286 287 296 282
206 186 198 202 211 218 250 274 315 327 364 331 477 446 419 476 465 462 427 469 402 410 369 341 333 347 316 305 297 308 298 291 294 295 292 290 286 282 283 277 282 279 284
206 200 203 213 223 263 292 308 322 368 329 475 447 420 479 470 464 419 435 403 407 348 332 331 329 326 305 305 308 298 297 295 294 294 284 293 291 284 283 286 271 273 270
201 208 215 253 272 290 300 318 363 438 479 448 416 475 454 472 419 422 398 409 356 332 329 332 315 304 304 291 289 287 285 284 285 291 292 289 282 283 282 275 278 282 270
216 235 261 288 281 292 300 360 435 480 450 418 477 448 459 422 441 400 372 337 329 318 330 312 295 286 285 280 281 278 275 274 279 294 299 286 277 284 277 277 282 274 272
251 276 281 284 291 294 358 446 481 455 419 484 490 441 440 438 405 398 345 330 314 326 302 288 285 280 278 277 265 277 292 281 295 282 378 396 361 296 279 273 275 279 279
285 277 276 289 298 335 452 480 458 418 458 423 502 456 434 462 391 345 330 316 315 290 289 278 285 272 277 266 279 254 274 268 342 331 354 352 358 387 396 387 295 282 271
278 280 287 298 317 486 478 462 421 394 424 502 496 430 465 382 347 331 317 302 288 288 274 292 272 279 267 261 281 262 244 336 351 365 350 338 345 370 384 391 396 445 416
277 292 295 313 511 486 461 425 387 429 483 479 430 457 393 347 332 312 293 288 280 277 291 276 274 274 261 256 260 265 338 359 333 334 337 335 338 363 373 412 404 400 401

GFSGL_2pvu_pres_027.txt.gz
Presure
181 176 178 190 180 190 168 180 173 188 173 194 194 195 195 182 215 238 147 190 210 216 248 251 157 231 247 235 165 192 223 231 228 222 123 210 147 219 224 235 79 424 418
184 122 181 173 190 181 170 174 174 189 177 179 187 202 202 229 243 144 206 214 244 250 126 168 244 233 246 136 225 223 220 222 218 229 227 236 424 505 445 480 468 456 450
178 167 164 171 173 199 173 173 165 171 183 194 201 215 176 166 206 215 228 251 187 143 242 249 229 135 168 222 218 216 217 224 235 302 507 500 487 476 469 457 442 425 414
175 171 173 171 172 179 187 196 186 185 196 225 176 245 230 205 215 247 242 142 170 244 226 222 200 184 217 213 216 224 243 272 497 489 483 477 467 451 437 421 402 451 442
175 177 185 197 196 196 191 184 194 201 237 143 231 228 212 216 245 196 142 247 224 216 220 168 216 211 214 225 243 263 495 485 478 472 463 450 428 410 392 454 468 485 473
187 193 190 173 178 190 193 201 193 137 247 231 230 214 238 244 143 207 235 208 217 217 153 210 212 218 236 257 494 484 475 462 451 435 425 405 390 453 452 438 439 445 497
171 173 184 191 192 199 200 135 139 234 230 213 226 214 226 136 196 222 218 218 206 212 203 216 227 247 429 490 478 465 443 410 393 387 420 438 454 460 428 437 424 424 413
183 189 190 196 171 166 262 236 230 229 214 156 226 142 184 222 220 218 210 215 201 211 223 239 270 450 481 466 450 423 393 485 517 485 454 442 456 432 411 366 342 349 339
193 191 200 147 249 242 234 224 212 249 238 140 135 229 217 215 212 210 215 208 216 234 253 362 484 471 456 435 521 523 504 472 438 425 439 424 409 341 361 336 331 333 327
191 202 235 248 225 225 213 247 243 136 140 135 165 215 211 204 209 208 210 231 246 293 376 477 462 572 545 513 490 478 435 419 427 407 416 346 356 333 322 326 330 353 358
194 224 236 216 214 224 239 237 186 132 153 214 206 197 202 204 212 220 240 265 366 490 472 459 523 513 491 475 442 421 437 400 401 351 333 335 320 322 335 330 325 327 333
239 231 222 244 197 239 223 137 234 208 210 200 199 199 199 206 224 241 287 419 481 462 442 507 498 476 460 419 427 406 392 366 332 339 317 316 325 322 314 338 338 339 346
226 218 197 140 214 274 239 209 211 195 190 200 194 197 210 227 262 316 423 483 458 439 499 482 459 437 412 428 387 377 336 409 338 329 323 322 309 315 325 321 326 325 333
241 192 144 164 252 211 211 201 180 194 192 215 203 216 232 283 320 437 488 459 446 499 474 445 423 417 415 380 365 388 391 321 316 310 304 306 312 320 309 306 320 336 324
134 146 260 214 209 202 187 184 183 206 219 215 236 268 298 309 429 485 457 460 494 474 439 413 419 396 371 363 374 374 320 311 301 306 293 312 308 304 305 312 320 318 332
232 216 206 201 194 174 190 179 197 207 215 243 271 297 309 392 485 456 471 485 466 454 410 419 385 353 357 378 350 322 313 302 309 312 316 303 290 295 290 301 303 292 310
208 166 188 190 180 191 209 200 129 210 243 282 292 302 344 486 454 430 431 465 449 443 417 377 347 358 373 324 310 300 323 308 308 300 309 293 291 286 287 281 287 287 291
180 184 183 178 209 213 206 213 231 249 287 281 302 309 492 448 429 474 478 443 419 417 361 341 345 349 320 312 296 316 305 303 294 297 298 291 287 286 279 279 285 287 285
173 183 185 208 212 215 216 240 261 290 274 298 306 499 457 430 528 467 440 420 379 352 336 337 337 314 315 315 314 301 299 300 294 291 289 284 284 291 279 277 283 274 278
187 186 205 212 224 233 247 274 287 286 297 306 467 468 439 447 519 433 435 412 348 334 332 329 314 305 296 288 288 288 286 284 282 280 282 283 296 282 291 284 277 271 274
208 207 220 229 235 247 282 287 282 291 304 331 465 430 428 527 447 459 383 345 339 328 329 303 299 287 289 277 288 275 273 284 299 298 283 264 288 287 287 286 283 278 274
191 219 230 234 252 286 288 281 292 302 362 470 428 397 508 471 458 411 343 330 329 326 302 292 284 287 277 282 275 276 259 258 349 368 337 360 350 394 300 284 289 280 276
224 226 235 255 287 287 284 290 300 369 470 429 404 477 504 447 419 350 332 320 306 300 289 292 282 276 285 277 270 255 313 345 349 360 364 358 358 370 400 342 285 280 283
228 237 269 288 290 284 289 298 352 464 427 393 439 491 445 431 357 332 319 303 297 289 288 291 271 279 252 310 283 323 360 339 335 339 337 339 348 385 394 390 395 291 279
240 276 288 290 288 290 300 340 463 425 382 442 480 465 470 366 341 319 303 293 287 288 288 283 277 279 302 305 329 293 356 344 325 322 322 337 361 361 401 403 405 413 401
281 288 285 293 289 300 449 464 426 377 451 481 477 465 368 348 320 303 295 288 276 286 290 278 279 287 253 264 337 311 300 336 345 330 323 374 370 358 370 365 371 378 383

GFSGL_2pvu_pres_030.txt.gz
Presure
200 192 193 192 175 142 176 166 148 172 174 176 176 193 200 203 194 195 212 261 249 236 224 225 251 253 226 207 189 194 233 206 225 221 199 184 149 210 198 175 270 129 498
194 192 191 175 184 184 175 178 177 176 180 191 200 196 177 194 211 244 260 230 228 218 249 251 232 144 151 229 234 218 219 162 223 221 217 161 237 283 497 502 491 481 478
191 187 184 181 179 183 181 180 184 190 195 182 179 195 205 212 203 250 236 211 230 250 220 247 142 164 232 221 216 208 217 217 228 239 334 505 494 484 479 465 455 446 437
186 183 183 180 180 181 182 184 180 179 184 193 197 207 186 139 158 227 216 256 245 245 147 186 228 219 219 218 223 218 235 267 460 487 478 469 462 449 434 420 403 389 386
183 181 178 182 179 187 174 174 184 189 194 197 205 262 207 230 218 250 251 158 137 143 201 214 215 210 220 219 234 286 499 487 529 580 580 567 545 536 526 515 484 462 486
178 185 186 188 173 180 182 185 191 198 198 203 256 228 227 223 249 248 154 134 142 209 214 208 214 217 227 288 425 484 474 578 553 527 514 499 484 466 447 438 433 427 424
186 169 175 177 181 184 187 189 178 155 210 250 231 217 258 251 221 126 139 207 206 212 220 222 224 261 311 503 477 521 533 505 485 471 458 440 431 427 414 411 406 380 352
182 173 182 183 187 186 172 192 196 244 149 231 242 253 224 272 177 186 207 197 208 216 224 241 278 404 488 476 526 519 492 457 435 426 431 419 418 423 357 341 334 336 334
182 182 184 125 148 192 142 192 250 228 211 253 238 265 208 214 174 193 196 202 216 220 255 294 338 480 515 517 506 478 434 421 439 413 413 362 337 331 333 323 319 337 342
173 186 181 165 192 203 227 237 240 214 153 135 265 215 171 198 201 201 213 224 234 254 304 321 471 508 506 487 459 428 442 396 396 403 337 335 325 322 329 329 337 344 343
180 179 155 140 209 249 225 212 240 155 217 219 204 168 193 197 212 221 225 251 274 313 319 470 505 503 475 444 427 412 390 396 338 328 333 326 328 332 332 332 326 331 329
173 200 204 255 232 219 232 178 149 261 204 161 191 185 194 217 222 229 251 284 307 325 462 486 499 470 434 431 396 379 402 378 343 329 321 326 318 322 323 318 310 325 340
206 254 240 225 213 146 198 257 210 209 188 189 187 200 213 216 244 252 297 296 324 461 502 486 462 430 430 389 367 393 387 338 317 309 301 312 314 317 311 325 331 334 345
238 226 211 128 163 182 226 213 174 196 190 197 202 210 229 242 261 301 294 324 470 468 484 453 460 421 372 356 375 390 335 315 308 301 311 305 305 298 296 307 305 304 323
208 130 128 145 266 214 200 198 191 192 196 209 210 233 246 275 301 300 317 471 458 491 444 427 399 363 363 384 381 334 304 306 302 313 310 304 298 292 294 298 296 294 307
127 132 140 215 198 191 190 189 196 190 211 219 235 251 294 300 308 315 463 461 500 466 419 388 357 360 370 329 312 305 303 318 308 306 301 297 291 286 282 287 285 290 285
133 136 195 199 187 186 187 195 184 201 234 236 250 295 298 303 313 465 452 539 469 420 375 353 348 353 316 326 314 316 314 310 308 293 294 303 288 288 280 283 281 290 292
137 199 192 183 180 187 197 191 224 233 236 250 292 297 297 306 461 437 541 466 432 373 346 346 338 316 306 304 302 296 293 296 295 293 292 289 294 288 278 281 280 286 282
192 194 183 181 190 194 206 224 234 241 268 293 288 292 304 458 435 515 489 453 381 346 341 333 310 302 299 289 293 286 292 273 267 267 280 282 276 281 292 283 280 278 283
190 181 181 190 187 201 225 234 240 283 296 288 298 308 460 434 504 501 471 370 349 335 337 310 301 294 283 294 287 291 266 264 265 262 282 376 331 283 259 287 281 281 281
188 194 193 193 220 224 235 242 284 293 297 301 314 466 432 471 517 476 381 344 337 331 302 302 289 293 289 280 306 283 291 353 345 346 346 349 340 268 369 287 288 282 282
197 195 215 218 231 231 245 282 293 303 307 336 467 430 480 507 475 407 347 331 321 302 302 289 287 295 282 269 357 351 275 323 350 343 350 352 349 361 374 400 293 286 283
199 212 216 232 229 249 283 291 301 316 362 469 435 482 479 487 421 352 327 318 302 298 288 285 298 278 303 261 254 322 311 331 339 335 335 340 346 350 437 393 375 289 287
206 229 225 236 256 285 295 302 321 365 421 440 484 476 492 426 355 330 318 301 297 285 282 295 272 297 269 256 373 375 346 359 342 331 325 340 373 369 400 407 409 312 286
231 223 239 256 287 289 309 344 368 467 487 472 469 491 469 372 339 320 302 296 287 279 294 277 254 302 253 250 389 374 353 342 333 378 372 361 366 372 367 372 386 392 319
226 238 256 285 279 333 337 393 463 471 451 480 497 480 375 352 318 301 295 288 278 296 273 291 298 243 250 315 307 354 345 330 331 326 365 364 363 363 361 365 372 378 388

GFSGL_2pvu_pres_033.txt.gz
Presure
183 205 200 196 193 190 194 201 194 196 182 181 184 183 183 182 184 181 186 199 202 214 267 231 144 262 254 233 264 185 145 199 189 185 231 168 233 240 257 63 520 512 505
192 123 198 101 193 195 204 198 192 190 189 188 181 188 181 179 185 192 196 205 223 263 226 258 261 243 269 137 145 144 213 220 230 236 238 268 349 564 593 619 597 582 572
198 201 196 195 198 194 195 192 190 187 182 191 184 178 182 189 193 194 207 215 260 211 262 251 247 215 136 153 164 211 230 230 239 285 343 527 561 544 537 530 524 518 511
199 198 199 194 201 195 191 189 180 190 183 176 182 188 188 191 196 207 230 254 220 258 207 237 157 181 211 217 230 236 241 274 321 424 539 538 517 498 473 459 452 444 444
199 199 199 199 192 186 177 183 185 171 180 187 188 186 193 184 205 240 203 248 257 209 217 218 205 209 223 233 235 259 284 331 510 529 511 487 457 441 434 423 423 423 414
203 200 199 190 175 187 183 164 177 185 189 181 177 141 199 212 256 218 262 137 179 213 182 164 212 226 230 241 267 314 324 518 507 490 458 448 422 418 422 434 376 367 351
196 195 187 186 181 178 174 182 171 149 147 192 180 203 227 252 221 216 238 223 206 176 209 212 225 229 248 279 326 383 519 487 462 447 452 412 429 366 348 343 344 343 337
184 183 182 185 174 180 185 185 152 176 155 197 208 243 226 196 195 243 210 182 183 203 216 224 234 257 308 331 453 521 478 439 442 412 408 438 355 329 331 320 319 335 353
185 186 177 182 184 172 191 186 187 167 204 225 258 215 180 152 233 202 163 198 199 216 218 237 267 314 328 501 511 478 433 436 397 409 428 337 346 324 333 336 329 327 332
178 181 183 187 185 129 174 190 200 214 252 210 140 210 287 209 182 191 198 199 210 217 241 267 309 324 510 496 470 436 415 386 405 403 351 342 342 335 323 324 313 318 321
184 186 182 188 191 190 168 209 236 249 170 141 273 242 194 204 183 200 207 213 223 255 284 307 320 508 487 465 436 403 381 398 381 341 325 328 308 328 318 316 327 323 320
181 185 164 191 200 204 231 258 163 135 235 284 214 169 189 193 205 211 213 232 254 304 304 329 529 486 447 420 383 369 375 392 344 327 318 306 321 311 308 305 307 302 302
191 190 201 200 225 256 222 134 135 142 227 202 200 185 194 201 208 207 228 253 306 313 347 559 486 448 405 373 369 388 398 345 326 306 306 317 311 301 301 299 308 296 299
201 202 238 254 224 148 135 134 142 143 201 197 187 177 198 210 215 245 299 310 329 479 557 486 450 408 370 373 388 391 319 321 308 326 314 305 305 294 298 293 300 289 296
247 245 224 206 315 134 134 139 143 200 191 179 189 202 218 225 249 308 305 331 478 530 507 451 408 372 369 347 333 321 318 316 319 311 303 296 294 299 290 293 284 295 282
220 209 263 291 233 131 136 139 187 195 194 205 206 219 234 263 297 317 330 447 499 533 453 420 369 356 339 324 315 312 305 300 297 296 286 296 298 292 294 294 291 286 283
266 266 314 147 131 134 138 200 162 201 204 211 220 234 283 299 321 330 456 457 532 469 421 369 350 345 315 312 305 288 297 296 289 278 267 267 265 276 277 286 293 290 286
270 207 139 133 134 174 180 191 198 203 208 214 230 277 293 318 322 474 490 523 475 407 363 341 344 313 308 300 293 291 282 295 289 268 268 265 261 262 290 275 272 293 286
149 133 136 166 199 179 199 201 206 211 217 235 283 296 327 351 473 493 503 492 400 356 344 340 305 304 299 303 294 279 287 344 358 320 271 354 350 351 282 343 284 267 289
138 136 201 190 191 199 203 205 211 221 240 289 299 327 363 479 498 471 498 430 355 337 320 305 300 299 292 302 289 267 321 332 329 318 352 347 354 366 370 349 264 280 280
200 196 194 195 199 204 204 217 225 248 287 297 322 358 480 513 465 499 436 359 335 316 307 299 297 297 297 287 289 323 377 374 336 350 348 343 349 350 350 368 360 288 283
194 196 198 199 207 206 234 224 254 284 298 301 370 477 488 451 506 434 364 332 316 307 299 286 299 289 276 299 310 392 379 364 353 356 342 333 331 337 362 402 336 420 291
193 198 199 209 213 226 230 255 282 298 300 359 477 475 442 509 452 371 329 313 306 299 282 301 283 284 301 304 383 367 360 356 348 338 357 374 375 372 376 400 394 397 298
200 203 204 222 222 236 254 278 298 311 358 476 469 551 513 484 381 332 316 307 295 281 302 290 321 311 302 356 333 362 349 337 349 363 365 367 368 369 374 375 391 404 302
202 206 226 224 237 258 280 295 316 353 473 449 521 513 486 391 339 318 307 296 281 295 281 293 311 255 306 328 346 364 352 342 339 334 330 329 344 354 366 382 388 390 318
220 225 229 240 261 291 294 317 356 472 446 508 507 486 396 355 320 307 296 281 294 276 275 267 264 309 301 313 369 375 362 349 351 352 342 334 329 341 367 380 412 434 449

GFSGL_2pvu_pres_036.txt.gz
Presure
186 183 188 173 185 179 181 188 198 198 201 200 200 203 207 196 191 190 188 191 182 190 197 196 201 213 232 260 239 281 266 241 134 203 213 146 240 251 65 336 214 559 544
187 190 178 187 180 177 188 184 201 202 202 201 198 199 192 190 182 196 182 181 193 193 202 199 211 253 224 268 147 228 230 194 218 181 228 248 266 325 340 550 525 482 470
183 180 186 175 175 180 180 197 206 204 199 203 201 192 185 182 184 173 188 193 197 201 197 224 259 230 241 234 231 207 173 179 233 250 266 295 339 532 521 474 466 450 437
183 185 181 176 181 180 186 200 204 199 202 197 178 182 183 173 185 191 192 200 200 211 233 233 200 271 224 220 181 188 225 238 253 280 323 382 521 476 463 440 438 449 461
183 176 180 182 178 175 194 201 202 202 193 190 182 183 178 185 182 176 198 200 218 187 223 279 265 228 212 199 218 230 239 254 291 349 533 495 466 433 426 454 424 357 343
176 174 178 177 175 194 203 201 197 197 183 185 182 186 174 188 157 197 207 225 264 192 291 231 212 172 208 221 224 239 274 320 514 517 473 456 417 455 404 358 339 341 323
178 178 177 178 191 202 198 198 184 186 186 184 184 142 192 194 191 219 250 211 231 274 225 207 191 209 225 232 245 275 354 500 517 460 440 418 442 377 365 347 343 347 345
177 176 182 191 199 200 189 187 186 182 187 127 173 193 200 205 210 197 222 286 225 199 173 198 210 222 229 255 299 510 496 470 452 417 406 422 371 352 332 325 306 324 331
178 183 191 198 187 183 187 181 184 189 188 194 194 204 156 240 143 169 249 222 193 194 188 211 218 231 265 326 485 513 457 429 401 383 427 371 348 328 314 320 313 313 307
183 192 189 173 186 182 182 188 186 196 191 206 210 172 140 144 145 190 207 198 185 203 207 219 237 265 349 524 513 460 412 385 374 404 370 346 330 308 306 310 306 298 304
189 181 183 180 181 187 153 191 192 199 206 227 205 139 142 144 221 187 203 199 210 216 215 235 277 352 568 509 458 405 381 392 399 382 341 315 316 317 322 309 303 292 290
184 180 181 163 186 190 193 198 206 220 256 227 136 143 142 175 191 186 202 206 216 218 242 312 392 519 510 463 403 372 393 352 346 335 314 312 316 314 311 310 303 294 290
133 184 186 121 136 141 206 217 251 236 255 132 149 141 141 166 193 202 212 215 217 241 307 477 504 507 465 406 368 373 346 335 332 325 320 324 314 306 301 304 304 299 288
186 191 147 193 205 213 252 241 208 210 274 140 141 144 174 200 208 211 206 217 260 307 494 509 508 464 407 372 361 339 328 320 311 293 290 291 294 279 279 290 291 299 294
190 194 204 220 250 240 204 257 297 247 141 142 176 198 200 203 211 213 217 311 306 496 511 518 459 396 366 355 352 327 311 307 295 290 289 289 290 275 272 271 279 275 293
204 209 247 242 207 236 266 306 164 142 201 201 200 202 207 211 225 222 312 307 496 515 522 450 386 363 349 345 319 307 309 305 292 278 296 341 329 274 271 269 264 284 275
239 239 201 204 255 264 201 137 187 202 202 165 206 211 198 234 228 317 295 493 512 523 455 378 353 345 321 305 299 302 306 291 315 279 331 337 353 359 261 377 319 260 290
194 211 250 267 264 150 162 191 199 197 190 204 211 212 231 232 316 297 485 497 513 461 375 347 329 316 305 299 303 300 284 328 311 332 376 357 327 344 348 392 357 299 303
257 293 300 265 181 192 191 201 179 201 208 212 218 228 293 304 310 410 486 506 468 367 344 326 314 306 295 304 298 296 294 318 308 376 371 362 352 347 346 345 374 355 362
273 256 210 201 195 201 202 184 203 209 215 224 234 304 304 307 474 500 501 471 372 342 322 312 305 294 306 314 322 327 368 369 369 358 342 348 344 336 329 350 363 342 366
215 209 203 204 204 199 194 203 213 217 227 208 303 303 306 496 507 544 500 376 343 322 311 303 293 308 310 305 294 342 340 364 352 345 344 337 337 376 368 385 350 350 393
157 203 203 204 196 203 204 213 225 233 233 301 301 303 489 532 537 495 380 343 321 310 301 293 305 327 312 318 370 382 367 358 348 349 361 369 374 375 380 387 407 369 362
200 203 201 176 204 205 214 227 240 277 301 303 299 487 484 526 507 385 345 320 308 298 291 293 301 270 316 309 309 369 365 358 354 350 342 333 340 358 365 376 388 368 398
203 200 208 205 215 220 226 245 292 300 304 294 482 444 520 500 393 346 321 308 296 290 292 289 330 322 307 328 377 370 368 366 360 356 351 342 334 333 372 383 394 391 333
204 205 212 216 216 234 249 292 301 306 300 476 434 509 497 401 348 322 309 295 287 293 280 323 293 312 311 328 382 385 384 380 373 365 355 350 347 368 382 391 411 440 327
204 217 215 225 245 257 295 299 307 299 474 433 501 497 417 355 325 311 295 284 292 280 321 262 311 305 309 332 319 328 379 380 376 374 364 356 354 391 424 440 448 466 329

GFSGL_2pvu_pres_039.txt.gz
Presure
229 232 216 202 192 188 184 182 182 184 177 188 182 180 184 183 203 204 203 202 207 195 181 182 190 185 195 201 209 217 238 259 263 257 215 185 214 170 229 246 166 468 538
226 232 221 205 194 190 186 182 177 191 178 183 177 181 180 198 203 204 204 206 182 186 187 189 189 200 202 211 227 270 235 286 237 197 160 216 220 237 250 404 543 502 479
221 230 222 211 199 192 186 183 186 180 185 172 180 181 193 200 203 208 202 186 185 193 140 137 199 207 210 238 260 277 239 218 176 216 222 223 241 288 586 499 471 444 440
215 223 221 212 203 194 186 181 178 187 176 182 180 188 201 205 204 195 187 192 188 192 197 199 211 225 270 250 273 224 225 195 221 221 239 257 540 500 469 444 439 451 407
215 223 219 211 201 194 183 180 185 175 181 182 188 200 204 200 189 192 187 146 195 199 200 214 239 203 260 240 221 215 202 225 231 242 309 522 484 438 423 454 408 379 368
220 218 214 208 200 192 188 178 174 177 181 188 198 203 193 191 188 184 186 191 198 159 223 264 145 192 210 225 211 215 226 228 246 515 516 474 423 404 426 377 369 351 337
222 221 211 203 197 186 177 178 179 180 190 197 201 188 189 187 189 193 199 201 179 219 251 140 157 224 207 216 209 226 233 255 533 507 463 412 389 423 377 353 335 333 326
217 211 202 197 187 181 182 177 179 190 196 192 184 188 184 192 188 198 212 233 168 136 141 158 221 211 210 216 225 237 267 533 497 451 403 397 421 386 352 333 318 311 315
210 204 195 188 182 180 175 183 190 192 189 188 142 184 190 197 208 224 166 222 145 141 162 211 197 211 217 227 238 423 541 489 440 393 418 421 341 360 334 312 305 322 304
203 193 185 180 179 179 185 190 191 183 180 185 191 193 201 213 239 251 225 255 144 201 204 210 209 217 228 243 341 547 487 429 384 385 361 340 347 332 325 330 327 317 302
187 176 180 178 182 189 191 183 183 164 149 174 198 211 232 259 219 292 234 177 203 205 211 208 221 228 247 438 537 477 417 379 381 350 342 334 331 328 330 326 324 321 303
180 179 182 186 188 175 183 185 188 192 195 207 225 253 235 224 282 149 203 205 204 208 214 225 231 249 541 529 469 400 377 360 352 338 325 310 302 301 297 303 288 303 318
181 186 182 180 182 184 187 191 193 204 214 266 255 217 272 163 174 203 202 203 203 216 225 236 279 522 525 453 396 369 351 356 338 316 306 304 301 290 287 292 300 282 285
121 128 185 186 188 191 192 201 211 234 250 209 215 207 161 205 213 199 194 202 207 217 233 315 507 523 432 385 364 354 345 315 306 306 308 306 294 290 279 302 353 304 281
185 187 188 191 191 200 210 226 257 206 237 277 152 203 195 203 197 197 197 206 216 253 311 490 515 417 376 359 344 328 315 307 312 307 291 294 333 317 296 330 353 369 294
186 192 191 201 210 223 249 204 248 309 199 206 212 204 205 193 203 199 206 219 298 310 458 517 410 370 350 336 325 317 309 316 308 279 314 276 319 335 375 365 342 342 360
196 201 212 222 245 204 251 300 269 238 203 206 210 205 204 203 212 210 228 314 312 571 522 405 365 348 335 321 309 311 336 337 334 322 389 397 383 376 370 359 359 353 382
212 246 235 202 249 263 285 250 182 207 192 202 199 211 211 210 217 307 305 314 557 509 404 361 346 332 319 304 321 326 335 323 327 369 363 361 356 350 356 355 344 353 382
216 210 247 281 294 262 226 204 197 202 205 206 211 211 204 228 307 309 315 551 489 399 358 344 330 315 300 307 334 333 294 287 373 362 353 347 348 348 346 346 338 347 367
243 142 288 261 234 208 195 200 204 190 203 210 218 220 288 310 304 315 542 503 396 356 337 325 313 299 296 337 328 318 318 377 368 361 353 355 356 376 384 383 405 354 348
275 251 239 214 202 195 168 204 206 211 210 225 226 308 314 309 320 542 503 393 355 336 322 309 299 293 338 324 320 388 384 374 367 361 356 354 346 345 365 382 397 404 359
235 215 203 199 198 200 207 211 207 224 220 278 308 315 306 368 534 500 396 355 336 321 307 298 291 333 319 322 382 403 396 385 376 369 362 354 348 342 337 377 390 380 351
212 167 191 199 207 211 206 218 222 253 305 309 317 307 458 521 511 401 357 336 320 303 296 294 333 319 316 255 375 382 392 385 380 371 365 362 360 357 349 367 396 372 322
191 199 208 208 205 194 223 222 297 307 306 315 332 474 515 513 406 360 338 319 303 294 295 328 322 313 325 321 316 353 355 362 384 377 372 371 370 375 373 400 414 363 311
210 206 210 214 185 218 250 302 304 303 305 330 472 514 510 415 370 340 320 304 294 293 321 324 309 309 318 318 304 306 341 351 360 382 383 409 425 435 441 461 474 464 303
213 215 209 217 232 271 298 297 304 307 391 521 481 503 436 378 343 324 305 295 292 283 325 311 302 296 309 310 301 305 328 338 352 376 385 417 420 434 450 455 519 329 295

GFSGL_2pvu_pres_042.txt.gz
Presure
211 264 244 235 227 225 231 224 220 210 200 198 187 184 185 181 181 189 183 184 185 184 189 199 204 210 206 191 191 151 193 199 205 213 268 230 266 255 230 202 183 211 232
204 257 242 230 226 221 217 223 221 212 203 195 192 187 185 181 185 183 184 184 185 189 198 205 210 195 193 187 171 196 205 138 240 139 275 254 225 239 215 222 233 252 333
126 251 241 227 225 148 218 224 220 211 204 198 194 192 185 183 182 182 184 184 186 195 203 208 192 185 189 195 190 142 137 194 152 171 238 231 180 216 225 241 299 476 445
239 242 246 226 222 217 220 222 220 215 206 203 195 193 188 181 182 182 182 180 193 204 200 193 186 169 195 193 127 133 141 149 194 228 223 205 224 230 253 499 457 421 441
237 236 244 227 218 216 215 223 221 214 209 206 200 192 185 184 183 180 182 191 204 188 193 188 188 197 211 237 131 139 230 222 242 174 222 224 239 262 475 431 415 435 394
237 239 246 229 217 214 212 217 217 210 208 204 201 191 189 183 176 183 190 199 193 184 148 191 202 215 130 135 134 216 240 215 221 226 235 248 513 458 418 396 398 391 361
235 237 244 229 217 212 210 218 214 210 206 201 195 186 181 178 182 192 195 185 190 190 197 212 236 127 182 266 191 229 212 216 226 239 252 502 444 408 430 417 398 364 350
234 238 248 229 216 207 220 213 209 207 202 196 184 176 183 185 194 192 192 192 192 201 216 245 233 292 207 209 214 186 216 227 238 381 490 443 402 384 390 387 352 331 327
237 242 253 216 206 220 215 211 205 201 187 177 186 182 192 194 185 191 154 195 208 232 226 243 215 197 226 216 214 216 226 241 412 474 424 389 387 358 343 341 330 327 324
246 251 215 204 220 214 209 202 201 189 186 183 187 192 183 189 191 193 204 216 233 217 280 168 217 213 170 216 221 231 243 496 446 397 376 364 372 348 327 318 307 293 293
242 205 200 216 212 205 204 191 185 182 184 190 182 186 192 191 195 207 229 242 285 188 237 220 213 219 216 222 237 276 485 423 383 367 361 358 335 321 311 312 309 303 290
206 215 211 206 204 191 184 180 183 187 182 186 190 192 194 205 225 226 237 281 183 190 211 222 212 216 227 240 382 466 401 373 362 345 330 320 313 314 314 314 316 303 303
210 207 202 188 179 181 167 187 190 185 189 186 194 202 221 253 216 282 175 214 215 217 206 213 222 220 242 506 447 392 368 355 337 327 317 311 314 323 310 286 293 328 328
193 173 179 181 182 189 188 184 189 191 193 200 214 215 209 295 267 248 225 210 207 205 211 217 229 324 497 430 383 365 351 332 323 313 315 342 341 337 333 345 344 340 380
182 180 183 188 184 186 190 190 194 201 214 182 205 245 281 260 235 206 209 204 197 213 219 245 365 472 412 375 358 345 328 319 313 344 344 337 326 325 321 394 383 382 373
186 186 188 189 189 189 196 204 219 212 201 245 285 263 245 218 205 205 209 196 212 229 301 485 451 397 366 350 335 323 317 313 345 347 329 276 251 367 362 365 362 352 360
190 190 184 192 198 211 221 204 217 270 281 260 246 228 204 209 210 220 200 227 269 332 532 430 385 361 346 328 318 314 342 347 334 335 384 381 381 363 356 353 354 360 352
192 198 206 211 225 212 242 288 270 252 242 230 218 207 206 195 212 225 241 321 331 529 424 381 357 341 321 312 311 341 339 345 391 357 377 367 363 360 373 381 387 362 344
203 217 219 220 266 274 256 245 236 229 220 208 204 213 221 221 227 320 328 334 520 422 377 352 335 318 308 308 334 329 376 409 368 385 378 374 365 356 352 354 390 393 343
205 251 276 259 246 238 235 227 219 189 209 213 221 222 227 298 322 328 361 525 421 373 348 333 314 306 306 330 321 356 282 393 397 393 387 377 372 365 350 347 376 401 359
269 253 164 238 234 198 223 221 220 218 219 223 223 235 320 333 311 463 523 425 376 347 330 312 304 311 329 326 330 249 323 352 380 389 382 380 378 371 357 340 369 346 345
240 233 229 223 219 215 186 217 219 221 223 247 312 308 329 311 511 530 430 378 348 328 310 302 312 328 314 292 262 320 355 361 371 381 387 393 386 380 369 348 363 400 351
228 220 181 217 216 213 216 218 218 235 298 306 308 329 328 521 525 440 384 347 328 308 299 305 330 316 297 316 317 321 349 352 369 386 397 402 412 424 435 385 371 401 329
216 208 208 208 214 213 222 233 272 301 299 306 317 409 514 517 461 395 348 330 307 298 300 327 320 304 302 311 306 328 349 352 373 384 393 413 431 439 442 461 427 350 295
208 209 207 151 214 234 263 285 296 298 323 314 404 502 518 501 406 350 331 308 297 296 311 321 274 295 303 307 299 322 348 352 376 380 397 421 450 467 475 467 495 299 288
209 210 174 217 241 272 289 296 298 303 294 505 504 516 622 415 361 333 310 294 295 296 317 248 302 293 302 296 306 319 346 351 368 374 390 415 459 490 514 503 298 286 284

GFSGL_2pvu_pres_045.txt.gz
Presure
236 231 215 218 218 223 220 262 252 239 230 225 218 225 223 217 210 208 199 198 193 191 191 188 183 187 184 186 183 187 198 209 193 196 193 202 209 128 134 140 221 150 207
238 226 218 214 220 218 219 214 241 238 230 225 221 224 221 217 210 209 203 199 194 194 193 190 188 182 188 182 189 194 202 194 193 160 202 180 133 135 146 148 211 214 227
233 226 223 220 220 217 216 261 250 236 229 224 220 221 219 218 214 209 207 206 197 195 198 194 185 189 182 189 193 198 196 194 201 210 206 126 160 139 148 210 222 227 243
228 221 219 218 224 223 217 250 252 235 227 223 221 217 216 218 216 212 209 207 209 200 201 197 189 180 190 192 198 195 197 203 219 197 173 138 141 222 214 224 235 251 290
228 217 211 218 216 214 241 244 249 235 224 220 217 217 220 218 218 215 214 211 210 206 203 184 185 188 194 199 194 200 208 236 269 163 135 221 222 215 230 243 257 436 410
224 216 210 196 216 234 240 234 242 236 224 218 212 215 222 219 216 213 210 211 208 200 182 191 189 197 194 195 204 218 240 233 136 248 233 216 223 237 246 264 416 403 397
225 217 209 209 218 229 237 234 242 239 224 216 211 207 207 215 215 213 212 209 199 178 185 192 196 198 199 208 233 127 171 154 228 221 214 230 240 253 437 400 381 375 361
211 206 204 220 215 236 234 234 240 240 221 214 210 206 217 214 213 212 204 193 185 189 187 196 195 203 217 221 163 151 197 224 216 226 240 247 362 415 392 376 375 355 345
215 216 216 208 227 233 232 236 239 238 217 211 218 217 214 212 206 197 184 187 187 196 194 200 208 227 127 285 208 227 215 212 228 246 253 425 403 381 367 352 328 328 312
213 220 226 227 236 232 236 240 241 214 207 218 216 213 208 198 181 184 191 198 196 195 203 206 131 267 286 248 231 224 217 235 245 416 408 388 373 359 345 336 323 313 309
221 236 241 232 244 244 241 214 205 209 214 212 209 193 181 189 192 195 193 195 199 206 166 263 288 269 229 215 218 227 243 247 420 392 376 365 351 337 330 319 327 340 350
246 188 245 248 225 207 203 210 213 210 203 180 183 190 190 189 192 193 199 205 224 248 288 272 239 215 222 223 243 241 368 403 381 367 354 341 331 324 325 356 348 346 345
238 215 207 199 208 214 212 208 180 179 188 190 188 190 192 193 199 208 223 223 282 269 251 199 217 216 236 236 241 420 390 374 360 343 331 325 319 359 351 338 330 258 371
205 210 212 212 205 181 182 189 190 189 189 190 191 194 201 211 219 240 276 264 250 241 214 203 228 237 236 316 409 384 367 349 334 324 324 352 343 349 405 352 392 377 368
210 196 177 176 185 190 189 187 191 190 192 196 204 213 214 249 273 260 245 239 214 203 224 232 231 321 429 397 376 358 338 329 321 351 346 373 398 391 388 384 381 366 360
179 186 188 188 187 189 190 192 195 200 208 210 215 264 265 251 239 235 215 222 227 228 227 249 392 422 390 368 349 332 323 341 342 347 353 404 378 384 377 372 366 366 394
187 185 189 191 191 194 200 204 207 206 230 265 261 244 236 237 227 230 227 225 227 238 334 463 414 381 359 337 326 317 339 336 343 395 388 395 392 383 378 371 363 357 388
190 191 194 199 203 204 215 211 248 263 252 158 232 223 222 226 228 222 228 265 332 328 477 413 378 357 334 320 312 335 328 332 276 297 389 393 392 386 376 374 365 354 391
198 201 205 212 213 231 266 258 248 233 229 227 223 184 223 225 224 299 322 314 331 485 412 373 350 329 314 309 331 326 332 303 366 374 385 394 400 393 382 374 358 366 396
211 208 209 241 268 253 233 227 221 210 222 205 216 223 217 274 314 318 322 499 501 411 370 345 325 307 307 327 326 287 321 358 363 373 389 388 397 412 396 379 355 380 351
215 236 254 250 238 228 218 223 208 180 215 219 216 237 303 317 312 331 529 529 418 370 344 323 306 303 326 323 264 317 335 363 364 386 380 395 411 421 425 392 362 364 349
235 267 243 227 221 181 220 220 142 211 164 229 269 303 309 315 425 524 526 434 376 346 322 306 299 320 310 258 310 317 346 362 372 380 390 413 431 441 442 437 376 362 329
258 226 216 211 219 217 210 179 202 224 198 292 304 305 311 453 477 527 446 379 346 322 306 298 314 308 253 305 308 309 359 369 385 384 400 442 460 467 471 399 387 324 299
214 214 217 210 209 217 210 221 172 286 289 300 299 319 473 526 524 468 383 347 322 306 296 313 312 254 297 301 309 327 366 384 389 385 409 460 494 513 467 396 314 296 296
205 207 210 215 210 213 215 158 280 290 302 295 317 522 515 518 570 389 348 321 307 293 316 313 255 299 300 301 300 335 369 393 399 388 408 441 486 505 309 300 293 292 304
211 210 213 205 234 261 273 286 287 301 289 317 551 580 678 687 396 352 320 306 294 310 310 256 280 213 206 297 296 329 361 397 417 396 406 316 302 294 291 289 293 321 345

GFSGL_2pvu_pres_048.txt.gz
Presure
261 260 249 242 243 238 231 228 235 236 225 221 228 220 269 248 238 233 227 220 217 215 220 218 219 212 213 213 210 206 205 204 201 202 198 183 196 194 198 204 207 210 220
223 235 248 249 246 238 231 230 236 228 213 222 224 224 257 246 239 229 225 219 217 215 217 217 218 216 214 215 212 211 210 215 213 213 191 197 193 200 207 209 218 254 307
300 228 224 226 217 227 233 233 230 225 215 222 221 240 244 251 235 227 225 218 216 216 219 217 219 219 219 217 217 218 220 220 219 203 195 197 202 208 212 232 256 304 230
310 271 235 217 207 221 231 229 228 223 220 223 225 214 244 243 237 228 225 220 217 216 218 218 221 222 223 222 223 221 220 220 199 197 200 205 212 225 211 295 232 216 225
303 254 251 226 219 220 224 228 224 219 216 214 215 234 237 240 239 234 226 221 218 218 223 225 225 223 222 221 222 221 204 195 196 201 211 220 180 248 294 223 226 238 254
285 262 243 233 220 218 228 223 215 185 204 205 221 234 229 239 241 236 228 220 215 214 215 215 218 220 224 222 202 195 197 201 210 218 220 248 307 217 218 246 247 261 409
264 249 235 216 219 226 226 215 213 205 215 211 233 237 233 238 242 241 228 217 213 212 214 219 222 222 200 191 197 198 204 212 223 248 303 283 217 222 250 248 307 402 380
247 235 229 218 224 191 218 210 204 216 211 224 237 231 234 241 242 237 216 214 214 218 220 221 200 193 195 202 204 208 219 240 268 283 195 227 237 249 260 407 394 375 351
226 221 222 222 208 211 203 211 216 206 235 238 240 237 241 232 223 215 212 217 220 220 191 195 197 198 204 209 219 216 272 278 269 251 225 250 248 381 395 381 361 346 331
224 220 220 220 211 217 209 230 229 233 229 239 240 223 214 210 206 216 218 177 191 193 194 199 204 214 220 235 279 274 266 248 218 250 243 328 395 378 362 352 344 337 329
215 215 210 216 209 215 226 242 236 244 238 215 209 204 208 214 210 191 191 195 196 198 204 213 222 237 276 268 257 236 236 244 246 313 394 379 361 350 341 354 370 365 357
201 204 206 208 217 234 241 236 217 208 204 208 213 212 197 190 186 193 198 200 209 217 218 243 267 264 250 237 239 234 251 288 403 383 367 352 345 354 359 357 389 416 417
211 218 235 244 245 219 209 201 207 212 210 192 188 184 188 194 197 204 210 218 220 249 266 258 243 233 235 235 250 254 410 390 370 354 345 336 356 355 355 354 401 348 272
258 242 217 209 204 207 177 205 188 185 183 185 192 196 201 207 209 219 210 257 264 252 238 232 221 228 242 260 435 403 379 358 343 335 339 343 350 351 421 412 401 390 378
204 204 197 191 184 188 184 182 185 190 194 198 203 206 211 217 228 255 257 244 235 227 220 220 232 246 389 423 394 371 350 336 329 338 339 339 359 398 407 407 403 391 381
208 208 197 183 183 187 190 192 198 201 206 206 216 216 238 257 250 240 229 226 221 223 231 245 313 467 416 385 362 343 332 322 333 323 333 385 387 401 399 404 402 393 379
183 184 187 188 191 196 201 203 209 207 216 218 256 251 245 229 212 226 220 223 226 238 316 378 457 410 378 356 333 322 316 332 328 331 382 382 398 388 396 406 405 391 370
187 189 193 200 203 207 208 216 215 226 255 247 237 227 226 221 221 225 228 252 312 331 393 468 408 374 348 330 319 316 324 329 330 378 382 399 387 399 410 414 411 376 361
200 203 206 210 207 213 217 227 236 250 237 138 222 218 225 184 227 246 307 312 324 415 486 402 373 347 326 317 321 326 327 328 377 390 404 389 405 425 437 429 405 357 374
217 206 205 215 223 229 233 249 242 223 218 216 221 220 187 233 300 309 316 353 450 503 411 373 344 322 309 321 324 320 322 370 394 402 393 417 447 456 456 445 373 383 352
217 228 233 231 233 234 250 219 133 214 214 222 216 231 299 302 306 330 366 542 531 414 371 343 321 308 322 317 315 315 355 392 413 397 423 472 482 490 486 419 387 363 323
269 264 243 199 247 224 213 210 210 219 214 225 255 288 300 311 327 486 533 530 415 372 339 320 308 322 313 315 242 338 376 419 394 414 461 502 488 518 379 389 339 309 297
237 205 192 215 211 206 206 212 215 221 236 287 288 307 314 332 556 524 534 418 372 340 318 306 316 315 311 307 216 303 396 414 411 426 397 396 397 364 323 306 293 300 320
191 203 208 208 210 210 217 215 229 247 291 291 316 321 363 689 550 536 421 372 340 314 303 314 320 310 305 282 324 362 404 391 317 313 309 303 298 292 289 295 316 346 344
205 209 209 205 217 211 226 229 255 294 289 309 329 396 675 674 712 414 358 338 315 299 320 318 309 305 301 302 333 362 348 302 298 295 290 285 288 297 328 345 345 340 343
212 206 203 216 214 226 229 257 290 284 304 326 525 696 579 346 350 362 330 314 303 320 312 314 270 297 301 298 329 350 307 292 289 284 281 280 327 339 339 339 331 337 332

GFSGL_2pvu_pres_051.txt.gz
Presure
260 260 257 239 225 221 222 223 221 224 228 229 235 231 233 236 238 226 224 231 221 254 256 252 242 236 233 228 228 227 226 226 223 224 228 229 226 225 223 225 229 231 230
255 234 222 237 245 248 250 247 248 244 235 235 230 230 230 235 229 223 214 222 224 231 254 257 248 242 236 232 229 227 225 225 231 227 227 230 231 231 235 236 233 227 202
268 286 277 241 156 236 232 224 231 241 242 237 230 228 227 231 227 215 208 222 227 219 248 248 251 244 238 235 230 227 225 226 230 235 234 236 236 235 235 221 201 205 210
145 273 190 280 282 245 278 215 223 234 227 223 223 227 223 223 219 218 220 219 228 241 240 244 246 249 247 236 229 226 222 223 225 227 228 233 234 204 205 209 211 220 237
130 180 265 267 252 217 282 215 207 208 209 214 217 222 219 220 143 219 211 208 241 246 240 244 246 245 242 240 229 220 219 219 227 232 211 202 206 210 214 225 247 306 271
323 331 263 274 264 291 262 227 151 207 208 222 214 220 218 212 206 221 214 226 236 236 240 246 242 241 238 224 223 223 232 230 198 204 204 212 218 228 273 297 259 253 234
307 318 282 264 284 269 240 232 226 219 212 210 220 222 215 207 215 214 238 237 240 243 240 232 226 222 219 223 227 198 200 205 212 215 223 247 257 287 267 252 235 269 402
276 267 273 276 245 235 227 225 191 215 216 221 219 214 202 215 227 224 237 242 240 224 218 216 221 221 205 193 198 208 206 219 231 270 283 278 258 249 257 265 353 395 378
258 243 242 227 232 223 221 219 217 219 226 203 209 211 219 227 236 246 235 218 215 217 201 196 189 194 205 204 212 224 238 266 274 263 252 237 257 266 384 395 382 372 358
234 229 229 226 223 220 221 222 223 206 213 205 216 229 241 247 238 215 213 215 202 190 198 199 202 208 219 227 248 271 266 251 233 236 251 262 289 389 380 370 366 361 363
216 213 215 220 224 222 221 220 206 207 215 234 244 241 218 209 213 207 186 188 193 197 203 212 221 231 252 266 262 245 222 231 241 255 271 390 375 365 355 354 357 356 356
215 216 199 208 216 209 213 219 234 237 240 218 207 208 189 173 181 188 196 197 207 213 222 235 254 260 253 237 220 220 235 249 322 400 379 366 354 346 342 345 345 383 420
229 223 207 215 224 227 227 228 230 206 203 176 174 181 187 190 194 203 209 215 227 239 255 253 245 215 222 227 226 242 272 414 390 369 357 343 339 338 341 337 392 404 411
223 223 224 229 233 232 207 201 189 174 180 185 189 191 200 207 212 217 229 258 252 249 233 216 213 222 221 246 316 440 407 382 361 345 335 336 339 336 389 394 402 399 397
237 230 220 202 186 177 179 180 185 187 189 196 203 208 215 219 231 239 253 205 227 218 221 187 227 269 322 369 428 399 374 353 337 336 337 336 357 396 397 404 392 400 415
180 181 179 180 182 184 186 190 196 202 208 208 214 222 229 236 248 246 223 213 221 179 231 254 316 326 474 419 391 365 347 334 331 338 333 394 411 405 395 399 410 420 429
182 182 185 187 189 194 200 207 211 206 209 223 228 236 240 248 216 188 137 221 234 248 306 331 332 472 418 388 356 337 324 334 331 376 413 418 412 423 437 445 454 453 407
190 193 200 202 207 213 213 203 207 225 230 235 238 230 197 210 198 188 231 263 310 330 333 372 466 414 383 347 331 315 331 329 383 435 412 441 471 494 486 481 469 401 383
205 210 215 212 203 214 226 232 236 244 231 227 204 173 214 129 234 260 293 313 337 330 549 452 406 375 339 323 313 326 323 390 380 426 388 504 507 532 505 472 388 358 356
203 199 228 268 288 293 284 257 233 210 205 208 164 214 208 235 286 311 343 328 424 546 449 404 368 333 314 323 323 321 375 358 419 424 389 387 392 395 398 368 355 325 306
235 237 231 225 228 223 188 205 203 205 206 213 220 238 252 295 306 331 378 547 539 438 401 360 329 308 321 320 316 368 363 333 327 320 319 319 318 312 306 299 294 301 345
226 224 228 219 213 206 206 208 212 203 217 228 237 259 296 325 358 674 584 534 435 400 346 324 305 317 317 310 357 380 315 307 303 298 296 293 292 290 298 342 349 342 336
224 220 208 175 205 206 210 213 208 221 233 237 242 295 324 563 699 375 351 437 387 338 313 300 319 319 310 287 352 323 303 296 292 285 291 319 343 352 350 339 333 341 345
214 154 198 210 201 210 210 212 223 231 236 236 282 331 339 681 388 374 370 359 324 308 304 320 322 312 289 307 348 314 297 292 284 283 327 342 342 343 336 336 338 345 345
156 204 210 204 213 205 191 221 230 237 231 274 315 324 739 705 447 365 328 313 297 318 319 317 320 308 300 302 341 318 296 288 285 278 324 341 340 330 330 329 345 318 302
205 212 206 212 139 215 222 227 235 225 277 284 301 351 411 364 338 319 299 305 302 320 317 290 319 304 301 301 329 331 298 285 285 277 297 341 340 324 319 342 357 301 287

GFSGL_2pvu_pres_054.txt.gz
Presure
209 170 152 152 238 210 243 254 268 260 249 243 237 183 223 231 230 222 221 229 230 229 227 232 232 227 222 224 230 226 235 249 250 254 253 248 238 236 234 232 233 232 232
143 273 258 142 140 265 263 266 250 236 236 236 230 231 214 214 219 228 231 230 232 226 226 235 229 224 216 223 228 250 248 246 251 256 256 253 251 246 241 236 234 230 230
289 292 289 258 240 233 230 225 232 226 162 145 230 234 236 229 239 237 233 230 183 227 230 230 223 227 218 221 237 250 243 247 253 257 253 249 244 242 239 231 226 226 237
324 318 297 288 209 279 270 193 261 220 212 226 181 213 214 220 231 233 223 208 150 228 184 221 216 222 221 235 245 249 251 252 244 238 236 232 229 230 235 230 214 207 207
338 330 321 320 123 126 133 275 250 271 256 215 225 225 205 216 215 201 211 219 218 225 221 217 213 217 233 242 246 250 226 225 226 228 224 222 214 203 203 209 210 218 277
341 326 318 311 285 123 141 286 271 266 269 199 219 241 133 205 202 140 222 215 197 216 212 215 215 237 242 251 221 223 222 219 217 206 195 208 207 210 260 292 282 253 246
328 334 326 309 137 145 192 261 247 256 275 238 211 220 162 205 209 158 216 223 216 210 216 231 243 250 221 221 218 209 200 197 207 213 227 256 280 277 260 250 239 236 264
328 329 323 281 208 252 252 263 207 235 237 236 225 215 219 218 218 219 223 208 217 228 243 248 224 218 207 198 194 200 205 223 239 266 277 260 245 241 238 245 267 354 397
267 262 259 250 242 241 239 234 229 229 210 223 223 225 225 216 223 207 214 224 232 257 215 214 193 190 200 201 206 233 243 264 261 247 240 236 234 249 270 411 401 387 374
241 239 230 228 231 224 226 226 226 220 225 228 227 225 224 213 214 220 231 249 212 194 188 183 198 204 214 236 244 267 253 235 229 232 242 245 270 417 402 386 380 368 358
225 230 232 222 224 226 227 228 229 232 229 221 211 211 217 222 235 231 186 186 184 194 201 207 228 237 243 260 246 230 226 232 234 246 291 374 407 384 373 367 357 350 351
239 227 226 226 226 226 224 205 210 210 213 216 231 240 240 183 183 182 189 198 200 212 227 235 241 248 235 225 224 229 232 249 290 343 416 392 377 365 354 344 346 361 397
231 218 214 209 204 212 214 216 229 239 236 216 210 182 177 185 195 200 203 214 229 232 239 244 222 218 226 225 235 258 295 331 397 400 378 367 354 341 335 362 395 415 415
220 231 235 218 228 240 242 235 204 174 178 183 193 194 197 201 205 214 227 234 238 241 217 212 226 225 239 275 301 340 343 417 387 374 358 339 329 385 420 435 424 424 427
232 229 231 206 201 181 181 185 192 194 195 196 200 202 205 213 227 235 236 230 210 215 217 224 243 292 302 322 343 389 406 389 370 347 331 391 447 427 461 482 500 494 481
190 177 183 186 192 194 193 199 197 197 202 207 209 224 231 239 225 216 207 206 212 221 199 297 309 335 335 436 424 391 380 355 332 381 444 420 390 533 550 540 521 499 479
194 198 198 194 199 200 203 210 208 244 253 256 254 252 221 209 207 203 203 226 236 293 313 348 333 525 458 410 382 363 341 321 406 379 438 334 390 387 404 401 385 373 358
204 204 206 211 212 195 203 248 235 227 223 219 202 205 211 205 193 215 231 160 306 355 395 549 504 439 394 369 347 328 337 382 331 322 319 318 320 321 330 337 336 328 319
223 212 201 195 199 237 226 221 222 212 199 206 205 214 168 213 226 236 265 306 364 595 463 368 424 381 356 334 314 332 378 326 312 305 304 305 302 300 300 300 302 321 330
196 197 222 236 238 225 222 214 205 208 204 202 210 204 221 227 240 281 305 626 448 372 351 406 367 343 318 324 327 366 331 313 301 297 294 297 300 337 348 349 350 348 354
225 227 233 237 226 221 210 203 211 201 212 209 213 219 234 240 294 303 708 563 380 370 387 353 326 316 327 324 319 272 317 303 294 290 347 349 347 338 331 339 345 345 351
220 225 241 231 230 204 206 206 214 210 210 218 216 231 241 297 290 627 518 448 364 345 321 309 331 329 325 317 336 354 309 299 291 288 348 343 336 331 339 341 346 317 308
221 241 243 221 204 177 215 214 205 214 218 217 233 234 272 294 336 380 343 325 311 313 321 332 321 275 315 306 351 348 307 293 286 281 344 335 328 323 339 349 313 301 291
228 239 238 223 202 220 213 202 139 212 222 232 246 274 303 302 360 365 329 318 312 298 292 322 300 306 315 305 328 349 308 289 283 280 339 333 324 321 350 310 298 287 310
229 239 157 207 211 214 206 211 213 231 226 244 267 284 288 315 398 355 320 308 298 291 280 316 287 321 237 237 311 345 315 289 282 280 325 340 315 339 339 295 286 299 297
237 241 224 216 204 120 215 211 225 220 240 240 280 299 291 325 390 346 314 303 293 280 279 278 255 321 312 262 301 324 344 295 283 279 306 337 320 337 297 291 288 278 285

GFSGL_2pvu_pres_057.txt.gz
Presure
248 224 262 217 258 216 251 256 255 244 247 245 246 241 236 232 220 250 203 246 240 231 217 217 215 213 224 236 237 235 229 229 227 225 227 220 219 238 245 249 253 256 257
96 287 285 278 271 263 258 249 231 115 133 230 169 226 230 253 252 250 238 236 226 227 211 208 231 237 238 240 221 228 229 227 226 222 229 226 243 252 254 256 236 231 229
292 288 288 279 273 126 199 264 255 250 243 250 249 249 254 253 245 234 228 224 198 219 228 220 228 235 230 211 204 210 230 225 222 233 243 254 258 240 228 224 221 220 220
363 292 283 284 301 294 286 284 278 266 262 291 242 224 205 210 221 233 239 226 229 222 181 220 226 213 208 223 226 231 224 214 227 243 259 236 223 222 222 217 206 205 197
376 374 357 368 383 356 301 280 273 263 223 121 246 245 247 264 204 210 207 218 219 195 211 218 198 205 219 221 226 215 223 232 249 227 217 217 212 206 201 196 214 267 270
343 332 338 326 323 329 315 303 304 278 285 121 125 265 244 253 251 128 170 207 126 227 224 200 211 216 221 225 215 228 242 249 220 210 200 196 201 215 217 273 252 244 241
354 339 333 323 316 304 291 281 283 284 291 126 142 260 257 242 241 265 227 200 212 232 218 217 222 226 224 225 238 218 210 199 194 196 212 226 258 252 244 239 240 243 255
317 323 348 322 313 303 303 286 272 252 185 244 254 184 259 244 247 223 244 231 198 217 222 227 228 224 232 216 200 191 193 200 219 244 252 246 235 236 241 247 261 291 344
278 279 275 269 271 261 257 245 250 234 236 224 231 236 246 236 235 228 226 227 226 227 222 220 230 210 193 195 199 210 230 243 243 232 183 237 239 249 266 306 324 425 407
251 251 251 249 248 247 253 241 231 228 226 229 239 230 239 235 228 227 227 220 218 219 227 200 189 190 204 218 232 241 235 221 224 228 239 251 262 317 330 413 412 382 376
253 256 251 246 243 238 234 238 243 234 237 236 231 235 234 224 222 217 214 219 215 187 191 206 215 226 236 242 226 222 225 213 232 244 256 313 340 414 410 379 373 371 405
223 222 222 221 220 222 215 226 216 215 213 215 215 216 217 223 227 205 185 184 201 208 214 225 233 240 217 224 217 221 229 243 252 311 358 437 412 378 369 384 441 429 483
217 226 222 217 213 216 217 216 214 210 209 222 216 189 185 184 183 200 209 210 221 225 235 240 206 222 214 216 227 243 256 312 355 441 416 378 373 405 465 402 416 558 307
231 221 216 216 212 224 191 194 190 193 192 191 189 195 203 206 210 210 227 241 246 203 199 225 214 212 222 247 263 318 355 447 419 392 367 353 350 343 365 380 377 368 404
234 229 227 194 193 192 190 191 187 192 201 204 210 203 221 246 244 234 215 191 199 216 215 214 200 248 310 324 452 459 401 397 381 355 332 338 328 321 321 321 325 343 354
183 187 197 199 198 198 196 209 209 210 201 229 234 227 224 217 203 198 189 204 207 200 217 281 318 456 551 460 364 376 389 367 334 354 331 319 312 307 306 307 306 306 308
210 211 210 209 210 211 212 203 196 197 234 226 226 217 212 205 200 205 211 199 220 230 318 625 579 410 372 367 394 367 347 327 370 329 315 307 305 303 304 361 361 358 362
217 215 212 213 211 198 194 228 244 233 226 225 212 209 207 205 204 208 209 231 289 355 571 549 467 416 402 372 339 330 342 344 329 314 307 302 345 349 345 344 346 291 363
212 198 194 195 206 231 228 238 235 227 222 204 203 214 203 207 208 215 240 273 333 361 356 342 341 336 321 330 339 334 312 336 314 304 300 306 349 339 337 344 360 348 319
195 208 219 230 226 220 232 247 234 217 202 204 212 204 211 148 221 242 280 318 259 376 338 323 349 342 330 321 331 316 358 323 306 297 291 348 335 339 340 345 316 312 300
227 227 226 223 222 224 238 243 233 220 211 212 204 212 210 227 247 256 305 328 391 352 325 315 307 336 321 326 324 309 364 317 303 293 298 338 333 332 354 319 301 293 305
227 229 224 218 215 226 239 243 234 209 216 202 219 213 217 242 258 293 313 330 378 341 319 306 295 326 321 324 314 230 358 316 297 292 299 334 325 342 321 299 289 299 288
230 226 223 222 223 235 242 226 217 212 215 210 221 229 243 264 266 301 310 331 366 334 313 297 286 281 294 302 309 221 347 317 295 289 293 335 321 341 298 291 303 288 290
225 224 221 225 227 229 220 212 215 180 119 227 226 242 250 267 286 295 316 339 358 328 309 295 292 306 268 306 312 286 300 335 296 284 290 343 325 316 293 286 293 287 289
223 223 223 227 232 163 198 216 199 213 223 230 240 249 261 278 303 301 311 391 350 321 306 294 290 314 265 264 263 308 297 345 300 283 288 337 331 306 293 289 291 282 280
225 225 225 231 199 202 201 202 222 219 238 240 248 253 275 285 294 305 310 386 342 315 301 293 286 288 257 311 260 300 304 329 320 284 288 330 339 305 287 292 293 295 261

GFSGL_2pvu_pres_060.txt.gz
Presure
217 195 173 235 235 236 235 235 232 226 224 220 213 219 229 155 234 236 240 231 231 227 228 228 205 226 245 242 237 230 224 215 225 226 233 229 215 226 228 239 239 232 229
254 263 266 272 264 168 271 270 265 258 253 250 249 251 246 247 242 238 227 216 214 221 244 227 240 240 231 227 235 217 216 231 218 228 224 213 227 230 239 228 226 249 247
293 294 302 302 290 295 292 286 279 275 269 267 258 204 245 233 230 231 238 246 243 242 245 256 236 226 224 223 222 221 234 216 214 217 212 219 228 236 226 235 244 219 224
323 356 335 344 311 311 293 294 285 292 283 286 265 258 255 249 210 125 247 239 235 222 213 211 213 225 229 223 237 238 221 223 208 212 221 227 230 227 244 231 215 204 199
182 396 374 364 402 376 413 395 371 277 277 230 175 282 270 263 245 126 123 171 257 209 218 205 177 200 212 216 205 202 206 223 230 225 235 229 237 235 199 196 194 221 239
347 367 353 341 337 340 348 390 366 366 347 266 254 252 250 259 243 238 237 146 233 236 240 249 252 245 209 212 214 206 232 231 234 235 233 232 192 195 202 224 253 252 223
324 357 327 319 319 317 322 323 313 314 302 306 315 315 289 260 252 261 237 226 256 245 245 254 251 243 234 235 248 244 233 231 232 223 190 198 208 225 256 257 224 229 238
313 342 322 324 318 305 303 295 301 303 301 297 292 285 273 266 263 183 259 250 241 242 209 241 245 244 241 235 228 227 232 200 202 205 215 226 250 238 226 228 242 253 257
268 278 283 282 283 280 270 267 270 268 256 249 238 245 243 241 246 265 245 247 249 245 247 241 229 227 227 225 225 185 193 207 214 228 256 223 225 228 241 250 256 275 432
225 265 262 262 262 258 261 247 244 242 243 239 239 237 238 248 239 228 235 245 225 221 225 224 226 223 189 186 199 207 220 250 253 208 227 229 243 249 255 273 433 397 424
227 232 221 231 233 242 253 247 247 240 227 240 245 246 221 219 222 225 226 224 220 209 203 191 188 199 219 236 250 239 210 212 226 227 239 245 253 326 427 393 384 363 353
226 231 228 227 229 234 223 220 225 226 225 224 223 226 218 211 207 202 199 196 191 200 205 250 246 236 224 216 203 216 220 228 234 242 300 405 409 395 391 365 352 341 333
234 231 235 224 227 233 238 234 229 208 202 198 197 190 188 189 192 207 207 207 236 230 223 215 216 212 203 212 222 222 236 306 446 438 382 409 394 365 365 341 331 323 319
242 232 228 202 199 194 195 196 195 196 196 196 208 212 207 204 199 222 226 224 220 215 213 212 209 213 223 221 235 452 423 393 383 410 384 357 347 354 335 323 314 368 367
198 184 199 197 208 208 204 204 201 202 207 204 203 199 202 232 225 224 223 214 214 213 207 208 221 224 233 309 378 433 412 399 376 350 340 367 346 330 321 309 364 364 371
219 217 215 209 204 209 208 215 211 203 199 200 214 235 231 227 225 220 207 210 211 210 204 222 222 237 395 367 337 333 344 334 347 340 360 338 324 314 314 358 352 369 349
223 221 220 220 217 208 198 199 201 217 217 227 244 236 231 228 207 205 210 213 212 211 229 216 422 387 357 345 348 351 348 341 327 352 332 320 309 303 349 354 356 329 317
222 219 209 192 193 204 215 222 226 226 227 237 244 237 213 210 211 207 211 188 205 222 243 333 397 362 335 323 345 335 345 325 348 333 318 308 297 346 344 352 321 305 304
205 192 193 210 221 222 228 221 227 227 222 239 245 241 221 205 211 186 205 210 229 283 314 355 377 344 322 314 332 336 337 313 352 268 307 299 327 336 351 333 304 295 300
194 204 225 223 231 228 231 222 214 220 236 242 227 219 215 213 212 213 220 229 276 310 319 387 362 330 312 296 293 337 335 308 230 316 303 292 343 339 357 303 291 297 302
196 213 233 232 227 230 222 222 225 228 228 219 213 213 217 211 214 226 262 261 300 309 320 390 351 321 308 301 285 332 323 305 216 314 300 290 338 344 313 292 294 296 293
200 212 221 228 226 224 220 224 222 231 225 210 209 213 215 224 218 254 263 288 302 307 332 381 341 313 302 306 291 320 292 282 342 318 298 292 340 346 298 295 292 291 293
209 216 218 220 226 227 225 225 225 217 210 210 213 213 233 249 251 260 282 300 293 310 328 372 333 308 297 297 291 306 320 235 314 345 296 293 335 345 293 291 292 282 268
208 213 225 226 225 223 225 223 204 210 193 194 220 235 244 250 260 276 293 273 298 313 391 364 327 307 293 286 288 269 317 325 294 341 298 292 321 343 292 291 295 265 265
210 216 226 226 226 226 204 204 204 185 210 225 237 249 238 261 278 293 256 294 307 304 394 353 321 305 290 284 295 240 212 324 293 335 302 290 327 357 291 300 280 265 275
211 226 234 234 232 208 204 184 201 215 232 236 249 253 253 281 282 256 269 305 306 329 389 342 315 303 287 283 313 239 208 336 296 332 307 291 327 346 294 299 265 273 277

GFSGL_2pvu_pres_063.txt.gz
Presure
221 220 225 224 225 225 232 234 228 223 230 145 227 222 215 212 210 216 216 216 217 221 230 201 223 227 234 233 229 223 230 235 245 234 244 242 231 231 235 227 236 223 225
230 231 234 231 237 240 266 285 280 286 276 269 264 259 251 245 239 194 237 235 227 230 227 228 236 235 234 224 232 233 240 232 249 255 238 197 237 239 239 245 222 226 228
130 290 266 278 294 299 301 305 303 303 299 295 291 283 280 277 269 256 251 252 245 242 245 237 228 225 227 232 235 235 153 233 146 211 215 218 216 222 207 209 222 240 245
293 269 275 281 347 346 338 356 304 298 297 294 296 291 282 276 269 267 253 236 234 232 175 134 122 122 193 186 254 239 229 222 237 217 220 229 227 225 235 232 240 245 234
262 254 333 351 408 422 394 386 374 398 428 463 435 325 277 279 280 245 252 252 231 258 259 257 247 242 230 231 175 243 236 240 248 247 257 249 249 241 245 248 236 231 208
261 278 377 359 353 346 344 343 353 365 315 338 423 397 351 315 267 277 256 256 266 260 255 265 264 231 230 215 238 238 260 246 258 252 255 257 248 238 226 243 216 224 233
242 264 349 338 321 306 295 300 298 293 282 288 279 310 279 315 323 293 243 234 229 233 237 245 247 242 242 244 240 257 250 251 247 234 234 230 213 213 218 229 240 233 234
239 246 253 302 307 305 309 306 311 289 277 283 267 260 280 295 287 284 283 278 273 265 263 257 252 249 253 255 255 226 229 227 228 230 225 210 220 238 249 230 218 235 243
230 221 228 245 288 267 271 264 264 264 264 260 260 257 264 266 268 269 264 263 263 260 269 234 224 221 223 221 224 223 219 201 212 215 250 240 228 213 225 232 243 251 269
227 220 231 227 228 239 242 232 240 240 260 260 260 257 260 227 229 225 225 229 224 225 219 219 211 214 211 196 195 198 240 243 234 227 222 216 232 231 242 250 282 412 412
235 224 227 225 225 224 240 234 238 238 240 239 235 235 232 226 223 221 219 218 214 212 205 192 199 204 218 224 229 230 229 225 220 228 229 231 244 251 348 423 399 384 370
237 230 239 240 239 233 227 221 218 216 215 215 215 212 209 200 196 192 195 199 204 207 216 224 226 227 228 227 219 218 225 225 224 224 238 252 364 402 385 367 367 366 350
240 241 213 210 214 216 214 210 191 195 197 215 217 206 200 213 210 206 202 212 227 227 226 224 223 221 209 212 215 228 228 233 236 255 363 345 332 360 377 360 345 333 342
219 217 201 188 200 219 222 215 217 221 217 214 210 207 203 206 228 232 235 233 229 225 221 224 219 198 205 219 234 228 235 271 361 347 359 361 386 366 348 333 320 368 371
215 217 223 224 223 220 216 212 204 202 203 210 227 221 221 231 244 241 233 228 227 225 213 198 192 211 186 235 225 293 367 349 335 348 350 377 355 338 327 315 360 371 343
217 210 217 218 222 214 199 194 208 215 222 222 226 230 226 235 237 239 236 233 218 222 215 210 220 200 227 263 393 360 339 327 321 349 335 353 334 323 313 347 363 341 317
223 224 224 227 201 194 199 216 228 221 224 220 219 224 218 232 238 227 228 224 207 214 218 221 215 300 328 360 374 344 323 309 296 337 329 343 323 306 314 348 342 312 306
230 233 224 200 194 201 221 220 226 226 228 227 223 225 226 233 225 220 209 214 213 189 217 227 303 310 323 396 356 330 312 312 293 329 324 338 293 300 346 358 307 304 305
241 237 203 199 194 211 229 238 227 233 225 221 226 222 225 228 227 218 212 217 194 221 281 292 299 311 336 382 343 320 303 312 324 327 314 335 307 294 343 325 303 292 301
232 213 200 194 204 203 214 226 232 231 228 226 226 227 224 219 217 222 215 141 260 267 295 290 278 314 332 372 334 313 295 309 321 257 309 317 299 313 348 302 297 296 301
208 207 206 201 202 204 215 223 225 227 227 225 227 225 215 208 216 209 227 254 261 287 313 263 311 306 394 362 328 307 293 301 326 341 236 339 293 319 349 295 296 293 276
210 208 204 206 202 206 208 217 231 228 226 229 228 215 211 212 214 234 262 273 291 300 275 287 303 305 394 353 322 305 287 292 269 332 301 343 294 322 340 294 300 277 273
212 213 212 206 207 207 206 222 234 239 232 231 210 211 205 218 242 262 264 293 298 265 266 302 308 318 388 343 318 303 286 305 233 216 301 342 296 327 301 300 283 270 280
217 223 208 208 206 211 214 233 238 232 221 216 202 207 220 231 255 274 286 297 261 261 286 308 316 389 378 336 313 298 286 303 222 340 298 341 298 331 300 306 275 268 279
203 200 201 206 214 216 215 229 238 223 225 205 212 222 245 253 272 281 301 253 267 264 300 314 319 409 361 327 309 293 289 243 261 357 302 344 301 333 300 290 271 279 293
214 222 216 216 217 211 224 224 222 214 206 215 228 237 247 267 292 264 255 253 266 252 308 314 352 399 351 320 302 289 295 236 332 334 308 349 307 342 293 280 272 285 277

GFSGL_2pvu_pres_066.txt.gz
Presure
217 214 214 220 222 215 194 223 223 224 101 222 230 225 223 223 223 221 219 218 222 221 214 214 215 216 222 190 221 219 220 225 225 222 234 242 234 229 227 246 242 237 215
219 221 223 223 112 231 180 231 234 236 242 250 249 258 260 255 251 250 250 248 241 240 239 238 233 229 229 229 227 228 227 230 235 237 237 229 228 253 246 244 255 243 242
124 257 261 142 270 292 292 281 295 306 295 294 295 293 288 297 296 284 268 269 262 254 239 234 239 238 235 239 243 244 237 233 124 128 229 222 251 249 241 238 242 237 235
255 261 272 293 270 271 272 290 349 384 368 358 274 287 316 320 309 293 276 271 253 253 258 262 258 243 239 237 237 228 223 232 238 258 252 221 244 237 239 240 243 253 253
297 281 256 262 252 329 369 355 364 377 354 350 343 379 438 418 389 405 360 328 270 252 251 253 243 243 243 239 247 250 265 259 251 246 245 240 238 241 248 263 257 240 232
249 251 261 245 252 251 322 327 311 306 302 306 310 295 321 337 402 362 356 336 305 286 285 254 253 251 251 236 256 259 253 253 258 248 247 243 246 259 237 233 226 203 210
253 251 249 238 241 264 262 335 290 288 291 296 293 289 281 283 292 295 304 316 320 311 307 286 292 242 250 243 245 252 252 258 267 246 275 266 231 220 205 218 245 241 233
243 248 238 237 239 240 242 242 246 268 284 282 282 285 286 286 282 281 278 280 280 279 276 264 255 256 269 268 279 253 232 229 228 225 218 205 222 234 234 234 227 233 218
252 241 235 221 227 228 245 224 225 226 245 252 250 256 241 245 247 246 248 255 257 268 275 253 242 233 230 229 227 223 219 215 198 224 230 235 235 233 230 238 218 228 237
238 229 219 234 239 238 233 236 235 235 237 235 234 232 235 232 236 236 233 232 230 229 227 224 221 218 214 214 218 196 229 229 232 232 192 230 221 237 223 228 243 251 266
218 217 231 244 238 240 222 216 210 206 206 213 222 219 218 221 219 217 218 216 214 211 211 195 201 220 224 227 227 228 228 229 223 230 226 233 230 234 244 256 351 372 390
238 237 235 248 234 206 210 211 205 184 184 191 226 216 202 209 212 219 219 224 229 228 228 231 232 231 230 228 226 226 220 233 227 222 233 239 243 318 360 358 384 371 356
248 255 230 213 215 211 188 219 224 221 221 211 212 214 223 227 224 222 228 229 236 239 238 234 230 229 227 218 233 230 224 231 227 232 262 366 353 342 352 368 354 339 334
246 212 219 217 212 223 225 229 224 214 202 208 225 225 225 228 223 232 220 230 236 237 235 233 232 232 233 230 214 220 222 240 371 378 357 341 329 311 358 343 329 322 358
217 214 212 217 228 223 229 222 209 201 217 225 230 226 230 225 219 219 223 223 233 229 225 199 221 217 217 178 227 271 323 323 383 353 334 319 312 319 357 332 317 334 365
214 220 223 217 224 233 213 208 199 215 221 225 227 226 223 226 225 223 226 223 227 230 233 228 222 222 126 290 313 283 313 341 364 334 318 308 340 297 345 322 307 357 325
216 223 219 232 234 216 210 202 203 206 229 233 229 228 228 222 224 226 229 230 230 227 219 214 224 286 309 304 271 311 318 393 351 319 304 303 321 316 334 307 327 354 312
226 233 232 237 238 219 206 195 202 203 211 219 221 219 226 227 223 224 230 228 224 216 219 230 272 303 286 268 288 319 313 380 340 309 293 302 274 314 330 302 337 310 299
234 239 236 234 238 207 200 207 207 205 205 209 216 230 228 229 230 230 226 218 206 214 230 265 293 288 271 270 273 323 371 367 329 305 288 290 325 323 328 299 345 303 294
237 248 248 247 216 212 211 209 207 210 206 205 210 227 242 237 228 217 219 220 217 228 267 295 287 263 271 261 286 315 400 354 319 300 283 309 339 326 324 302 350 300 302
257 259 241 215 217 215 215 212 215 206 206 208 211 220 234 229 225 225 216 220 229 264 290 293 255 264 254 267 297 315 393 346 312 296 282 251 263 329 307 317 314 302 284
228 183 208 214 215 216 219 216 211 212 211 214 211 223 226 219 216 219 226 232 250 283 291 254 253 261 276 277 318 400 381 336 309 288 307 239 245 335 304 335 302 285 275
235 232 208 225 228 213 216 224 219 221 210 217 215 224 215 216 219 226 246 271 296 303 247 260 252 261 267 282 319 410 366 325 304 285 307 228 316 335 302 344 294 281 273
235 235 194 228 204 216 208 206 214 216 214 216 220 207 217 221 230 251 268 299 308 243 250 271 256 268 281 309 334 399 350 317 297 294 242 212 325 341 310 326 295 274 272
248 239 234 244 228 220 216 224 226 224 223 214 207 217 225 229 256 277 320 318 238 243 264 261 267 278 314 333 418 381 336 309 290 305 241 260 316 347 325 313 284 276 300
231 233 242 244 243 234 245 226 232 225 219 230 217 226 229 252 266 301 320 239 237 258 289 263 276 296 360 457 402 355 322 300 290 326 239 346 322 342 332 307 285 296 281

GFSGL_2pvu_pres_069.txt.gz
Presure
238 244 228 222 223 222 216 217 146 214 148 222 225 228 232 231 231 235 235 231 231 242 248 246 243 236 237 229 230 224 225 221 220 223 222 215 216 204 230 229 135 250 238
220 219 216 215 221 228 231 224 228 229 236 238 248 275 287 285 290 280 275 272 265 259 256 255 250 242 239 239 236 231 233 231 226 226 224 173 233 239 246 228 128 136 231
221 222 226 236 267 274 267 268 280 288 305 296 297 344 322 317 282 275 286 285 285 276 278 277 275 271 263 256 249 241 244 240 239 239 234 240 246 248 235 219 245 253 248
255 260 257 253 251 250 246 265 270 264 268 279 344 338 335 354 399 397 386 375 332 301 275 266 257 240 235 254 254 251 251 247 243 244 241 244 243 243 235 242 252 254 253
256 257 253 261 261 271 263 264 261 248 304 318 290 303 307 301 289 350 370 438 426 405 391 374 325 299 258 249 245 230 233 242 228 233 249 250 257 252 253 248 246 240 259
258 255 259 272 271 265 249 240 259 242 268 271 276 303 306 315 308 302 301 304 311 319 327 320 322 317 301 288 288 302 246 245 251 234 243 247 247 262 262 254 253 253 235
276 259 263 257 245 253 254 249 243 236 241 227 263 253 253 253 270 298 297 293 288 289 289 278 304 292 285 288 286 287 279 277 271 237 261 261 248 238 234 228 216 218 237
263 252 258 251 248 250 256 238 229 239 246 233 238 232 233 235 251 255 254 257 259 259 263 271 273 274 277 276 275 267 260 250 244 241 232 230 219 212 218 235 247 229 235
265 254 260 244 242 250 237 238 251 240 224 211 205 201 203 206 215 231 224 234 234 231 231 233 238 238 239 240 236 235 232 214 209 205 231 239 241 242 238 241 247 231 234
229 252 249 239 242 239 225 247 249 214 204 201 216 219 227 222 223 235 209 207 198 215 200 239 238 238 235 234 236 237 237 235 238 238 234 236 238 248 246 188 234 243 261
250 254 243 240 237 225 236 247 208 205 192 228 218 225 209 214 234 233 234 230 229 233 227 231 239 237 235 236 236 236 236 234 234 233 224 222 226 228 239 273 380 366 353
252 244 236 243 222 261 253 230 215 192 218 234 225 208 222 229 230 229 229 226 222 222 219 223 218 225 227 227 227 228 229 226 220 186 225 232 292 347 393 365 347 329 330
232 233 244 251 253 271 242 215 214 225 224 228 210 205 224 226 230 230 228 227 227 225 220 215 223 224 224 230 233 227 159 222 234 318 293 282 344 387 357 337 325 315 358
249 250 245 212 222 222 213 215 226 220 228 213 197 209 225 233 229 228 229 230 227 224 225 227 227 235 234 229 210 220 232 310 315 274 281 341 398 362 335 321 306 360 343
236 223 216 215 205 211 216 225 223 228 225 210 205 203 208 215 217 225 227 228 230 228 225 227 234 236 228 218 229 239 311 269 274 274 299 359 377 337 319 312 295 336 329
219 223 220 216 216 215 223 215 237 236 216 207 201 204 204 210 206 212 218 226 229 237 237 236 229 207 230 233 243 313 261 269 288 280 319 394 354 322 306 301 282 354 319
217 208 213 215 221 225 242 226 223 230 214 208 206 204 207 205 208 212 212 221 230 232 228 231 230 232 237 301 313 258 260 264 279 290 323 383 337 316 299 290 335 354 311
205 212 217 220 231 230 236 238 244 215 213 209 213 212 204 209 212 211 211 218 227 230 228 229 232 244 307 305 255 257 255 271 274 306 340 376 329 310 290 288 338 345 305
238 227 214 229 234 229 246 250 230 221 212 207 209 222 209 214 210 218 215 220 218 221 230 234 246 317 310 255 250 273 263 277 282 314 376 365 324 305 285 284 326 346 311
226 224 236 249 237 251 252 231 209 197 209 218 221 223 219 217 208 215 217 217 217 226 233 250 326 297 245 241 262 261 268 275 301 316 398 351 319 296 299 234 347 347 321
211 271 249 252 245 192 226 225 221 223 232 212 212 206 223 219 231 221 217 219 223 234 237 317 277 245 240 242 289 265 272 294 322 331 384 336 312 288 317 276 333 315 330
211 250 226 243 241 238 235 236 238 194 209 213 213 216 207 226 236 222 229 226 233 237 281 338 256 242 238 286 272 269 287 322 355 395 360 323 301 299 231 316 343 303 340
240 238 239 237 239 236 236 234 220 232 240 235 224 247 235 229 218 227 227 233 235 263 349 267 247 239 263 295 267 284 338 437 436 378 336 314 293 327 213 311 352 321 323
232 228 225 222 220 232 233 242 239 213 214 215 229 233 220 217 225 228 233 233 246 307 309 253 239 247 297 266 284 395 475 444 399 351 319 300 298 237 346 324 321 335 307
237 229 222 232 228 233 237 232 228 226 227 226 227 228 230 228 227 230 233 242 288 330 257 238 271 284 284 277 432 483 459 420 366 325 308 294 326 217 296 342 311 335 291
232 237 234 232 228 226 223 217 230 225 229 231 229 242 254 224 229 234 241 276 336 260 254 278 282 287 271 317 452 482 441 383 335 312 291 317 250 324 311 349 330 322 275

GFSGL_2pvu_pres_072.txt.gz
Presure
182 196 204 196 198 206 217 241 208 237 233 220 221 227 236 241 282 272 355 323 313 303 296 287 278 274 267 263 254 251 247 245 241 244 236 224 229 228 224 219 221 218 224
223 224 226 246 241 246 254 244 243 231 225 225 226 238 276 263 301 289 326 324 373 313 302 295 286 272 267 287 272 264 259 254 242 236 239 239 232 236 240 238 237 237 230
224 237 258 257 247 236 229 232 227 220 232 235 252 254 280 278 271 331 324 323 325 375 390 373 365 342 340 305 260 248 268 261 243 247 236 246 251 234 252 246 250 250 243
233 230 232 222 230 235 223 219 228 235 266 263 277 271 254 267 246 272 277 287 306 319 338 419 390 366 343 331 305 303 285 249 237 235 237 233 230 235 237 233 229 239 255
228 204 230 227 219 220 229 253 261 269 271 267 268 255 255 243 261 277 268 256 262 271 308 307 346 330 320 343 346 328 314 287 272 264 260 257 247 246 262 254 253 248 251
229 221 217 229 230 258 269 273 279 272 264 259 256 253 241 240 230 217 207 218 226 232 252 267 278 296 298 296 292 293 293 298 284 276 276 279 279 278 279 280 274 268 262
227 226 250 260 263 273 260 267 268 263 266 263 245 243 242 223 210 193 225 241 221 205 209 211 236 245 254 255 253 254 255 261 262 265 258 254 253 252 252 253 251 242 235
252 251 248 242 261 279 265 260 256 254 253 253 236 252 240 215 204 230 226 209 233 245 243 245 242 245 227 217 246 217 218 221 223 221 225 223 235 235 238 244 248 247 234
238 239 253 280 271 259 252 248 251 248 249 235 250 244 214 194 232 225 204 245 242 242 242 238 241 237 233 232 235 236 236 237 236 236 235 237 236 234 234 229 224 228 238
262 269 269 251 250 248 236 259 251 249 232 238 248 208 195 230 225 205 233 237 239 239 236 236 233 229 225 221 223 231 231 230 232 233 234 217 215 215 216 229 241 268 314
263 250 242 241 239 255 261 250 244 237 228 239 236 212 228 230 218 206 232 237 236 236 236 235 232 231 233 232 231 229 229 236 237 232 213 221 226 241 301 334 293 276 319
240 252 268 269 263 256 252 246 226 254 280 270 217 228 227 230 206 201 209 216 216 220 230 231 230 230 230 234 238 240 233 230 233 237 238 243 305 332 267 260 281 406 374
251 259 263 260 252 251 230 255 251 250 221 214 227 226 227 231 202 199 204 212 212 214 216 215 218 237 235 238 240 235 236 235 241 257 309 337 283 251 268 297 396 377 348
240 243 245 252 253 251 240 231 219 212 216 222 231 227 238 217 211 205 210 211 207 213 213 220 216 224 226 220 225 239 240 254 316 316 315 249 285 256 289 329 399 354 326
241 246 244 247 243 223 216 213 211 216 217 222 226 234 236 221 208 211 214 209 209 218 216 216 221 225 221 227 235 248 294 331 309 249 243 279 261 281 315 332 391 342 312
236 243 249 217 225 213 213 216 216 221 227 234 236 235 243 219 207 212 208 221 210 221 215 216 222 225 227 231 248 258 306 264 239 238 294 267 271 291 326 331 383 332 305
238 217 255 259 213 208 211 216 223 231 233 231 240 254 228 220 208 198 222 224 221 217 217 228 234 226 244 242 247 347 274 241 239 247 287 270 279 304 322 331 369 326 298
238 213 213 205 207 224 229 220 231 234 232 237 246 227 204 207 225 220 210 215 216 215 227 231 225 232 234 248 294 302 262 243 243 298 269 274 287 320 328 369 356 321 292
227 203 217 227 237 225 227 241 237 238 249 222 231 194 211 214 208 224 210 224 227 237 230 222 233 232 250 258 319 279 254 253 289 269 270 293 330 337 361 373 337 296 302
217 240 238 226 219 209 250 242 250 248 236 220 199 236 243 194 243 242 225 217 233 225 221 230 234 246 255 340 286 264 261 284 283 267 330 356 376 413 383 348 327 293 320
238 230 228 227 207 202 247 242 247 242 244 243 243 244 248 251 213 219 226 229 230 221 230 235 242 251 330 275 256 290 291 291 274 367 375 449 431 396 358 328 295 249 256
233 232 226 218 210 238 241 238 222 219 223 225 227 226 227 230 233 233 230 232 236 255 230 239 243 264 296 254 285 287 296 269 353 408 485 439 404 361 329 303 302 222 331
243 247 240 236 234 236 230 225 227 225 226 236 229 217 217 234 227 227 237 239 236 234 237 241 250 313 248 268 299 297 267 293 370 501 452 415 369 331 309 301 237 356 331
235 244 237 240 238 238 235 236 239 233 224 224 223 224 246 245 242 248 254 258 237 237 241 248 274 294 266 280 279 277 278 336 499 468 427 371 331 304 307 303 296 302 346
245 226 225 224 218 209 212 218 219 223 224 222 217 222 244 260 250 240 258 244 238 240 247 258 310 264 254 271 286 270 290 383 484 446 365 324 298 329 332 222 317 329 345
217 218 216 220 223 222 220 222 218 223 219 234 227 231 251 257 259 258 240 236 242 250 262 320 246 257 281 273 265 276 298 380 441 356 322 293 317 323 314 244 302 343 323

GFSGL_2pvu_pres_075.txt.gz
Presure
182 183 186 187 188 191 194 200 195 187 190 200 223 227 207 243 247 234 239 240 272 290 282 292 251 251 354 393 376 352 376 303 287 254 232 235 238 237 235 237 232 230 219
195 195 193 191 192 196 197 195 202 220 226 228 236 250 237 232 228 82 210 274 284 276 256 245 236 224 227 420 362 351 377 351 350 286 283 252 244 225 232 236 230 230 233
206 204 202 202 200 213 224 228 233 227 228 242 239 233 233 233 231 243 282 272 266 250 241 225 216 255 252 235 404 357 364 345 323 329 312 274 268 253 242 224 229 247 234
226 231 238 241 258 246 240 241 242 250 242 231 227 229 224 237 285 279 270 264 250 240 226 224 229 218 259 248 221 334 343 350 322 303 295 310 301 278 266 259 248 244 241
245 247 248 254 244 244 239 246 243 240 232 229 225 229 269 276 269 259 264 253 247 236 223 234 220 251 254 251 265 226 275 276 283 294 305 313 303 293 284 284 288 290 295
235 236 235 244 247 234 249 231 235 229 222 234 240 264 279 266 256 264 251 257 243 217 206 219 255 254 253 247 245 246 250 253 260 249 240 243 251 254 254 254 255 256 256
251 251 249 245 228 232 229 223 222 230 234 262 254 276 268 255 253 250 236 248 223 197 229 242 250 246 249 249 243 242 246 240 240 237 235 235 241 236 233 239 240 239 241
225 224 221 224 229 227 225 233 240 259 246 285 266 259 255 255 252 232 252 227 197 238 214 247 239 232 244 247 250 245 242 241 241 238 237 236 235 232 228 227 226 226 227
232 236 237 239 239 250 255 252 246 251 280 265 252 241 263 250 232 240 231 210 232 230 211 205 222 220 225 227 228 234 238 240 239 236 238 232 230 230 229 227 226 226 231
253 252 251 248 251 246 246 245 275 264 251 245 249 269 244 230 244 263 220 228 237 216 211 206 212 217 218 218 227 221 230 227 227 224 233 238 243 243 260 274 313 316 333
245 239 243 240 240 245 269 262 244 240 245 265 266 233 261 278 269 220 225 229 236 215 204 204 215 217 215 224 224 225 228 229 226 230 232 243 276 335 328 320 297 254 254
244 244 238 252 269 260 241 248 274 270 264 261 246 256 251 223 213 210 230 236 238 222 207 211 224 223 217 222 227 225 232 231 235 235 241 252 332 275 248 242 242 257 285
250 255 269 252 240 262 265 270 266 260 233 254 244 220 217 215 225 227 231 241 231 221 210 215 216 227 224 238 226 231 241 229 235 244 248 308 295 271 253 238 245 288 264
264 248 240 240 245 249 251 248 251 250 238 216 220 213 221 224 229 240 242 248 238 216 212 211 215 218 236 220 222 243 227 238 237 255 306 303 283 252 240 252 297 271 270
234 244 235 243 241 241 251 241 236 221 218 217 218 219 228 237 236 238 241 256 223 215 216 224 216 218 218 239 239 231 235 237 255 339 307 283 269 260 275 293 271 269 301
244 232 231 235 239 235 242 221 229 212 211 213 216 228 226 236 238 242 248 231 198 219 226 204 217 238 232 234 231 239 235 244 269 295 261 268 296 296 294 266 277 330 333
230 232 238 228 236 229 220 217 217 206 210 232 220 236 241 241 253 252 200 196 227 214 245 247 236 228 234 232 237 238 240 256 306 269 272 301 285 298 266 312 350 360 367
234 250 246 245 242 224 209 210 205 206 229 221 239 255 256 251 236 231 235 245 249 252 232 223 234 240 237 237 255 241 249 267 302 268 293 288 263 274 367 365 357 410 376
249 247 243 237 203 237 207 204 240 230 216 228 225 238 227 228 243 250 241 235 233 235 238 241 239 237 244 259 243 248 262 320 276 277 279 274 277 383 379 449 435 413 377
240 234 232 226 224 205 237 250 228 222 208 202 245 246 243 238 232 237 225 226 223 243 254 255 251 258 275 249 247 262 281 301 259 280 308 277 388 511 485 443 416 376 350
232 235 238 239 239 235 228 243 221 219 213 209 234 223 217 235 234 222 223 221 223 250 267 252 240 255 239 251 266 282 316 258 292 288 275 341 518 488 449 416 374 346 320
238 235 225 224 230 238 233 221 225 233 236 239 235 232 233 225 220 220 222 221 229 245 254 260 271 231 251 263 303 239 260 282 299 304 282 448 491 453 412 358 326 303 310
237 232 238 233 231 235 244 247 245 239 238 231 224 218 212 216 222 221 236 227 235 251 264 272 232 247 254 269 261 257 285 292 289 270 291 409 435 341 312 298 330 332 239
249 250 251 247 246 245 237 226 223 222 218 212 219 220 214 220 224 224 236 233 245 266 272 236 243 253 260 279 243 274 291 273 291 275 297 373 351 323 300 332 323 326 251
222 224 223 221 221 217 216 213 213 217 216 217 228 227 228 218 225 234 232 240 255 272 272 243 247 253 263 280 268 288 265 289 291 276 355 360 359 335 311 308 327 218 339
225 225 224 227 227 230 228 229 221 220 231 225 225 228 232 227 233 236 232 246 263 275 274 246 254 257 274 268 275 284 294 295 283 277 372 353 346 353 332 299 312 317 321

GFSGL_2pvu_pres_078.txt.gz
Presure
189 186 189 189 187 181 184 182 177 183 176 177 177 183 187 191 192 199 231 258 252 246 242 239 261 275 267 257 251 247 243 273 284 389 258 354 332 313 282 274 257 251 238
200 198 194 189 189 185 187 179 184 190 184 190 190 195 200 201 207 247 253 250 236 238 238 257 278 270 262 258 246 235 229 268 265 275 387 369 396 365 304 289 279 263 252
245 236 213 196 201 201 197 193 195 183 194 224 233 219 214 253 253 250 244 242 237 238 246 281 269 260 257 247 228 229 262 268 258 251 265 331 338 338 343 313 288 286 264
250 245 244 240 233 232 232 234 227 231 228 221 231 255 252 250 245 240 236 233 236 270 280 264 267 247 249 228 240 258 255 257 261 253 268 255 250 252 253 293 331 331 339
259 250 242 236 235 236 236 237 237 239 258 254 242 252 242 230 236 228 234 236 276 269 264 258 249 255 237 240 224 232 224 226 237 242 251 256 260 255 245 232 246 244 243
287 273 258 263 275 260 261 256 260 247 253 239 242 233 230 234 231 233 238 262 278 257 265 256 239 241 216 240 214 212 206 230 227 225 232 234 238 238 240 241 236 237 236
274 268 249 259 256 241 259 241 252 240 236 235 230 223 227 235 235 262 257 270 250 265 253 233 247 218 228 233 218 210 206 227 222 225 226 231 237 231 224 234 236 240 242
248 260 245 268 242 237 245 245 236 228 226 221 225 229 235 245 254 284 259 242 267 253 233 246 231 224 240 230 217 210 216 228 225 220 228 235 247 237 239 236 245 247 251
248 260 237 247 232 226 242 234 226 220 230 225 240 257 251 254 273 247 245 268 244 267 280 230 226 225 239 230 220 212 217 222 232 230 228 244 242 234 241 239 249 256 340
244 234 245 230 229 230 223 234 227 231 251 253 245 244 279 252 247 263 271 242 267 237 225 218 235 237 249 230 217 213 218 221 223 243 233 244 231 236 239 250 351 350 301
240 241 238 241 241 235 236 243 258 246 252 245 277 256 245 258 275 263 249 254 225 221 219 232 234 239 239 233 219 221 220 224 220 219 247 237 234 241 240 325 271 262 274
269 262 256 252 250 258 252 241 245 247 269 260 251 273 272 266 245 253 237 220 217 222 232 241 233 235 246 228 218 225 234 243 247 243 243 238 242 238 254 305 268 263 294
246 244 248 247 243 241 240 247 266 260 249 252 250 252 253 249 240 224 219 220 228 234 231 235 257 249 236 200 222 209 257 248 234 246 234 244 237 245 297 298 266 285 308
243 247 248 237 243 255 270 258 240 248 250 251 248 241 238 226 220 221 218 222 227 233 237 242 243 236 202 233 235 252 236 244 246 243 239 248 246 276 313 268 278 278 291
256 252 252 257 265 256 236 235 245 239 236 244 241 227 225 218 214 220 227 234 238 238 256 244 232 236 254 249 242 246 243 252 254 267 264 243 284 320 269 289 287 303 276
249 261 259 249 234 232 240 234 230 233 233 230 209 224 216 210 217 237 231 252 255 246 238 234 248 245 228 236 235 261 265 249 266 244 268 336 286 262 297 289 302 276 299
252 240 230 233 233 237 230 234 229 235 232 217 212 217 207 206 231 225 248 247 242 230 244 242 236 231 226 227 250 258 252 271 255 242 280 251 265 286 299 294 284 402 439
224 225 239 230 235 236 237 246 244 242 235 206 214 200 233 233 221 246 210 244 239 219 220 233 227 229 226 228 261 265 276 252 242 273 274 260 291 284 307 281 494 494 474
233 232 237 239 280 289 250 247 242 225 213 247 221 231 230 247 220 214 237 223 224 235 229 226 228 228 236 233 268 281 279 241 258 269 264 274 299 294 277 346 520 494 455
230 238 235 271 248 239 230 234 227 223 218 229 232 234 224 220 225 233 228 237 227 228 221 221 219 235 237 254 274 281 238 248 261 280 253 285 291 302 282 383 339 320 348
232 238 252 250 241 239 240 237 240 252 234 233 231 228 229 234 242 237 227 226 204 221 224 224 223 235 245 263 281 276 251 260 266 279 276 286 293 314 290 371 348 311 345
233 238 253 249 227 238 238 233 225 237 245 246 247 252 241 235 226 223 214 217 223 231 230 225 234 239 253 260 280 241 253 261 269 289 276 285 290 310 289 360 353 327 309
240 240 248 249 236 237 234 232 236 233 240 240 228 227 222 218 214 214 222 222 228 230 227 233 242 247 261 276 280 253 261 265 253 276 288 304 290 306 281 322 341 347 320
245 250 253 246 243 247 251 254 251 239 226 221 217 215 212 217 215 222 225 222 232 227 238 241 246 254 260 285 245 258 263 274 272 248 313 305 308 305 277 310 305 328 344
221 222 220 219 220 218 219 223 223 225 222 220 223 225 225 218 216 225 219 224 229 231 244 245 247 256 281 269 258 265 273 272 279 316 325 307 292 297 278 300 329 295 327
214 211 211 217 220 220 221 218 216 221 223 225 227 232 228 227 230 229 231 233 227 246 244 245 254 276 272 259 266 268 274 288 275 300 315 302 305 293 279 299 355 320 301

GFSGL_2pvu_pres_081.txt.gz
Presure
206 197 195 198 197 191 186 187 190 188 184 180 180 183 182 182 182 179 183 187 193 197 215 229 252 243 230 236 238 278 267 263 259 245 232 236 219 215 286 272 321 290 290
218 196 200 203 189 187 198 196 188 182 182 184 183 185 189 191 190 188 196 193 233 233 244 253 243 241 233 240 282 269 263 254 256 233 234 219 206 232 225 252 263 246 342
182 182 185 177 206 199 194 192 194 197 200 196 191 191 193 189 207 234 231 152 238 251 252 240 236 236 239 278 271 261 262 249 243 225 234 213 211 217 225 239 248 241 240
233 199 198 188 182 186 238 220 234 204 200 207 217 242 246 233 233 242 178 259 248 243 237 230 235 237 272 268 261 261 253 249 228 234 225 218 206 227 232 226 245 262 250
297 298 298 300 287 260 272 270 260 252 249 249 244 238 236 263 257 240 249 245 236 233 228 231 238 269 264 257 262 254 236 246 218 240 231 222 217 225 237 235 228 254 241
291 288 291 287 281 286 285 277 278 267 261 266 268 262 261 253 249 242 241 236 225 230 233 243 266 264 244 263 252 242 258 220 228 246 231 226 218 224 231 236 226 241 240
276 279 284 276 272 274 273 280 276 245 249 263 252 244 255 245 239 233 233 222 226 231 246 266 256 249 263 252 283 260 219 236 242 247 235 230 228 232 228 226 243 249 249
284 289 284 265 259 257 265 255 248 262 260 247 249 239 246 241 231 219 234 224 233 255 266 247 261 263 252 265 227 226 232 241 239 237 241 223 227 239 250 248 251 249 248
260 255 274 263 257 246 260 250 256 255 258 239 243 228 239 224 226 224 228 251 249 273 244 282 263 251 254 228 222 224 242 238 237 244 234 215 226 252 246 240 250 238 267
270 259 258 260 268 254 263 260 246 236 250 234 221 230 232 225 224 241 241 256 257 279 276 257 251 245 225 215 221 234 237 257 246 199 216 243 251 247 262 251 263 285 262
270 261 261 264 257 247 245 230 242 246 225 229 223 226 226 239 244 251 265 258 273 264 253 249 235 212 215 222 232 238 256 249 238 243 253 247 261 258 263 256 267 249 326
257 249 252 250 244 244 237 234 229 226 227 236 249 250 239 246 265 246 251 253 260 252 241 214 218 220 227 236 239 254 244 241 248 238 234 245 274 258 260 269 245 280 266
284 268 259 249 249 258 262 260 253 256 253 245 241 244 268 248 250 253 251 249 242 220 221 216 218 219 228 238 248 240 243 231 222 233 234 251 269 272 289 242 292 268 287
249 249 251 249 248 249 248 242 244 242 238 245 265 250 239 239 236 246 247 230 223 215 211 223 220 242 252 243 241 242 218 229 237 233 236 276 283 274 243 266 282 269 308
243 245 246 244 241 244 238 234 239 244 261 256 237 232 239 237 238 237 229 224 217 206 210 224 222 222 245 241 230 218 234 236 229 237 250 278 283 243 248 283 267 294 297
263 261 259 254 251 249 246 245 259 258 236 232 236 230 223 234 234 226 213 218 211 221 228 216 208 224 234 224 241 232 232 226 227 237 286 285 265 251 266 291 278 301 323
246 240 243 240 238 243 261 251 234 229 230 233 227 231 238 240 238 222 207 209 204 207 244 220 237 229 224 233 231 208 230 224 231 240 286 289 243 259 281 277 294 301 306
238 244 251 258 257 245 233 230 235 224 230 237 236 248 241 239 226 242 211 218 233 221 225 225 229 233 232 220 216 229 230 227 240 267 287 262 250 268 278 275 309 309 302
265 261 250 237 227 226 235 230 237 267 310 250 245 239 235 229 226 212 230 228 227 227 232 238 232 222 210 225 230 233 226 234 259 278 283 251 259 275 285 289 324 304 303
252 235 225 224 228 230 237 237 270 250 245 237 230 234 227 239 234 235 234 241 237 231 234 226 216 209 226 224 232 226 240 247 264 279 276 253 270 282 276 302 328 307 312
227 227 227 228 232 231 239 248 250 238 234 232 231 244 235 229 244 245 252 240 228 228 214 220 217 225 222 223 223 230 246 259 271 277 250 260 277 280 285 303 318 317 300
228 235 234 235 235 233 240 241 253 237 228 234 235 228 244 229 237 234 225 226 219 220 217 221 222 223 220 227 231 245 254 259 278 263 261 272 288 302 299 306 323 314 298
231 238 233 236 234 235 241 242 251 245 239 239 249 256 255 240 219 214 218 221 217 221 225 226 225 225 231 231 243 244 259 270 277 262 275 281 301 304 328 307 322 301 294
234 236 234 236 235 244 245 246 252 250 229 220 218 219 220 221 216 217 219 221 222 227 232 230 229 236 232 242 242 255 264 281 260 277 288 304 301 320 338 326 322 311 312
233 225 223 219 222 221 221 221 221 222 223 221 220 217 217 220 222 219 218 218 222 231 232 237 234 235 241 243 254 265 281 258 279 273 303 296 318 340 338 330 322 309 314
218 224 222 220 211 218 212 211 214 215 213 213 218 223 218 215 215 220 225 225 228 233 240 233 236 241 243 254 266 279 256 275 284 310 296 307 329 348 344 340 313 317 301

GFSGL_2pvu_pres_084.txt.gz
Presure
210 186 188 189 170 174 180 182 181 181 178 180 186 183 179 176 180 189 181 182 188 190 185 193 190 190 223 253 238 248 244 242 237 276 269 276 267 247 241 224 242 219 217
173 176 177 180 183 184 163 151 151 143 184 146 188 188 188 191 183 191 197 192 186 196 199 231 231 210 258 238 194 244 235 240 238 276 273 271 250 253 231 226 243 227 219
192 163 162 164 168 164 188 186 193 186 184 185 189 153 173 199 196 195 184 189 234 230 245 239 147 247 249 243 244 236 234 239 276 260 273 281 268 241 229 236 243 232 223
208 190 196 179 175 178 182 177 182 187 191 196 175 164 175 211 169 177 203 203 256 248 264 253 241 244 240 245 236 230 234 274 263 278 286 263 236 227 234 253 242 243 228
266 215 207 204 201 194 192 184 185 184 181 181 185 183 175 192 260 272 267 259 266 253 247 242 240 237 242 230 229 235 267 262 275 266 253 230 222 235 245 248 250 238 222
308 287 279 238 216 211 207 205 203 228 194 258 194 191 282 266 265 249 263 249 259 250 243 245 237 231 231 227 241 256 257 278 262 259 233 220 230 242 248 256 246 222 246
281 284 304 319 315 299 287 272 258 257 286 284 273 248 256 257 268 263 249 244 245 244 240 240 231 226 230 243 258 256 274 260 257 233 216 231 241 254 242 242 246 253 241
300 270 270 276 301 296 296 282 296 281 265 270 262 270 262 257 240 245 248 245 247 231 227 234 227 230 251 262 258 264 258 251 229 217 228 241 252 247 240 247 238 229 238
302 274 287 271 291 298 278 290 282 274 269 267 252 255 243 248 250 247 247 242 226 225 228 223 237 253 263 267 266 256 245 218 228 229 242 256 246 248 240 234 234 246 255
278 294 284 289 274 271 263 248 269 246 259 253 236 245 262 259 239 250 231 227 222 227 230 247 246 260 253 258 256 235 217 218 227 239 248 244 247 234 231 246 245 247 284
270 259 264 305 255 284 270 253 261 248 251 262 263 251 236 237 237 227 223 226 226 248 240 258 248 253 250 246 217 222 216 230 254 250 232 241 229 231 229 237 247 286 296
270 275 285 288 285 285 277 280 271 262 252 250 243 244 228 235 227 226 228 244 246 247 254 246 247 250 240 219 212 212 232 230 212 248 235 227 235 220 227 233 247 292 288
279 274 264 267 266 263 250 249 246 249 238 245 240 226 235 250 249 247 242 240 261 245 236 231 242 251 219 239 211 231 228 215 243 228 228 233 215 223 240 239 243 290 267
281 275 261 261 254 249 246 240 243 239 240 238 249 250 241 237 244 238 252 247 242 235 237 239 234 215 218 213 220 228 243 236 228 236 229 216 228 239 236 242 289 274 253
259 264 266 268 271 267 260 258 256 251 249 245 238 239 235 237 245 259 241 235 236 227 235 238 225 215 212 215 217 220 234 227 233 229 217 229 237 230 232 264 282 259 263
246 245 241 242 240 239 237 238 244 245 241 247 244 242 243 256 245 237 236 233 228 239 240 236 243 237 202 226 223 230 229 231 223 215 227 226 227 238 249 284 271 258 265
266 252 240 239 241 247 257 259 256 248 243 235 242 256 245 235 229 231 230 237 249 239 238 236 237 203 226 230 227 232 229 217 217 228 227 220 229 239 250 278 257 266 289
264 263 262 258 253 243 239 239 236 236 244 255 241 231 233 230 233 242 251 248 238 234 233 219 223 233 235 237 230 228 214 224 222 227 228 229 233 245 283 268 263 284 305
244 246 239 241 241 237 238 251 255 251 236 230 233 236 261 303 286 242 237 234 229 233 232 234 243 249 235 227 220 216 221 224 228 227 228 231 244 268 280 260 285 296 312
248 248 243 237 240 261 260 249 240 224 233 229 239 260 258 250 240 238 236 240 234 229 244 241 233 226 220 217 218 222 225 230 226 229 236 245 264 280 265 277 285 315 301
250 259 268 277 270 252 240 225 226 234 229 238 239 254 242 232 233 233 228 227 237 232 243 227 216 222 218 219 220 227 225 232 237 236 248 259 276 283 273 288 312 304 297
276 276 270 261 239 229 228 230 234 230 232 236 238 248 247 229 233 238 246 255 246 224 216 220 220 219 218 218 222 226 235 242 238 248 255 271 286 274 281 293 299 304 317
266 258 246 232 226 229 231 233 232 230 229 233 240 243 246 244 246 223 218 219 218 217 218 221 217 213 219 225 228 239 236 244 249 253 266 283 264 278 287 306 304 297 321
239 241 230 232 236 232 233 238 233 232 232 235 238 243 223 216 217 223 221 216 217 222 217 209 216 223 228 233 232 238 250 248 252 260 279 267 279 286 303 311 280 333 343
245 243 242 232 238 234 233 231 231 216 223 219 218 214 215 217 215 215 213 220 213 214 219 218 228 226 222 232 240 244 246 251 261 278 265 268 273 308 322 290 339 343 341
247 251 232 236 236 238 237 225 227 222 215 212 213 211 212 214 213 212 212 216 218 218 217 229 223 226 230 241 243 247 251 261 277 270 281 274 311 331 289 349 341 335 312

GFSGL_2pvu_pres_087.txt.gz
Presure
219 217 193 188 204 188 185 185 177 179 162 169 167 173 169 183 179 172 143 179 180 179 173 180 191 184 194 188 179 178 204 232 251 236 246 246 240 241 275 280 279 251 237
204 235 211 196 186 213 180 178 180 193 189 178 180 176 176 188 185 170 160 183 146 181 188 156 183 169 171 172 187 251 253 250 240 242 246 236 240 279 286 274 254 237 231
226 220 228 208 193 191 187 230 164 179 193 192 176 173 167 181 178 179 172 179 188 187 157 177 175 182 186 192 244 250 249 242 241 245 233 238 267 272 273 260 241 225 227
284 256 209 194 198 193 196 198 196 185 178 199 240 188 165 163 170 189 176 177 180 178 181 176 191 223 191 236 248 238 237 238 245 235 239 258 281 272 260 243 220 230 239
289 286 281 233 207 198 205 219 189 177 188 184 174 182 186 173 173 177 181 180 181 184 189 200 237 247 253 250 239 241 241 239 236 237 260 287 271 255 244 218 228 242 259
276 280 289 300 299 275 211 208 200 192 190 171 188 184 183 174 190 201 191 192 196 243 259 245 264 253 237 247 239 252 233 234 245 262 265 271 255 238 220 226 241 255 245
285 288 287 289 291 288 283 285 258 252 246 217 214 224 202 217 220 272 282 275 255 239 253 256 250 241 245 250 235 231 233 242 252 274 262 258 231 218 224 251 251 242 247
311 303 264 261 341 355 303 319 308 315 305 283 272 299 278 292 287 259 253 241 254 261 252 241 247 242 252 240 226 232 239 250 262 259 256 229 220 214 236 249 240 243 235
338 335 309 327 299 259 233 262 300 299 306 259 252 287 274 255 264 249 242 261 255 252 242 252 253 250 232 235 225 237 253 260 255 252 228 222 214 230 227 224 237 239 234
340 330 337 298 289 336 287 326 275 298 278 246 245 268 276 272 266 259 251 248 240 261 253 249 238 225 233 229 249 254 247 240 255 235 228 211 239 229 225 237 241 231 228
266 313 303 323 316 286 215 196 268 250 254 241 247 263 253 259 244 247 237 264 246 238 234 222 230 230 240 251 261 244 235 241 243 245 220 235 230 230 235 237 229 222 235
287 286 286 292 281 292 269 284 271 267 251 262 269 265 251 250 249 247 253 247 241 231 230 231 247 243 241 256 243 237 237 240 221 219 224 228 223 241 237 229 217 234 234
276 294 269 285 279 273 275 294 279 281 286 276 272 277 276 257 253 238 239 238 230 234 252 239 249 239 250 239 237 227 239 237 209 239 206 229 241 237 227 216 229 233 234
281 286 275 275 272 273 278 272 262 262 268 261 251 250 260 239 240 237 232 237 252 247 243 233 254 244 235 233 226 232 242 233 238 210 232 237 236 222 225 226 230 238 239
273 269 273 282 288 270 275 263 259 254 251 243 244 238 246 249 252 252 248 240 241 243 249 254 239 235 232 229 244 241 238 225 219 232 240 234 221 222 225 230 235 238 237
262 262 260 262 266 271 272 273 272 267 265 263 260 259 248 240 243 239 245 244 243 254 242 233 234 231 238 243 238 235 218 230 239 240 230 217 224 226 228 235 231 230 244
249 249 247 251 249 250 249 250 248 250 247 239 238 238 246 250 248 244 239 253 242 233 234 231 239 284 238 232 227 229 232 250 236 222 218 222 227 225 233 237 229 239 274
248 255 253 259 251 246 244 242 240 239 239 245 255 254 248 242 239 249 238 231 233 239 252 289 240 230 229 235 229 233 244 227 217 218 221 220 221 233 237 238 240 263 285
259 249 265 263 263 266 264 265 260 256 247 240 240 237 239 252 237 230 234 250 263 255 245 237 234 236 227 230 230 233 223 218 217 219 216 222 231 230 246 249 261 281 277
259 260 260 251 250 247 240 240 241 238 238 232 245 258 243 227 226 227 251 251 246 239 235 231 228 228 233 242 236 217 217 217 214 217 225 229 230 241 251 257 276 281 282
266 252 252 250 247 241 239 244 244 236 236 262 253 237 223 232 229 233 242 251 239 229 227 235 243 253 232 220 219 216 217 213 218 225 226 229 244 246 257 271 284 283 280
259 255 252 250 248 248 244 249 257 269 265 249 231 228 225 229 230 237 238 245 243 239 240 232 218 221 219 216 216 212 216 216 225 224 230 241 243 255 267 280 281 286 309
260 257 256 254 256 262 271 274 275 262 247 228 232 232 229 229 229 231 238 238 248 237 217 219 217 214 217 211 214 215 208 227 224 231 237 242 253 263 274 279 286 294 312
269 271 271 270 273 269 267 265 255 232 225 233 233 227 228 229 228 233 231 219 215 216 218 214 210 209 211 217 214 210 227 224 231 233 241 249 259 270 280 277 286 301 340
231 232 261 267 262 256 250 242 238 223 235 233 233 236 235 220 221 222 221 216 214 215 212 210 210 205 218 210 213 226 227 227 234 242 244 256 272 278 268 283 303 305 332
238 253 246 239 238 242 243 241 230 230 230 234 229 230 224 219 220 218 216 216 214 215 214 204 209 216 215 211 223 231 227 244 240 242 252 275 278 271 274 288 302 350 342

GFSGL_2pvu_pres_090.txt.gz
Presure
181 171 161 207 205 203 199 199 199 192 186 176 184 173 176 184 182 183 171 163 174 171 169 171 179 168 147 173 170 173 185 175 177 171 190 205 243 242 253 245 238 264 277
193 191 194 178 174 214 211 209 200 202 197 190 191 168 177 182 181 184 180 178 175 185 175 183 189 159 185 172 168 175 180 180 190 190 200 242 244 247 245 235 246 263 273
204 202 202 192 189 186 175 171 196 205 206 207 204 176 189 176 175 196 169 175 180 166 181 170 161 179 171 173 179 182 183 194 193 236 246 246 247 249 234 239 270 259 263
226 220 212 206 202 189 193 190 182 164 190 203 217 214 200 178 180 191 188 184 174 168 184 182 172 182 185 178 182 192 196 202 245 250 247 241 248 231 237 262 274 270 242
295 264 255 238 250 210 207 211 203 182 192 193 194 225 212 198 170 156 196 195 177 190 190 177 172 182 185 193 188 195 251 242 251 237 239 246 243 238 244 268 260 246 224
319 286 316 255 254 242 240 152 234 213 196 220 212 207 214 215 215 186 194 210 202 198 204 185 193 195 197 204 265 254 245 249 245 238 248 238 235 233 267 258 251 226 222
294 315 308 345 303 293 291 284 282 282 285 258 230 216 209 208 206 194 196 203 198 190 195 200 238 271 263 261 244 259 251 244 242 251 238 230 237 262 245 259 231 231 212
322 320 283 296 399 323 279 290 265 269 271 273 277 275 260 260 211 254 261 271 263 286 284 285 264 259 252 244 253 246 235 249 231 233 231 244 262 250 239 242 229 224 232
293 300 330 305 288 287 331 335 314 268 274 276 285 278 282 318 322 312 305 293 281 286 131 262 251 238 264 246 242 255 246 235 233 235 255 247 250 240 241 229 219 210 218
343 341 232 324 311 307 300 285 327 298 155 255 241 252 265 250 135 267 284 262 261 252 265 267 260 252 245 237 248 230 234 232 237 252 254 244 237 236 238 219 244 205 234
313 326 332 277 299 307 297 338 304 329 295 263 300 284 290 282 246 250 279 270 261 261 238 250 246 239 241 250 235 235 230 249 246 249 245 238 223 238 240 229 210 233 238
291 312 288 305 299 304 278 325 304 322 320 316 281 303 289 259 253 241 258 246 243 250 235 235 259 252 238 237 238 230 249 243 247 245 234 230 244 242 239 216 233 239 229
293 301 288 285 284 283 262 288 301 316 291 304 299 281 251 245 243 252 248 261 238 236 272 252 243 236 239 230 248 247 240 258 243 234 231 249 240 237 222 238 238 228 223
271 281 284 273 273 289 275 286 274 278 291 279 275 286 288 287 279 262 274 266 255 251 243 237 238 234 251 242 238 248 257 240 234 234 250 238 232 232 248 232 226 223 226
265 272 264 276 279 280 280 272 278 263 260 274 272 259 272 267 260 258 252 248 244 236 238 244 250 240 240 247 250 252 234 231 243 249 232 229 235 245 227 224 223 224 226
266 252 263 269 271 269 271 277 278 274 267 258 248 250 250 259 253 240 235 248 253 252 244 235 235 243 246 255 239 235 230 273 240 230 236 230 236 225 220 220 219 224 230
263 251 260 259 246 261 260 260 263 269 273 269 259 259 262 260 259 258 253 250 233 236 243 247 240 249 244 232 240 293 261 231 234 234 231 236 222 221 218 216 220 231 227
247 250 241 248 255 245 245 247 247 245 250 250 254 253 253 248 247 239 235 237 250 250 240 244 242 235 246 262 253 239 237 232 229 239 248 216 218 218 214 217 227 226 235
249 262 258 260 243 243 246 252 242 242 242 246 242 240 238 234 236 250 253 250 239 242 243 233 228 257 255 248 237 235 234 237 250 231 216 217 216 215 215 228 225 235 242
273 268 270 258 259 256 257 253 258 269 265 261 255 258 253 253 247 240 239 236 252 236 226 227 243 255 247 238 230 235 249 246 219 217 217 215 217 213 225 227 232 241 249
266 260 259 258 257 260 257 264 260 256 250 252 252 244 247 238 238 236 240 252 234 222 226 230 240 248 245 239 237 242 220 215 212 214 216 216 213 219 231 229 242 247 262
264 264 264 256 264 259 259 257 249 248 240 240 240 239 235 241 239 240 251 233 220 225 230 230 241 240 241 250 225 216 214 207 206 213 217 208 215 228 228 242 246 251 272
258 259 259 263 264 256 258 254 253 252 250 248 248 246 243 244 254 259 241 222 231 227 233 231 237 237 235 213 218 214 210 208 206 215 211 214 222 228 237 244 246 261 279
271 273 272 267 258 257 256 259 256 255 251 250 253 267 276 275 261 251 231 230 234 229 232 232 235 225 221 208 212 214 206 207 211 215 213 217 227 229 242 249 253 279 285
243 256 267 270 268 270 272 272 270 271 269 274 274 271 273 267 250 230 235 235 227 233 230 225 225 218 213 216 215 210 209 209 213 213 217 223 227 242 247 248 266 282 270
239 238 232 228 228 226 248 253 268 265 269 268 266 263 263 251 226 230 232 233 234 236 227 223 219 216 216 217 208 212 209 213 212 216 218 227 240 248 246 255 281 284 266

GFSGL_2pvu_pres_093.txt.gz
Presure
176 176 170 161 152 202 199 192 181 169 172 179 153 179 183 188 177 186 176 179 177 178 184 162 162 187 172 155 173 177 172 188 199 181 166 185 187 190 188 197 235 254 243
232 188 182 180 177 172 195 193 193 166 180 185 173 190 190 189 189 188 183 130 187 170 142 184 189 154 184 192 182 186 192 191 198 187 190 184 194 197 196 252 256 241 242
196 190 205 184 183 180 176 174 172 170 171 171 181 198 179 163 199 199 200 201 194 171 199 181 152 196 206 191 197 191 198 182 190 183 209 192 202 213 250 242 254 240 234
214 209 203 197 193 191 190 187 185 169 181 178 168 181 197 200 181 160 161 169 161 191 198 188 197 197 214 216 212 205 199 200 192 202 200 200 252 250 255 247 241 244 235
226 222 216 212 207 201 201 200 197 192 190 186 189 187 183 182 184 186 187 184 177 178 177 186 193 196 201 222 219 218 210 194 196 201 209 249 247 255 245 239 241 240 241
277 267 246 233 226 220 215 210 212 207 206 206 202 200 196 193 192 178 191 194 200 202 192 199 202 204 210 216 173 200 195 202 206 264 256 238 258 245 257 237 236 224 257
311 293 304 295 294 283 273 241 234 228 220 218 213 214 213 214 207 208 206 190 207 211 210 227 232 260 229 205 204 204 207 268 265 256 263 256 248 243 245 228 239 254 263
303 300 315 326 323 307 284 364 280 288 311 286 282 264 254 246 277 242 237 215 213 232 268 259 251 222 315 235 277 274 268 256 259 253 253 248 251 237 235 236 251 260 241
261 283 299 303 308 320 315 300 302 310 343 317 291 231 304 306 304 268 274 265 257 258 264 259 255 295 279 274 263 266 250 246 253 241 238 235 238 230 236 250 253 246 232
281 328 335 317 298 299 333 304 337 234 297 282 280 143 283 323 265 316 310 287 290 255 264 276 270 256 259 242 240 271 258 248 246 252 250 237 237 239 251 258 246 235 246
267 294 326 298 305 338 346 307 311 317 275 270 157 170 207 271 279 307 314 321 290 250 250 238 252 238 239 260 240 237 248 231 253 239 236 238 242 246 256 244 236 241 240
282 293 288 322 203 326 319 340 339 320 343 324 295 297 305 334 301 303 302 295 294 269 278 270 245 261 256 239 250 234 248 252 241 230 238 249 239 254 245 232 247 242 229
266 274 274 294 279 296 303 306 301 288 306 307 314 280 298 279 294 301 281 274 280 277 263 265 264 249 246 239 242 257 240 236 235 248 243 247 252 243 231 244 242 229 231
287 267 281 265 281 292 286 283 281 284 285 299 296 307 314 293 294 281 292 292 276 260 259 253 242 247 254 255 250 237 235 234 247 237 247 255 240 230 252 240 229 235 236
248 272 265 274 269 276 288 268 269 279 270 274 274 276 308 300 286 279 277 280 268 263 279 257 260 258 251 238 234 241 248 238 240 247 255 235 237 276 237 230 230 240 222
265 265 271 258 261 267 267 275 279 283 277 273 262 261 262 258 276 269 262 280 269 260 252 251 250 242 231 249 243 236 239 247 249 245 233 276 257 237 234 232 243 220 220
267 242 256 266 262 256 249 266 265 266 272 276 277 274 259 262 262 257 252 243 247 252 247 248 233 247 250 233 235 247 240 248 239 266 258 242 239 230 241 235 218 217 215
251 247 249 248 260 252 252 257 254 246 258 254 261 265 272 268 267 256 246 242 248 250 255 255 247 235 231 249 239 246 240 232 254 252 241 236 237 253 219 220 216 216 212
280 270 253 258 239 253 249 238 248 246 248 249 249 246 247 248 248 251 255 253 246 246 240 233 233 250 244 232 247 237 227 250 254 244 234 233 239 219 213 210 214 216 211
270 270 277 279 278 252 244 247 249 248 251 246 242 242 244 240 241 241 242 239 236 234 228 249 244 238 231 248 234 224 224 244 251 248 243 236 219 213 210 207 214 214 214
268 272 273 274 277 280 265 269 258 266 251 249 248 254 250 252 255 255 252 242 257 253 247 239 237 231 249 237 221 226 229 242 239 241 218 220 217 212 207 212 216 214 216
262 265 267 268 270 270 269 266 270 262 256 252 258 254 263 258 253 254 252 252 243 247 238 236 234 243 242 222 222 228 235 236 237 216 214 216 215 208 213 209 216 214 221
269 265 257 255 260 265 265 267 264 266 260 261 255 258 255 249 247 244 244 238 241 237 237 242 232 249 238 224 231 230 236 237 228 219 215 215 211 206 211 215 212 216 226
250 263 269 271 270 266 258 257 260 264 263 263 258 263 251 253 244 248 248 248 244 243 248 251 259 252 231 227 235 235 234 227 220 217 217 214 204 214 213 215 214 225 227
253 248 242 242 240 262 271 275 273 268 263 260 261 260 261 259 254 254 253 252 254 262 276 271 262 248 233 236 233 238 238 221 217 219 211 206 212 216 218 213 218 227 238
263 258 253 252 251 242 239 237 240 258 273 275 275 275 273 272 270 270 267 270 273 272 275 269 254 229 230 228 228 224 220 230 236 212 212 213 217 217 213 214 224 235 246

GFSGL_2pvu_pres_096.txt.gz
Presure
174 214 188 173 183 223 178 169 164 175 194 203 187 190 187 186 184 199 187 125 162 181 146 179 169 173 175 177 186 188 189 193 161 180 195 175 194 198 193 192 207 198 204
184 184 178 181 186 177 208 226 167 169 167 162 162 162 182 161 189 190 191 133 188 188 182 171 187 166 157 141 180 151 166 171 164 202 193 184 169 194 204 177 199 205 206
191 189 190 189 186 195 190 182 193 184 168 170 163 167 171 194 170 151 183 184 176 180 147 170 177 184 153 181 178 181 170 191 202 193 199 187 197 208 175 199 207 265 258
205 203 202 199 198 199 195 200 196 185 183 176 173 172 172 170 169 171 149 174 187 183 183 180 183 147 184 183 186 190 168 192 193 198 166 209 211 282 220 213 244 254 236
230 228 223 218 217 213 210 208 206 204 196 240 184 181 178 178 179 185 181 182 184 207 200 175 194 187 161 192 191 189 192 194 198 203 209 221 241 254 265 262 245 266 249
296 287 248 241 111 232 228 224 224 222 217 212 208 198 194 193 192 188 184 184 191 188 188 193 195 199 195 206 181 202 205 205 220 246 218 136 250 272 265 253 262 247 250
274 286 285 282 280 268 246 239 238 230 226 225 224 222 220 218 215 211 211 211 212 209 207 208 211 211 209 213 215 219 256 233 227 241 222 271 273 245 248 255 245 238 244
283 277 263 265 271 279 284 282 277 270 258 248 243 240 237 234 233 233 230 227 224 223 220 221 221 224 231 237 247 261 228 233 239 263 261 263 248 260 253 247 232 246 239
271 269 271 275 278 295 297 308 318 318 316 298 281 281 276 276 289 329 267 268 268 265 268 253 250 249 252 250 282 268 256 259 287 228 242 242 263 234 238 232 244 237 236
260 261 262 267 296 321 293 306 272 306 405 335 309 309 323 319 302 322 313 332 352 312 282 294 285 312 271 319 269 277 289 268 247 266 248 252 248 247 236 252 242 231 250
278 278 279 279 277 291 292 332 327 341 321 369 379 323 315 305 323 327 345 306 282 287 270 266 269 303 316 275 282 275 252 257 258 253 248 230 249 248 243 239 234 247 246
280 264 281 281 277 284 282 299 301 295 323 335 367 368 303 305 301 301 302 310 310 305 307 301 299 286 279 273 285 275 255 258 243 257 244 238 252 245 236 235 248 247 258
269 280 274 274 280 285 281 279 307 301 309 320 317 330 329 298 339 342 327 294 283 322 319 290 277 262 258 265 257 263 259 250 252 245 235 256 247 238 243 244 251 250 234
279 278 273 290 285 273 272 283 276 301 298 276 307 298 289 307 304 293 333 278 283 289 298 278 269 262 251 259 265 238 257 244 244 263 251 240 241 245 242 251 242 249 264
272 284 278 263 271 270 266 264 275 271 289 280 273 278 282 282 290 293 301 309 294 293 293 267 265 274 273 258 264 246 250 250 260 249 232 247 239 244 248 235 262 242 240
273 282 270 256 264 270 252 264 264 266 267 279 279 280 259 285 273 272 278 290 289 278 272 275 260 276 264 252 275 268 251 253 244 242 242 236 247 246 231 257 245 238 235
280 250 263 266 254 265 265 266 255 255 261 264 264 266 268 276 272 261 257 261 256 262 263 263 271 264 258 257 248 239 247 228 253 237 239 239 244 233 251 245 240 229 247
274 274 274 258 263 254 251 250 266 261 257 252 258 261 256 262 273 271 264 259 251 260 253 255 255 245 249 248 235 240 255 244 231 249 237 242 234 228 251 247 246 241 223
274 266 264 278 294 260 249 256 254 248 254 249 251 256 249 256 252 251 255 269 266 261 258 253 246 243 252 257 256 244 232 241 247 234 244 233 227 229 239 242 244 231 223
274 275 262 262 265 280 283 265 258 245 249 246 239 251 251 244 245 246 246 245 244 246 241 244 247 243 237 236 236 226 243 243 236 239 238 226 227 227 237 236 223 218 211
267 266 262 270 266 262 271 275 274 278 283 264 248 251 238 240 242 246 248 242 240 245 242 237 235 234 231 232 235 247 242 238 230 246 239 228 225 229 234 233 218 212 214
276 271 267 264 262 262 260 268 275 275 276 274 280 268 260 249 254 255 248 247 250 251 244 259 255 252 248 244 246 240 231 237 232 248 238 225 229 229 232 225 215 213 215
250 253 261 273 273 271 267 263 261 264 270 270 271 267 268 265 266 258 257 252 257 255 255 255 251 246 246 240 238 237 234 239 235 241 248 225 230 234 231 218 212 231 203
251 251 253 255 249 245 251 269 274 273 266 262 263 265 270 264 265 260 259 259 255 260 251 249 245 241 238 237 239 237 242 246 258 257 253 232 229 232 232 217 227 208 214
253 258 261 260 257 253 251 251 246 239 246 261 273 274 267 263 262 261 265 257 255 260 254 253 250 243 244 246 249 250 254 280 273 264 245 227 226 231 233 222 216 207 220
275 273 269 268 269 269 268 263 261 256 252 251 239 235 238 253 269 274 271 264 259 255 255 257 257 255 253 256 260 270 270 276 269 229 225 225 227 224 209 222 219 226 225

GFSGL_2pvu_pres_099.txt.gz
Presure
217 206 185 177 166 161 163 183 171 171 188 192 200 185 186 187 173 174 95 186 207 151 155 192 148 174 183 171 175 174 170 168 179 181 147 162 189 200 174 200 198 200 204
207 239 164 172 173 167 174 172 173 194 199 206 173 170 205 218 214 208 166 162 156 168 164 164 174 173 203 202 200 198 189 182 188 189 150 164 181 189 194 202 204 206 217
194 219 259 254 221 173 182 183 178 175 176 197 201 190 175 172 167 194 163 173 195 165 170 168 168 167 170 175 181 209 204 203 201 200 197 161 161 199 195 199 205 214 279
191 184 183 201 213 206 206 197 169 174 172 180 183 180 176 175 183 182 174 173 219 215 205 188 178 174 173 177 177 184 182 194 212 189 202 199 196 196 205 209 216 232 240
245 237 214 194 192 190 190 184 191 187 187 185 185 183 186 188 190 189 190 191 187 184 192 214 214 208 189 176 187 184 185 193 197 199 201 200 193 210 213 223 256 235 261
264 262 255 244 233 227 214 204 202 195 195 195 194 196 202 204 203 202 203 203 206 200 228 195 230 223 210 135 192 194 143 201 197 203 205 211 214 220 234 241 262 248 257
293 290 298 287 281 298 304 285 254 238 235 229 226 227 208 227 226 223 221 218 218 220 193 212 208 208 207 206 156 210 215 214 216 218 222 226 247 243 249 269 277 260 244
275 263 260 285 282 274 276 278 281 284 286 284 274 262 255 249 245 243 242 237 234 235 232 230 225 223 221 222 222 222 224 225 234 196 241 240 261 267 247 271 255 234 243
260 269 274 281 284 283 260 250 260 289 266 267 270 274 276 279 282 281 279 272 262 254 223 249 247 247 248 248 251 302 250 259 272 192 286 273 303 257 267 258 266 250 248
261 261 260 265 275 278 273 280 310 315 292 292 297 297 320 275 326 330 332 310 308 339 323 313 285 276 276 334 346 252 309 303 288 267 262 298 292 259 244 254 250 240 241
257 261 263 282 286 288 286 279 288 301 299 294 331 339 322 319 353 367 332 316 278 297 307 308 324 327 325 292 290 285 283 280 299 267 279 279 253 251 248 246 246 249 233
254 266 273 275 276 276 287 304 286 279 284 279 301 326 334 309 300 295 326 370 314 302 301 295 301 300 338 302 303 309 277 278 292 270 274 264 257 251 247 250 235 234 254
265 271 268 279 283 268 284 288 280 282 278 286 287 302 308 304 310 325 326 326 335 331 323 291 284 293 297 288 285 290 278 278 267 257 265 249 255 259 243 238 229 251 236
278 271 274 269 269 269 285 290 277 277 284 276 277 279 299 288 276 299 291 291 297 297 313 338 298 310 309 301 280 276 264 265 257 250 240 249 244 252 236 239 250 237 241
264 266 274 280 265 281 284 297 282 274 288 272 271 275 276 291 278 273 281 286 286 284 289 312 289 276 283 295 282 274 262 259 253 255 240 260 231 259 252 241 246 238 244
258 284 292 290 283 277 272 275 273 268 271 271 263 265 266 269 279 277 278 266 276 275 270 302 287 275 275 287 277 272 271 271 266 240 242 266 254 242 237 245 237 240 240
269 271 275 282 268 272 278 277 272 265 266 267 258 257 255 261 267 265 264 268 274 267 263 268 269 272 266 265 262 267 264 264 261 265 258 238 247 227 249 232 239 237 234
267 275 275 279 275 282 271 269 250 258 268 270 264 264 259 251 260 256 266 264 263 276 267 258 252 251 251 260 253 252 262 252 241 254 242 232 244 243 227 244 231 234 227
273 267 267 267 269 275 268 270 273 285 263 251 251 248 257 260 246 253 250 258 249 257 265 266 263 262 258 255 245 244 240 238 237 245 254 249 233 223 244 232 227 234 223
265 260 252 264 285 260 276 269 269 262 277 293 256 258 249 245 245 246 239 243 253 245 250 248 248 247 248 255 258 260 254 252 255 238 232 233 221 239 237 229 233 237 228
256 268 270 275 281 276 264 274 266 262 264 264 263 287 281 264 266 255 247 251 241 238 240 242 243 240 236 236 237 234 230 229 230 229 227 231 241 238 234 229 228 243 229
274 267 264 262 269 278 278 273 270 267 265 265 264 268 271 274 276 275 275 265 249 244 242 240 241 240 241 238 242 248 238 243 246 249 246 242 241 238 230 234 228 229 247
271 263 259 262 256 251 254 259 267 274 277 274 267 266 265 265 267 268 265 270 266 265 260 252 251 253 255 251 252 244 255 262 255 249 248 239 234 234 232 237 244 251 252
257 258 263 262 256 252 252 253 252 251 251 247 246 253 263 271 271 265 261 265 265 263 262 257 256 252 249 250 253 256 252 257 245 241 236 236 236 237 242 248 264 271 252
264 263 264 264 260 259 259 259 259 260 260 257 253 250 246 238 241 249 260 266 266 260 259 260 262 259 258 260 256 256 253 247 244 242 241 241 247 248 255 271 273 262 222
279 279 279 277 275 275 273 271 270 270 270 270 269 267 264 260 257 248 240 236 237 246 257 266 266 263 256 254 256 256 258 257 255 254 253 252 257 266 265 265 265 225 221

GFSGL_2pvu_pres_102.txt.gz
Presure
188 211 202 188 186 180 178 179 180 184 181 178 178 163 177 179 185 168 165 181 166 179 184 185 187 193 196 186 201 171 148 180 179 172 188 175 176 177 180 169 173 202 193
229 181 240 231 194 189 188 184 177 180 179 174 174 176 164 178 171 164 174 182 165 163 166 163 165 161 165 196 200 203 201 202 200 203 198 202 161 186 190 179 185 192 196
239 244 250 245 170 220 192 193 196 197 189 189 182 179 175 172 177 174 182 193 194 196 201 200 164 176 173 175 176 174 184 206 213 212 212 212 187 211 202 195 194 193 197
248 253 248 260 260 258 187 186 183 189 203 203 212 210 186 186 181 176 187 170 169 165 166 172 174 202 173 175 181 183 185 186 184 211 196 208 193 214 204 200 203 199 208
249 252 254 252 253 253 250 223 187 183 198 200 205 233 251 231 201 195 194 182 179 210 182 183 179 182 183 183 166 188 186 192 203 193 195 193 214 206 199 201 206 210 216
252 255 253 252 251 249 244 241 232 225 219 210 182 198 201 238 218 182 184 236 225 219 191 212 201 200 201 206 206 206 206 206 208 207 193 204 204 205 214 213 219 226 228
253 253 255 257 259 262 263 266 263 257 255 254 238 213 199 198 198 196 196 197 198 197 198 204 211 216 217 219 219 218 217 218 219 218 217 216 218 221 227 227 237 255 274
252 255 258 267 279 272 289 297 288 288 288 300 295 286 284 288 285 271 260 251 247 246 243 241 239 236 235 236 234 235 234 235 233 230 229 229 202 239 248 246 241 292 283
261 268 262 272 268 261 260 259 260 252 258 309 267 292 257 280 280 281 280 280 282 286 287 279 277 274 266 267 268 262 262 261 259 253 259 257 268 262 303 283 280 249 287
254 261 258 258 261 262 254 264 268 276 257 302 285 299 295 309 328 296 317 334 267 284 269 292 273 271 265 292 306 328 336 328 305 300 295 319 271 294 285 270 255 289 275
254 258 260 271 270 269 263 269 267 258 283 273 283 301 305 311 299 303 298 321 291 285 270 379 371 322 296 309 303 315 311 298 319 313 314 279 280 303 298 290 269 260 259
259 259 255 251 257 259 263 272 271 268 264 285 293 296 299 287 297 284 305 307 316 305 365 368 358 350 337 316 327 321 294 290 292 302 304 292 302 279 284 269 272 259 252
249 254 254 257 260 264 262 267 276 286 288 277 279 287 298 286 277 285 286 298 304 299 308 323 323 326 331 319 269 291 303 285 309 300 297 281 286 276 273 263 264 247 256
255 259 262 262 256 255 263 274 276 273 268 277 276 289 283 281 292 281 286 292 281 290 284 286 292 295 298 326 293 315 313 272 298 287 261 271 271 258 267 254 247 241 248
265 260 257 259 268 264 272 270 283 290 279 278 286 287 292 274 281 271 270 276 290 275 266 277 276 275 290 319 308 300 294 288 297 274 281 274 261 259 250 248 248 232 263
266 264 263 261 277 268 281 289 289 292 291 283 281 271 277 275 271 267 267 264 266 273 274 279 274 276 278 283 282 277 284 287 280 270 265 263 245 241 250 247 262 262 240
267 272 262 263 289 285 273 276 276 275 278 278 275 275 289 273 265 274 265 266 259 266 265 263 269 273 264 274 285 268 269 266 273 275 272 264 261 254 257 259 253 235 237
292 288 279 276 277 273 268 268 278 278 281 275 289 277 261 261 254 269 257 262 259 262 262 264 266 263 272 260 252 248 253 255 260 256 254 253 255 255 240 243 237 233 244
273 273 267 266 261 259 266 277 269 272 271 269 275 268 269 275 278 258 256 247 247 256 249 253 259 252 254 267 264 259 254 253 253 247 244 240 241 242 238 233 246 249 240
264 247 247 264 261 263 267 270 262 257 276 275 259 274 263 261 261 285 268 252 255 253 246 243 243 236 247 248 247 244 246 254 258 255 251 256 255 248 249 246 235 235 228
268 258 258 253 261 270 269 253 269 267 278 277 270 265 273 262 261 263 263 285 278 262 252 252 249 245 249 236 238 243 241 235 235 233 237 235 233 229 229 231 229 230 236
287 279 275 269 274 264 256 268 265 263 257 269 280 277 270 271 264 264 264 259 260 270 275 274 273 272 254 245 242 235 237 237 236 239 237 236 238 244 236 239 248 253 245
278 276 274 270 259 255 258 270 263 259 261 256 253 259 267 270 272 275 269 264 260 260 265 265 268 266 272 272 261 253 249 246 242 242 248 246 244 241 245 254 254 246 244
260 259 256 257 258 258 257 256 260 262 257 254 253 252 252 249 246 244 246 254 262 267 269 263 258 262 264 263 261 261 258 255 256 254 251 245 247 250 248 248 248 239 237
256 254 255 256 256 257 258 259 258 260 260 259 259 258 258 259 259 259 257 253 249 242 244 251 261 268 263 257 258 259 261 257 256 257 252 251 253 249 251 244 240 239 239
272 268 266 265 266 268 269 271 272 271 272 273 273 273 272 271 270 269 270 269 267 263 256 251 244 242 243 253 264 268 265 260 255 254 252 254 255 251 251 253 250 249 247

GFSGL_2pvu_pres_105.txt.gz
Presure
172 169 184 184 179 164 164 191 192 184 177 170 172 168 168 154 166 173 164 166 183 158 162 172 178 166 166 163 165 164 170 165 174 168 169 180 171 169 173 183 181 152 187
172 178 187 175 209 211 184 180 176 169 184 180 179 181 182 172 180 183 175 176 179 181 175 179 177 164 159 163 156 164 167 156 184 190 167 184 200 174 177 183 178 182 192
189 187 180 199 245 248 180 170 167 184 169 171 185 179 174 184 188 177 168 159 169 165 172 179 179 173 172 173 163 160 159 164 168 167 170 177 172 174 181 186 187 192 198
252 257 246 227 224 233 238 208 205 206 163 156 185 183 209 218 187 183 183 184 190 184 191 214 213 198 182 177 187 181 173 169 171 172 186 174 185 163 162 194 195 164 203
178 236 259 260 251 251 249 248 249 253 229 226 233 248 256 269 250 249 188 186 190 187 192 203 212 211 209 209 215 208 205 202 208 206 210 194 196 204 208 210 213 214 214
268 252 253 300 266 264 266 251 251 251 263 262 257 260 261 259 253 249 253 245 202 202 198 199 191 185 184 190 189 190 194 194 197 201 202 211 214 216 224 223 223 226 226
272 280 277 272 266 257 254 263 260 256 252 217 259 257 257 260 261 253 247 240 235 230 231 229 205 197 201 203 203 205 208 211 218 220 225 228 229 232 235 234 233 236 238
297 264 258 254 253 253 208 190 253 256 257 186 247 265 252 255 273 284 286 288 294 303 299 297 302 305 287 286 265 262 263 258 257 248 249 252 252 253 253 256 261 260 259
260 259 258 257 252 252 250 251 256 249 262 277 261 279 264 262 281 271 263 257 299 308 270 294 292 270 295 294 296 291 297 287 279 323 316 313 298 301 309 317 317 291 302
255 255 251 243 255 253 250 250 259 264 271 275 264 285 260 243 286 282 299 257 258 260 247 279 280 276 260 346 338 254 252 254 255 304 309 309 297 309 256 316 296 304 282
253 252 248 257 261 250 259 258 255 262 261 263 249 266 258 246 263 295 302 306 309 286 295 291 282 322 318 347 379 332 335 354 314 341 303 299 293 310 284 308 302 308 296
262 270 261 256 252 260 268 263 251 248 254 261 260 273 259 262 295 299 288 292 298 289 295 283 298 300 305 323 349 346 344 331 291 314 300 300 296 309 279 311 305 282 293
262 264 253 253 250 249 246 260 264 258 261 257 265 269 275 286 286 283 279 291 300 284 294 286 289 289 283 298 293 320 327 303 301 301 286 277 308 301 290 294 302 286 271
259 260 259 257 258 260 265 253 253 257 255 270 268 263 276 285 286 300 281 292 290 287 285 283 273 287 277 283 296 294 297 316 317 295 300 286 286 287 259 276 273 267 260
257 255 256 253 253 252 253 251 251 263 271 265 278 265 282 302 292 285 280 282 290 281 275 270 272 270 281 273 272 273 277 297 320 312 301 298 285 284 277 264 258 263 257
257 256 255 254 257 261 273 274 265 262 265 270 275 273 297 289 292 295 287 278 268 276 272 266 268 261 265 265 279 276 272 279 289 287 281 264 266 277 260 249 261 258 258
280 274 273 278 277 273 268 265 272 273 276 263 290 282 276 277 273 268 271 268 275 276 263 252 261 265 254 263 262 268 273 264 292 286 276 275 275 267 251 252 250 260 255
259 260 262 263 264 259 253 268 266 263 290 280 279 265 273 277 277 277 278 279 273 259 256 263 258 244 257 256 251 260 260 264 253 252 265 262 260 261 263 267 260 261 263
266 267 266 265 264 277 292 288 282 278 272 268 260 266 271 264 268 265 273 272 269 271 278 269 258 251 248 250 249 250 249 248 262 255 252 250 248 253 253 247 246 239 241
282 282 281 280 279 277 275 270 268 266 275 268 264 267 265 253 276 282 270 267 269 267 261 279 275 259 255 254 247 240 238 240 241 247 245 249 252 253 250 247 246 245 251
261 261 261 260 260 260 257 266 250 260 256 253 266 273 252 269 268 280 277 271 267 271 264 263 262 266 277 270 253 250 249 247 239 241 243 244 236 230 229 228 230 232 231
263 262 264 266 274 274 281 301 292 284 266 266 270 261 263 270 262 259 268 276 272 264 263 259 263 265 260 262 268 274 269 263 267 249 240 237 230 232 230 231 235 235 235
253 257 263 259 258 264 274 287 280 275 270 265 266 256 261 271 264 263 260 255 261 269 272 273 270 261 256 255 257 268 270 271 267 267 260 252 245 243 240 240 239 241 249
274 263 261 257 258 260 260 264 274 271 267 266 258 257 258 257 261 262 257 254 255 251 246 245 246 255 267 270 266 259 257 259 266 266 268 273 265 253 253 253 251 252 252
274 270 269 264 264 260 258 258 258 258 256 254 252 254 254 253 255 256 258 259 260 257 255 256 255 252 253 250 245 244 260 266 263 258 257 262 262 260 258 256 253 255 254
290 288 282 277 269 263 262 261 260 258 256 254 256 259 262 266 269 269 270 270 269 271 270 270 267 267 263 262 258 253 250 247 242 241 256 263 258 256 254 255 255 254 258

GFSGL_2pvu_pres_108.txt.gz
Presure
184 186 131 183 161 170 178 159 128 155 188 180 163 174 146 180 153 155 181 185 186 178 175 178 180 163 163 169 179 169 157 176 186 178 175 169 167 168 174 173 177 170 166
158 193 191 179 176 192 193 186 175 160 161 173 173 166 172 178 150 180 184 179 145 188 162 168 174 175 178 180 180 183 184 183 190 175 191 198 221 208 182 208 178 182 163
144 202 193 193 164 176 184 143 144 163 165 160 151 179 157 181 184 173 154 158 183 171 151 179 178 178 181 189 179 184 186 177 188 188 183 197 203 222 217 215 219 194 191
138 174 191 172 203 203 150 171 170 172 164 162 181 168 184 176 181 188 174 222 213 176 188 190 193 176 200 229 229 248 249 209 191 191 200 198 183 224 197 185 193 213 199
289 226 210 231 216 183 229 210 175 181 242 190 184 181 161 171 212 205 248 256 242 240 244 242 234 235 253 261 265 266 264 262 248 230 225 206 231 215 201 203 206 211 210
297 271 206 198 273 138 154 288 229 264 233 262 258 184 231 182 233 245 250 260 248 175 231 235 256 255 254 253 253 261 260 249 249 239 232 237 232 223 219 217 227 223 229
269 240 262 255 260 252 259 221 158 252 217 211 247 200 255 268 191 256 247 254 265 252 264 269 306 293 291 333 307 324 315 314 279 275 277 276 271 264 267 267 256 262 257
249 251 254 252 256 264 258 235 231 249 243 248 246 260 270 270 265 236 269 253 258 276 272 263 285 310 289 299 307 320 300 294 295 297 295 297 289 283 284 288 277 278 273
256 253 255 260 267 273 268 272 283 279 260 250 266 265 260 261 265 263 257 251 281 263 292 274 263 293 316 262 305 281 266 324 301 304 331 348 376 340 297 297 291 283 282
261 273 266 282 261 269 275 272 277 305 279 268 261 261 259 258 259 254 269 270 270 264 265 245 254 266 308 310 309 295 306 310 319 345 379 392 355 361 289 327 294 282 285
276 273 275 269 271 264 285 297 281 262 260 255 251 249 246 254 259 264 263 254 255 283 254 288 288 290 293 310 299 292 295 302 304 333 352 361 339 374 329 319 282 301 276
336 319 305 322 279 278 284 253 249 246 252 246 249 246 240 264 258 255 244 258 263 257 274 297 293 283 302 294 292 287 294 287 292 293 327 339 330 317 311 300 293 289 290
266 271 281 265 280 256 251 250 252 249 274 273 259 256 255 249 251 253 247 243 275 274 285 284 302 284 294 289 283 279 280 284 278 284 295 303 311 299 292 291 285 301 261
265 254 254 271 271 256 247 239 264 259 268 265 260 249 248 251 251 243 262 270 275 278 289 316 291 281 293 288 278 269 272 278 274 272 269 274 298 301 292 296 284 283 274
278 273 281 286 285 285 277 257 253 257 252 251 249 253 258 259 253 261 284 271 284 286 295 297 300 283 278 272 269 267 264 266 264 272 273 287 309 302 294 289 284 266 279
272 280 281 270 268 265 260 260 261 259 261 249 260 258 256 259 266 268 267 288 278 297 281 278 289 279 271 269 266 271 262 255 264 261 271 270 275 290 288 282 284 279 262
269 265 258 257 256 255 254 253 253 252 253 261 256 253 260 281 268 267 281 262 295 274 281 285 278 275 271 277 264 263 264 253 254 261 262 264 270 279 271 274 273 265 266
285 279 266 260 257 254 252 257 259 263 261 262 268 274 262 264 262 266 294 282 269 279 273 280 277 288 276 262 251 263 256 249 253 247 249 258 263 254 261 257 257 269 263
259 260 267 271 273 272 267 258 259 261 261 259 262 265 261 262 282 281 275 258 270 272 264 279 266 273 273 272 277 268 260 249 244 250 245 249 243 261 254 249 245 245 247
268 266 266 264 261 259 259 260 257 259 261 264 290 288 282 277 272 268 274 262 270 263 257 278 277 270 266 272 263 271 276 260 252 249 241 240 242 240 244 258 251 248 248
276 277 268 264 263 263 266 297 291 287 284 284 279 277 274 271 269 264 249 255 274 260 270 267 278 274 268 270 267 264 256 270 277 257 252 246 239 237 237 240 244 239 243
288 288 287 288 289 288 283 273 268 265 266 263 263 259 272 272 281 263 253 261 271 259 272 266 263 270 273 267 263 263 257 263 266 255 283 264 260 249 246 238 240 237 237
273 267 269 267 269 267 259 262 263 263 262 264 270 275 275 301 296 286 275 271 272 257 265 270 264 262 254 257 270 270 268 263 258 255 254 254 272 277 279 264 261 244 238
278 279 275 267 259 260 260 259 255 254 258 262 262 256 261 267 284 284 274 270 269 260 262 260 259 262 262 260 256 249 247 244 248 267 268 264 260 258 260 269 265 266 264
301 296 287 277 275 268 266 265 260 262 263 261 259 257 259 261 263 267 271 270 264 257 254 254 254 255 257 256 257 258 255 252 250 247 244 243 242 243 261 263 261 259 257
296 297 297 293 293 294 293 291 289 284 277 271 265 265 265 262 261 260 260 258 258 257 254 256 258 263 266 271 273 272 269 267 265 262 258 253 251 250 250 248 246 243 253

GFSGL_2pvu_pres_111.txt.gz
Presure
143 159 189 178 175 176 166 165 163 153 164 171 187 163 174 164 191 173 189 215 162 171 196 163 155 155 155 171 156 184 187 182 178 192 187 168 181 205 211 220 228 245 231
178 144 180 177 153 168 172 150 171 162 173 178 156 162 178 179 155 170 179 197 165 195 157 160 152 155 208 153 181 179 181 197 201 227 242 232 238 256 231 230 270 231 239
181 183 170 198 203 175 184 190 184 144 163 172 173 185 209 184 175 156 178 140 144 157 179 181 188 174 177 189 181 183 198 200 202 260 248 252 243 231 237 252 257 256 250
182 181 166 174 171 180 176 169 179 186 159 180 177 174 162 172 176 185 164 173 198 193 201 186 190 207 196 191 187 203 216 256 250 238 262 251 271 270 270 251 251 254 241
189 204 156 185 165 154 178 170 183 186 145 148 153 178 180 153 186 143 181 187 185 202 166 199 220 243 254 278 222 221 247 270 280 318 308 323 327 316 277 275 268 260 255
199 198 190 185 178 184 184 189 183 170 143 177 179 189 136 183 145 159 160 208 181 196 224 226 264 212 249 214 228 230 281 302 301 300 337 305 312 295 298 301 299 293 286
213 200 194 200 154 198 197 195 195 193 191 176 185 174 195 192 197 198 197 181 224 223 244 221 206 148 200 261 207 252 266 320 270 283 327 328 296 308 293 254 293 272 271
234 235 224 213 204 203 204 203 204 206 178 202 197 195 174 202 203 154 217 173 236 205 243 250 261 215 239 241 265 272 209 282 297 265 296 313 301 306 292 341 333 273 347
289 272 264 251 238 236 222 223 215 215 223 212 222 230 234 235 235 246 236 239 207 272 206 214 264 268 264 267 277 262 265 311 305 272 312 301 305 301 317 391 395 369 347
255 240 262 264 258 258 276 264 265 267 283 262 215 226 263 265 256 258 274 286 267 239 256 269 262 260 272 274 274 244 292 301 309 304 301 302 292 297 304 378 338 335 324
258 257 261 253 256 265 263 262 269 243 251 260 257 258 256 253 262 276 283 280 272 267 262 257 260 265 264 267 266 287 298 303 305 286 297 284 291 288 295 313 338 335 328
271 265 258 255 249 262 256 253 271 253 255 249 250 261 280 273 255 302 270 265 263 251 251 262 272 255 251 260 259 290 301 309 300 301 290 279 282 277 276 287 318 308 310
258 255 262 278 253 261 266 279 264 273 273 268 287 311 310 302 298 285 247 267 254 270 264 243 242 252 266 250 288 302 311 296 292 291 281 267 278 276 277 274 276 293 281
281 264 263 267 265 281 273 262 260 318 337 320 308 296 280 284 285 244 251 261 270 274 266 254 253 259 263 282 296 304 289 298 285 276 268 267 271 267 274 276 302 293 292
297 305 306 298 308 295 294 299 302 283 293 278 287 285 280 265 254 249 266 275 274 250 251 258 265 262 279 293 295 294 277 297 279 268 269 263 260 265 266 272 310 296 284
277 278 280 288 286 289 296 281 278 285 268 287 296 272 270 258 267 256 253 253 260 255 253 264 255 278 280 289 296 279 280 275 277 272 267 266 255 261 262 269 279 278 287
277 278 280 279 274 273 277 267 294 290 270 266 273 273 267 263 260 245 255 266 266 260 257 256 280 272 298 286 283 281 282 283 262 275 268 256 259 254 256 263 278 273 271
273 268 267 270 266 264 273 257 265 269 274 283 271 273 279 276 270 262 260 256 254 260 277 269 280 271 291 268 279 277 271 284 278 272 255 263 254 251 248 245 252 265 263
274 276 267 269 278 285 284 278 265 262 263 263 262 263 265 262 262 256 267 277 267 267 268 270 270 287 273 262 272 267 280 264 270 269 275 270 259 246 245 248 249 245 255
269 264 257 262 263 265 267 264 268 277 279 279 275 270 269 273 269 270 255 266 260 259 288 285 285 275 272 266 266 262 277 277 267 275 263 259 275 263 249 245 247 246 241
295 283 272 267 267 266 261 255 252 252 253 253 256 258 255 253 254 261 260 299 295 287 282 278 274 269 268 241 266 261 263 275 269 268 264 274 255 275 269 255 249 249 240
295 295 301 296 291 286 285 270 263 261 260 264 264 262 261 268 262 291 284 275 272 269 265 259 261 278 253 249 266 259 270 261 265 275 270 265 263 262 256 272 268 255 252
307 300 292 290 288 283 283 281 279 281 277 271 271 271 277 288 279 269 264 265 262 261 275 278 281 292 291 271 274 257 263 263 256 253 250 264 271 268 264 262 256 271 255
333 322 306 293 290 286 279 280 285 283 281 281 279 275 276 271 263 259 259 256 262 264 267 267 275 284 288 275 267 262 254 257 259 260 259 253 251 250 249 250 267 272 266
350 333 328 318 311 294 285 281 281 278 273 268 265 267 269 265 265 263 257 255 251 254 256 255 257 260 276 276 273 272 258 256 254 255 256 254 253 252 251 248 248 249 245
369 347 326 324 322 311 304 300 296 288 279 273 273 274 273 269 266 265 264 261 262 269 261 259 261 261 261 263 265 263 261 257 259 257 258 266 270 271 268 263 259 256 254

GFSGL_2pvu_pres_114.txt.gz
Presure
198 174 177 175 179 191 159 178 167 167 158 179 149 171 180 152 133 151 174 188 154 169 172 164 191 191 163 178 147 175 167 152 185 196 174 201 203 176 218 282 197 258 260
192 171 184 166 185 170 149 158 166 169 152 162 165 167 191 153 179 194 166 186 176 187 172 214 178 170 175 197 143 199 182 176 185 195 212 204 216 209 181 211 245 252 282
181 198 187 185 180 169 167 167 160 134 183 196 186 163 154 179 171 173 186 193 171 173 189 172 167 183 151 144 158 211 146 205 195 213 209 218 213 270 267 246 258 312 304
187 183 180 176 180 187 172 165 176 171 167 187 182 170 177 177 183 138 155 163 178 168 163 185 185 133 171 152 187 168 203 178 209 209 216 206 240 242 291 246 333 328 267
184 182 182 208 184 181 179 196 176 179 181 178 193 160 160 191 172 154 176 156 169 185 168 177 180 136 167 193 202 199 170 205 215 220 217 235 246 303 283 320 313 341 287
187 189 186 193 178 192 185 169 191 176 196 168 160 142 186 144 150 181 182 200 198 135 168 190 186 191 199 178 202 208 216 212 216 224 248 233 293 303 309 328 320 325 320
202 190 194 190 189 185 178 190 195 182 187 189 171 160 178 189 160 152 187 198 156 181 150 191 190 180 179 202 195 221 216 180 218 229 244 262 240 287 308 327 323 319 310
189 196 186 182 182 205 198 179 182 186 172 176 178 176 174 186 182 164 162 180 175 189 185 176 192 197 201 201 213 214 204 235 229 216 253 280 282 290 240 311 315 312 306
196 193 192 191 184 183 183 182 202 182 183 186 149 168 180 151 173 176 177 173 190 185 170 190 187 201 205 206 210 221 197 231 239 278 279 276 274 314 328 322 303 305 295
206 237 197 199 193 194 187 179 178 181 181 187 188 189 187 188 163 178 191 188 177 197 191 202 204 213 216 216 234 239 278 277 262 273 275 268 287 339 322 317 300 287 286
255 223 204 206 194 192 194 193 192 191 202 182 184 192 186 185 194 190 162 187 196 201 202 214 214 222 240 255 257 221 272 267 264 278 275 261 293 316 312 303 292 287 282
263 278 286 282 277 244 207 199 201 198 185 191 191 191 193 193 196 198 193 207 220 222 213 226 239 266 234 240 284 278 273 265 283 277 264 281 305 309 304 295 283 270 286
248 252 257 257 262 270 266 265 261 259 258 235 235 208 209 214 212 218 212 201 238 267 308 284 271 297 299 283 287 274 260 280 258 260 282 306 310 298 300 282 271 275 269
263 257 252 245 242 249 247 252 251 256 244 247 272 270 268 281 242 266 255 280 270 285 270 303 294 296 276 262 278 252 280 274 259 280 282 298 310 308 294 280 268 269 268
261 255 251 266 260 248 245 254 259 248 259 265 268 267 273 266 235 253 253 320 341 311 287 282 288 286 265 266 254 258 263 264 273 273 290 311 294 281 290 278 268 263 266
318 285 303 308 264 260 260 263 268 272 306 316 311 314 335 310 319 312 292 312 294 304 299 273 262 264 263 274 272 267 280 271 265 288 308 291 293 287 276 280 271 261 258
306 308 309 311 314 314 297 303 292 300 302 289 295 290 306 287 303 296 287 275 285 281 286 275 273 273 267 263 256 270 261 282 270 275 294 281 281 278 283 277 270 258 256
294 288 296 301 300 282 279 281 281 282 293 298 287 286 285 280 282 277 276 287 279 265 262 260 262 279 272 271 261 278 270 271 269 293 283 273 278 272 281 277 268 258 257
295 284 285 284 282 283 283 285 287 275 274 277 278 274 269 269 264 273 270 262 261 260 263 261 261 269 261 256 267 264 264 257 286 284 278 269 267 279 269 264 273 267 261
334 311 291 281 279 277 283 282 274 273 264 264 265 282 286 285 276 271 265 262 261 260 258 260 257 272 274 271 257 260 284 287 279 275 271 262 264 266 277 272 270 258 265
356 335 322 319 294 280 277 268 270 267 270 270 271 271 265 263 263 264 271 275 273 270 271 265 265 263 257 255 261 290 280 278 276 269 274 245 261 263 266 274 268 275 262
379 358 335 327 311 307 306 295 280 273 268 264 261 258 255 253 258 258 258 257 256 254 250 251 253 258 269 263 281 274 269 267 256 265 284 255 253 260 263 258 272 272 266
337 339 367 339 329 316 303 296 299 300 299 288 277 265 265 262 259 260 260 260 265 260 253 264 270 265 282 275 271 265 255 263 276 290 287 284 272 261 260 263 260 252 264
341 337 344 340 362 333 323 309 298 292 292 290 286 285 286 284 285 284 280 276 274 276 279 275 277 276 277 267 260 260 258 263 264 269 277 280 269 263 253 255 256 255 256
350 344 339 348 343 374 341 330 322 304 291 290 287 284 281 279 278 280 281 280 275 272 276 268 268 267 265 258 254 257 257 262 258 253 256 276 273 267 262 255 257 254 252
358 352 355 353 358 343 365 357 332 320 313 305 291 280 281 281 282 280 277 272 270 268 265 261 262 262 263 261 260 256 257 260 261 257 257 258 260 264 268 267 259 252 253

GFSGL_2pvu_pres_117.txt.gz
Presure
169 165 175 178 169 173 176 205 172 190 178 160 190 161 180 164 165 173 141 176 162 173 142 180 129 169 172 189 167 193 176 168 181 164 154 209 183 176 167 180 214 204 210
182 211 191 177 179 187 175 175 170 171 180 192 155 153 162 188 183 181 163 173 183 189 167 182 176 202 193 193 181 184 179 188 155 183 200 204 196 189 168 200 210 223 210
181 192 189 208 200 195 200 197 203 183 195 189 188 193 174 169 187 178 150 182 174 143 212 193 200 201 178 191 183 184 154 170 177 139 196 205 213 209 204 198 210 232 218
186 200 192 170 177 201 199 190 180 175 152 190 141 162 179 166 177 180 185 170 198 181 192 175 177 159 181 155 198 184 171 189 143 177 185 195 207 208 191 215 209 220 227
180 179 183 194 188 207 192 195 188 188 180 178 178 187 179 174 180 195 165 177 153 174 155 190 178 175 158 145 193 163 187 183 182 201 187 204 188 211 200 218 214 222 240
187 189 183 185 179 182 223 170 177 188 172 175 178 180 194 181 189 178 177 178 178 177 170 173 199 184 202 187 188 172 188 190 192 173 185 206 190 232 199 216 206 173 233
189 190 194 204 177 179 182 180 176 176 197 186 183 190 193 179 188 176 173 177 183 170 180 192 155 161 181 178 191 184 168 182 185 185 210 204 196 203 218 189 226 239 300
190 193 191 189 189 183 180 183 185 177 195 186 186 194 185 193 177 188 177 189 191 156 179 186 175 177 184 194 194 165 195 192 183 202 192 220 197 224 188 218 237 217 247
198 182 183 199 191 185 191 188 193 171 173 174 187 189 182 178 187 185 174 170 184 191 190 173 161 181 188 188 189 192 188 203 199 186 195 214 209 195 217 231 269 234 288
212 201 191 197 200 190 194 184 191 185 190 199 190 181 185 189 193 184 191 175 144 193 185 171 189 176 180 192 190 180 193 201 194 201 207 207 214 218 230 249 254 288 267
243 217 225 215 210 206 200 197 189 189 183 193 182 183 182 187 197 189 179 177 168 177 172 167 191 183 175 187 202 191 191 191 203 204 213 208 217 225 242 266 273 299 309
227 214 221 183 224 208 206 208 194 193 193 191 201 193 189 190 190 186 179 183 183 187 183 174 189 193 188 196 194 194 211 196 208 207 210 221 238 256 250 262 275 308 339
280 217 216 206 205 194 220 222 204 193 174 207 178 185 189 186 195 199 167 171 184 192 186 179 191 192 195 183 181 168 206 222 214 222 225 267 281 297 265 277 295 336 313
254 251 262 254 292 268 230 213 204 207 206 200 200 199 207 208 199 182 185 184 189 193 195 194 204 200 203 206 206 208 223 203 229 257 230 275 265 291 267 283 303 320 304
263 248 249 249 256 249 243 243 242 230 209 193 183 206 203 201 200 204 207 199 189 202 205 214 206 226 207 207 243 233 241 240 252 292 291 278 253 265 268 301 320 305 292
264 262 255 257 247 248 255 257 264 245 251 241 263 246 244 266 248 240 249 200 202 227 201 248 235 258 306 318 277 284 294 289 290 288 269 267 270 255 288 298 310 294 285
340 343 339 332 286 270 265 263 253 240 245 243 244 250 253 255 255 252 253 250 278 271 279 275 325 313 227 241 298 286 278 278 277 265 270 256 274 268 282 285 310 286 271
410 416 333 328 328 333 329 333 324 263 272 288 288 285 263 262 278 270 273 308 313 316 313 300 293 288 284 285 292 286 275 280 272 263 268 261 269 277 276 290 294 279 270
372 366 402 411 321 315 306 304 307 309 305 303 305 305 303 305 305 304 300 296 293 293 285 278 284 282 272 277 273 265 266 264 263 263 274 278 276 271 269 291 286 275 264
361 357 354 363 400 374 314 305 300 291 290 287 296 291 294 302 292 285 269 273 295 277 278 280 271 263 264 274 272 269 256 260 275 270 267 270 265 268 292 286 281 273 256
366 366 352 346 345 356 378 344 306 297 292 288 282 279 277 278 276 283 284 278 278 276 271 262 265 271 276 276 275 277 269 265 266 265 265 259 273 285 281 278 268 267 266
363 364 356 348 348 344 338 364 344 332 309 290 288 281 276 277 276 275 273 270 268 268 276 275 277 267 260 262 256 262 261 261 252 256 260 274 272 283 276 269 265 275 283
367 372 357 348 354 348 344 334 357 344 333 326 312 294 283 278 275 274 273 266 264 262 264 263 263 259 255 254 258 255 250 253 262 258 255 272 276 277 271 262 266 287 284
389 369 378 371 365 361 359 348 341 339 363 334 330 320 310 305 298 281 270 265 264 262 260 259 257 255 256 263 266 270 274 271 271 271 271 273 273 274 263 258 254 260 269
383 387 379 379 378 375 368 370 352 347 344 351 350 334 325 314 302 296 297 295 294 292 290 285 280 275 277 279 273 270 269 271 267 265 274 266 265 270 258 254 257 260 261
392 390 388 386 386 388 380 375 357 361 360 357 357 362 342 334 318 304 295 290 283 286 288 282 275 275 276 274 278 281 272 270 269 271 264 263 266 263 264 264 260 255 254